[[{"header":{"parameterUnit":"m.s-1","parameterCategory":1,"la1":31.0,"la2":29.5877,"lo1":-88.7671,"lo2":-86.6584,"dy":0.0162,"dx":0.0185,"nx":115,"ny":88,"refTime":"2024-07-16T18:00:00:Z","depth":0,"parameterNumber":2,"parameterNumberName":"U-component_of_WINDS"},"data":[0.0,0.0,0.0,0.0,0.0,0.0,0.0,0.0,0.0,0.0,0.0,0.0,0.0,0.0,0.0,0.0,0.0,0.0,0.0,0.0,0.0,0.0,0.0,0.0,0.0,0.0,0.0,0.0,0.0,0.0,0.0,0.0,0.0,0.0,0.0,0.0,0.0,0.0,0.0,0.0,0.0,0.0,0.0,0.0,0.0,0.0,0.0,0.0,0.0,0.0,0.0,0.0,0.0,0.0,0.0,0.0,0.0,0.0,0.0,0.0,0.0,0.0,0.0,0.0,0.0,0.0,0.0,0.0,0.0,0.0,0.0,0.0,0.0,0.0,0.0,0.0,0.0,0.0,0.0,0.0,0.0,0.0,0.0,0.0,0.0,0.0,0.0,0.0,0.0,0.0,0.0,0.0,0.0,0.0,0.0,0.0,0.0,0.0,0.0,0.0,0.0,0.0,0.0,0.0,0.0,0.0,0.0,0.0,0.0,0.0,0.0,0.0,0.0,0.0,0.0,0.0,0.0,0.0,0.0,0.0,0.0,0.0,0.0,0.0,0.0,0.0,0.0,0.0,0.0,0.0,0.0,0.0,0.0,0.0,0.0,0.0,0.0,0.0,0.0,0.0,0.0,0.0,0.0,0.0,0.0,0.0,0.0,0.0,0.0,0.0,0.0,0.0,0.0,0.0,0.0,0.0,0.0,0.0,0.0,0.0,0.0,0.0,0.0,0.0,0.0,0.0,0.0,0.0,0.0,0.0,0.0,0.0,0.0,0.0,0.0,0.0,0.0,0.0,0.0,0.0,0.0,0.0,0.0,0.0,0.0,0.0,0.0,0.0,0.0,0.0,0.0,0.0,0.0,0.0,0.0,0.0,0.0,0.0,0.0,0.0,0.0,0.0,0.0,0.0,0.0,0.0,0.0,0.0,0.0,0.0,0.0,0.0,0.0,0.0,0.0,0.0,0.0,0.0,0.0,0.0,0.0,0.0,0.0,0.0,0.0,0.0,0.0,0.0,0.0,0.0,0.0,0.0,0.0,0.0,0.0,0.0,0.0,0.0,0.0,0.0,0.0,0.0,0.0,0.0,0.0,0.0,0.0,0.0,0.0,0.0,0.0,0.0,0.0,0.0,0.0,0.0,0.0,0.0,0.0,0.0,0.0,0.0,0.0,0.0,0.0,0.0,0.0,0.0,0.0,0.0,0.0,0.0,0.0,0.0,0.0,0.0,0.0,0.0,0.0,0.0,0.0,0.0,0.0,0.0,0.0,0.0,0.0,0.0,0.0,0.0,0.0,0.0,0.0,0.0,0.0,0.0,0.0,0.0,0.0,0.0,0.0,0.0,0.0,0.0,0.0,0.0,0.0,0.0,0.0,0.0,0.0,0.0,0.0,0.0,0.0,0.0,0.0,0.0,0.0,0.0,0.0,0.0,0.0,0.0,0.0,0.0,0.0,0.0,0.0,0.0,0.0,0.0,0.0,0.0,0.0,0.0,0.0,0.0,0.0,0.0,0.0,0.0,0.0,0.0,0.0,0.0,0.0,0.0,0.0,0.0,0.0,0.0,0.0,0.0,0.0,0.0,0.0,0.0,0.0,0.0,0.0,0.0,0.0,0.0,0.0,0.0,0.0,0.0,0.0,0.0,0.0,0.0,0.0,0.0,0.0,0.0,0.0,0.0,0.0,0.0,0.0,0.0,0.0,0.0,0.0,0.0,0.0,0.0,0.0,0.0,0.0,0.0,0.0,0.0,0.0,0.0,0.0,0.0,0.0,0.0,0.0,0.0,0.0,0.0,0.0,0.0,0.0,0.0,0.0,0.0,0.0,0.0,0.0,0.0,0.0,0.0,0.0,0.0,0.0,0.0,0.0,0.0,0.0,0.0,0.0,0.0,0.0,0.0,0.0,0.0,0.0,0.0,0.0,0.0,0.0,0.0,0.0,0.0,0.0,0.0,0.0,0.0,0.0,0.0,0.0,0.0,0.0,0.0,0.0,0.0,0.0,0.0,0.0,0.0,0.0,0.0,0.0,0.0,0.0,0.0,0.0,0.0,0.0,0.0,0.0,0.0,0.0,0.0,0.0,0.0,0.0,0.0,0.0,0.0,0.0,0.0,0.0,0.0,0.0,0.0,0.0,0.0,0.0,0.0,0.0,0.0,0.0,0.0,0.0,0.0,0.0,0.0,0.0,0.0,0.0,0.0,0.0,0.0,0.0,0.0,0.0,0.0,0.0,0.0,0.0,0.0,0.0,0.0,0.0,0.0,0.0,0.0,0.0,0.0,0.0,0.0,0.0,0.0,0.0,0.0,0.0,0.0,0.0,0.0,0.0,0.0,0.0,0.0,0.0,0.0,0.0,0.0,0.0,0.0,0.0,0.0,0.0,0.0,0.0,0.0,0.0,0.0,0.0,0.0,0.0,0.0,0.0,0.0,0.0,0.0,0.0,0.0,0.0,0.0,0.0,0.0,0.0,0.0,0.0,0.0,0.0,0.0,0.0,0.0,0.0,0.0,0.0,0.0,0.0,0.0,0.0,0.0,0.0,0.0,0.0,0.0,0.0,0.0,0.0,0.0,0.0,0.0,0.0,0.0,0.0,0.0,0.0,0.0,0.0,0.0,0.0,0.0,0.0,0.0,0.0,0.0,0.0,0.0,0.0,0.0,0.0,0.0,0.0,0.0,0.0,0.0,0.0,0.0,0.0,0.0,0.0,0.0,0.0,0.0,0.0,0.0,0.0,0.0,0.0,0.0,0.0,0.0,0.0,0.0,0.0,0.0,0.0,0.0,0.0,0.0,0.0,0.0,0.0,0.0,0.0,0.0,0.0,0.0,0.0,0.0,0.0,0.0,0.0,0.0,0.0,0.0,0.0,0.0,0.0,0.0,0.0,0.0,0.0,0.0,0.0,0.0,0.0,0.0,0.0,0.0,0.0,0.0,0.0,0.0,0.0,0.0,0.0,0.0,0.0,0.0,0.0,0.0,0.0,0.0,0.0,0.0,0.0,0.0,0.0,0.0,0.0,0.0,0.0,0.0,0.0,0.0,0.0,0.0,0.0,0.0,0.0,0.0,0.0,0.0,0.0,0.0,0.0,0.0,0.0,0.0,0.0,0.0,0.0,0.0,0.0,0.0,0.0,0.0,0.0,0.0,0.0,0.0,0.0,0.0,0.0,0.0,0.0,0.0,0.0,0.0,0.0,0.0,0.0,0.0,0.0,0.0,0.0,0.0,0.0,0.0,0.0,0.0,0.0,0.0,0.0,0.0,0.0,0.0,0.0,0.0,0.0,0.0,0.0,0.0,0.0,0.0,0.0,0.0,0.0,0.0,0.0,0.0,0.0,0.0,0.0,0.0,0.0,0.0,0.0,0.0,0.0,0.0,0.0,0.0,0.0,0.0,0.0,0.0,0.0,0.0,0.0,0.0,0.0,0.0,0.0,0.0,0.0,0.0,0.0,0.0,0.0,0.0,0.0,0.0,0.0,0.0,0.0,0.0,0.0,0.0,0.0,0.0,0.0,0.0,0.0,0.0,0.0,0.0,0.0,0.0,0.0,0.0,0.0,0.0,0.0,0.0,0.0,0.0,0.0,0.0,0.0,0.0,0.0,0.0,0.0,0.0,0.0,0.0,0.0,0.0,0.0,0.0,0.0,0.0,0.0,0.0,0.0,0.0,0.0,0.0,0.0,0.0,0.0,0.0,0.0,0.0,0.0,0.0,0.0,0.0,0.0,0.0,0.0,0.0,0.0,0.0,0.0,0.0,0.0,0.0,0.0,0.0,0.0,0.0,0.0,0.0,0.0,0.0,0.0,0.0,0.0,0.0,0.0,0.0,0.0,0.0,0.0,0.0,0.0,0.0,0.0,0.0,0.0,0.0,0.0,0.0,0.0,0.0,0.0,0.0,0.0,0.0,0.0,0.0,0.0,0.0,0.0,0.0,0.0,0.0,0.0,0.0,0.0,0.0,0.0,0.0,0.0,0.0,0.0,0.0,0.0,0.0,0.0,0.0,0.0,0.0,0.0,0.0,0.0,0.0,0.0,0.0,0.0,0.0,0.0,0.0,0.0,0.0,0.0,0.0,0.0,0.0,0.0,0.0,0.0,0.0,0.0,0.0,0.0,0.0,0.0,0.0,0.0,0.0,0.0,0.0,0.0,0.0,0.0,0.0,0.0,0.0,0.0,0.0,0.0,0.0,0.0,0.0,0.0,0.0,0.0,0.0,0.0,0.0,0.0,0.0,0.0,0.0,0.0,0.0,0.0,0.0,0.0,0.0,0.0,0.0,-0.51,0.0,0.0,0.0,0.0,0.0,0.0,0.0,0.0,0.0,0.0,0.0,0.0,0.0,0.0,0.0,0.0,0.0,0.0,0.0,0.0,0.0,0.0,0.0,0.0,0.0,0.0,0.0,0.0,0.0,0.0,0.0,0.0,0.0,0.0,0.0,0.0,0.0,0.0,0.0,0.0,0.0,0.0,0.0,0.0,0.0,0.0,0.0,0.0,0.0,0.0,0.0,0.0,0.0,0.0,0.0,0.0,0.0,0.0,0.0,0.0,0.0,0.0,0.0,0.0,0.0,0.0,0.0,0.0,0.0,0.0,0.0,0.0,0.0,0.0,0.0,0.0,0.0,0.0,0.0,0.0,0.0,0.0,0.0,0.0,0.0,0.0,0.0,0.0,0.0,0.0,0.0,0.0,0.0,0.0,0.0,0.0,0.0,0.0,0.0,0.0,0.0,0.0,0.0,0.0,0.0,0.0,0.0,0.0,0.0,0.0,-0.5094,-0.5095,-0.5089,-0.5102,-0.5093,0.0,0.0,0.0,0.0,0.0,0.0,0.0,0.0,0.0,0.0,0.0,0.0,0.0,0.0,0.0,0.0,0.0,0.0,0.0,0.0,0.0,0.0,0.0,0.0,0.0,0.0,0.0,0.0,0.0,0.0,0.0,0.0,0.0,0.0,0.0,0.0,0.0,0.0,0.0,0.0,0.0,0.0,0.0,0.0,0.0,0.0,0.0,0.0,0.0,0.0,0.0,0.0,0.0,0.0,0.0,0.0,0.0,0.0,0.0,0.0,0.0,0.0,0.0,0.0,0.0,0.0,0.0,0.0,0.0,0.0,0.0,0.0,0.0,0.0,0.0,0.0,0.0,0.0,0.0,0.0,0.0,0.0,0.0,0.0,0.0,0.0,0.0,0.0,0.0,0.0,0.0,0.0,0.0,0.0,0.0,0.0,0.0,0.0,0.0,0.0,0.0,0.0,0.0,0.0,0.0,0.0,0.0,0.0,0.0,0.0,0.0,0.0,-0.5095,-0.509,-0.5101,0.0,0.0,0.0,0.0,0.0,0.0,0.0,0.0,0.0,0.0,0.0,0.0,0.0,0.0,0.0,0.0,0.0,0.0,0.0,0.0,0.0,0.0,0.0,0.0,0.0,0.0,0.0,0.0,0.0,0.0,0.0,0.0,0.0,0.0,0.0,0.0,0.0,0.0,0.0,0.0,0.0,0.0,0.0,0.0,0.0,0.0,0.0,0.0,0.0,0.0,0.0,0.0,0.0,0.0,0.0,0.0,0.0,0.0,0.0,0.0,0.0,0.0,0.0,0.0,0.0,0.0,0.0,0.0,0.0,0.0,0.0,0.0,0.0,0.0,0.0,0.0,0.0,0.0,0.0,0.0,0.0,0.0,0.0,0.0,0.0,0.0,0.0,0.0,0.0,0.0,0.0,0.0,0.0,0.0,0.0,0.0,0.0,0.0,0.0,0.0,0.0,0.0,0.0,0.0,0.0,0.0,0.0,0.0,0.0,0.0,-0.5096,-0.5097,-0.5098,0.0,-0.5102,0.0,0.0,0.0,0.0,0.0,0.0,0.0,0.0,0.0,0.0,0.0,0.0,0.0,0.0,0.0,0.0,0.0,0.0,0.0,0.0,0.0,0.0,0.0,0.0,0.0,0.0,0.0,0.0,0.0,0.0,0.0,0.0,0.0,0.0,0.0,0.0,0.0,0.0,0.0,0.0,0.0,0.0,0.0,0.0,0.0,0.0,0.0,0.0,0.0,0.0,0.0,0.0,0.0,0.0,0.0,0.0,0.0,0.0,0.0,0.0,0.0,0.0,0.0,0.0,0.0,0.0,0.0,0.0,0.0,0.0,0.0,0.0,0.0,0.0,0.0,0.0,0.0,0.0,0.0,0.0,0.0,0.0,0.0,0.0,0.0,0.0,0.0,0.0,0.0,0.0,0.0,0.0,0.0,0.0,0.0,0.0,0.0,0.0,0.0,0.0,0.0,0.0,0.0,0.0,0.0,0.0,0.0,0.0,0.0,0.0,0.0,-0.5093,-0.5097,-0.5097,0.0,0.0,0.0,0.0,0.0,0.0,0.0,0.0,0.0,0.0,0.0,0.0,0.0,0.0,0.0,0.0,0.0,0.0,0.0,0.0,0.0,0.0,0.0,0.0,0.0,0.0,0.0,0.0,0.0,0.0,0.0,0.0,0.0,0.0,0.0,0.0,0.0,0.0,0.0,0.0,0.0,0.0,0.0,0.0,0.0,0.0,0.0,0.0,0.0,0.0,0.0,0.0,0.0,0.0,0.0,0.0,0.0,0.0,0.0,0.0,0.0,0.0,0.0,0.0,0.0,0.0,0.0,0.0,0.0,0.0,0.0,0.0,0.0,0.0,0.0,0.0,0.0,0.0,0.0,0.0,0.0,0.0,0.0,0.0,0.0,0.0,0.0,0.0,0.0,0.0,0.0,0.0,0.0,0.0,0.0,0.0,0.0,0.0,0.0,0.0,0.0,0.0,0.0,0.0,0.0,0.0,0.0,0.0,0.0,0.0,-0.5092,0.0,-0.5087,-0.5095,-0.5098,-0.5097,0.0,0.0,0.0,0.0,0.0,0.0,0.0,0.0,0.0,0.0,0.0,0.0,0.0,0.0,0.0,0.0,0.0,0.0,0.0,0.0,0.0,0.0,0.0,0.0,0.0,0.0,0.0,0.0,0.0,0.0,0.0,0.0,0.0,0.0,0.0,0.0,0.0,0.0,0.0,0.0,0.0,0.0,0.0,0.0,0.0,0.0,0.0,0.0,0.0,0.0,0.0,0.0,0.0,0.0,0.0,0.0,0.0,0.0,0.0,0.0,0.0,0.0,0.0,0.0,0.0,0.0,0.0,0.0,0.0,0.0,0.0,0.0,0.0,0.0,0.0,0.0,0.0,0.0,0.0,0.0,0.0,0.0,0.0,0.0,0.0,0.0,0.0,0.0,0.0,0.0,0.0,0.0,0.0,0.0,0.0,0.0,0.0,0.0,0.0,0.0,0.0,0.0,0.0,0.0,0.0,0.0,0.0,0.0,0.0,-0.513,-0.5121,-0.512,-0.5106,-0.5094,0.0,0.0,0.0,0.0,0.0,0.0,0.0,0.0,0.0,0.0,0.0,0.0,0.0,0.0,0.0,0.0,0.0,0.0,0.0,0.0,0.0,0.0,0.0,0.0,0.0,0.0,0.0,0.0,0.0,0.0,0.0,0.0,0.0,0.0,0.0,0.0,0.0,0.0,0.0,0.0,0.0,0.0,0.0,0.0,0.0,0.0,0.0,0.0,0.0,0.0,0.0,0.0,0.0,0.0,0.0,0.0,0.0,0.0,0.0,0.0,0.0,0.0,0.0,0.0,0.0,0.0,0.0,0.0,0.0,0.0,0.0,0.0,0.0,0.0,0.0,0.0,0.0,0.0,0.0,0.0,0.0,0.0,0.0,0.0,0.0,0.0,0.0,0.0,0.0,0.0,0.0,0.0,0.0,0.0,0.0,0.0,0.0,0.0,0.0,0.0,0.0,0.0,0.0,0.0,0.0,0.0,0.0,0.0,0.0,-0.5851,-0.6417,-0.6453,-0.5971,-0.5944,-0.5666,0.0,0.0,0.0,0.0,0.0,0.0,0.0,0.0,0.0,0.0,0.0,0.0,0.0,0.0,0.0,0.0,0.0,0.0,0.0,0.0,0.0,0.0,0.0,0.0,0.0,0.0,0.0,0.0,0.0,0.0,0.0,0.0,0.0,0.0,0.0,0.0,0.0,0.0,0.0,0.0,0.0,0.0,0.0,0.0,0.0,0.0,0.0,0.0,0.0,0.0,0.0,0.0,0.0,0.0,0.0,0.0,0.0,0.0,0.0,0.0,0.0,0.0,0.0,0.0,0.0,0.0,0.0,0.0,0.0,0.0,0.0,0.0,0.0,0.0,0.0,0.0,0.0,0.0,0.0,0.0,0.0,0.0,0.0,0.0,0.0,0.0,0.0,0.0,0.0,0.0,0.0,0.0,0.0,0.0,0.0,0.0,0.0,0.0,0.0,0.0,0.0,0.0,0.0,0.0,0.0,0.0,0.0,0.0,0.0,-0.6674,0.0,-0.7349,0.0,-0.6793,-0.6386,0.0,0.0,0.0,0.0,0.0,0.0,0.0,0.0,0.0,0.0,0.0,0.0,0.0,0.0,0.0,0.0,0.0,0.0,0.0,0.0,0.0,0.0,0.0,0.0,0.0,0.0,0.0,0.0,0.0,0.0,0.0,0.0,0.0,0.0,0.0,0.0,0.0,0.0,0.0,0.0,0.0,0.0,0.0,0.0,0.0,0.0,0.0,0.0,0.0,0.0,0.0,0.0,0.0,0.0,0.0,0.0,0.0,0.0,0.0,0.0,0.0,0.0,0.0,0.0,0.0,0.0,0.0,0.0,0.0,0.0,0.0,0.0,0.0,0.0,0.0,0.0,0.0,0.0,0.0,0.0,0.0,0.0,0.0,0.0,0.0,0.0,0.0,0.0,0.0,0.0,0.0,0.0,0.0,0.0,0.0,0.0,0.0,0.0,0.0,0.0,0.0,0.0,0.0,0.0,0.0,0.0,0.0,0.0,-0.6688,-0.7504,-0.7646,-0.7753,-0.7643,-0.7667,-0.7247,0.0,0.0,0.0,0.0,0.0,0.0,0.0,0.0,0.0,0.0,0.0,0.0,0.0,0.0,0.0,0.0,0.0,0.0,0.0,0.0,0.0,0.0,0.0,0.0,0.0,0.0,0.0,0.0,0.0,0.0,0.0,0.0,0.0,0.0,0.0,0.0,0.0,0.0,0.0,0.0,0.0,0.0,0.0,0.0,0.0,0.0,0.0,0.0,0.0,0.0,0.0,0.0,0.0,0.0,0.0,0.0,0.0,0.0,0.0,0.0,0.0,0.0,0.0,0.0,0.0,0.0,0.0,0.0,0.0,0.0,0.0,0.0,0.0,0.0,0.0,0.0,0.0,0.0,0.0,0.0,0.0,0.0,0.0,0.0,0.0,0.0,0.0,0.0,0.0,0.0,0.0,0.0,0.0,0.0,0.0,0.0,0.0,0.0,0.0,0.0,0.0,0.0,0.0,0.0,0.0,0.0,0.0,0.0,0.0,-0.9216,-0.9829,-0.9877,-0.9287,-0.9295,-0.8676,0.0,0.0,0.0,0.0,0.0,0.0,0.0,0.0,0.0,0.0,0.0,0.0,0.0,0.0,0.0,0.0,0.0,0.0,0.0,0.0,0.0,0.0,0.0,0.0,0.0,0.0,0.0,0.0,0.0,0.0,0.0,0.0,0.0,0.0,0.0,0.0,0.0,0.0,0.0,0.0,0.0,0.0,0.0,0.0,0.0,0.0,0.0,0.0,0.0,0.0,0.0,0.0,0.0,0.0,0.0,0.0,0.0,0.0,0.0,0.0,0.0,0.0,0.0,0.0,0.0,0.0,0.0,0.0,0.0,0.0,0.0,0.0,0.0,0.0,0.0,0.0,0.0,0.0,0.0,0.0,0.0,0.0,0.0,0.0,0.0,0.0,0.0,0.0,0.0,0.0,0.0,0.0,0.0,0.0,0.0,0.0,0.0,0.0,0.0,0.0,0.0,0.0,0.0,0.0,0.0,0.0,0.0,0.0,0.0,-1.1723,-1.2012,-1.1914,-1.1394,-1.1125,-1.0229,-0.8582,0.0,0.0,0.0,0.0,0.0,0.0,0.0,0.0,0.0,0.0,0.0,0.0,0.0,0.0,0.0,0.0,0.0,0.0,0.0,0.0,0.0,0.0,0.0,0.0,0.0,0.0,0.0,0.0,0.0,0.0,0.0,0.0,0.0,0.0,0.0,0.0,0.0,0.0,0.0,0.0,0.0,0.0,0.0,0.0,0.0,0.0,0.0,0.0,0.0,0.0,0.0,0.0,0.0,0.0,0.0,0.0,0.0,0.0,0.0,0.0,0.0,0.0,0.0,0.0,0.0,0.0,0.0,0.0,0.0,0.0,0.0,0.0,0.0,0.0,0.0,0.0,0.0,0.0,0.0,0.0,0.0,0.0,0.0,0.0,0.0,0.0,0.0,0.0,0.0,0.0,0.0,0.0,0.0,0.0,0.0,0.0,0.0,0.0,0.0,0.0,0.0,0.0,0.0,0.0,0.0,0.0,0.0,0.0,-1.4819,-1.4242,-1.3925,-1.3812,-1.3045,-1.1875,0.0,0.0,0.0,0.0,0.0,0.0,0.0,0.0,0.0,0.0,0.0,0.0,0.0,0.0,0.0,0.0,0.0,0.0,0.0,0.0,0.0,0.0,0.0,0.0,0.0,0.0,0.0,0.0,0.0,0.0,0.0,0.0,0.0,0.0,0.0,0.0,0.0,0.0,0.0,0.0,0.0,0.0,0.0,0.0,0.0,0.0,0.0,0.0,0.0,0.0,0.0,0.0,0.0,0.0,0.0,0.0,0.0,0.0,0.0,0.0,0.0,0.0,0.0,0.0,0.0,0.0,0.0,0.0,0.0,0.0,0.0,0.0,0.0,0.0,0.0,0.0,0.0,0.0,0.0,0.0,0.0,0.0,0.0,0.0,0.0,0.0,0.0,0.0,0.0,0.0,0.0,0.0,0.0,0.0,0.0,0.0,0.0,0.0,0.0,0.0,0.0,0.0,0.0,0.0,0.0,0.0,0.0,0.0,0.0,-1.6401,-1.7442,-1.7189,-1.5616,-1.4713,-1.3526,0.0,0.0,0.0,0.0,0.0,0.0,0.0,0.0,0.0,0.0,0.0,0.0,0.0,0.0,0.0,0.0,0.0,0.0,0.0,0.0,0.0,0.0,0.0,0.0,0.0,0.0,0.0,0.0,0.0,0.0,0.0,0.0,0.0,0.0,0.0,0.0,0.0,0.0,0.0,0.0,0.0,0.0,0.0,0.0,0.0,0.0,0.0,0.0,0.0,0.0,0.0,0.0,0.0,0.0,0.0,0.0,0.0,0.0,0.0,0.0,0.0,0.0,0.0,0.0,0.0,0.0,0.0,0.0,0.0,0.0,0.0,0.0,0.0,0.0,0.0,0.0,0.0,0.0,0.0,0.0,0.0,0.0,0.0,0.0,0.0,0.0,0.0,0.0,0.0,0.0,0.0,0.0,0.0,0.0,0.0,0.0,0.0,0.0,0.0,0.0,0.0,0.0,0.0,0.0,0.0,0.0,0.0,0.0,-1.6306,-1.8086,-1.9692,-1.9962,-1.8742,-1.6884,-1.5165,0.0,0.0,0.0,0.0,0.0,0.0,0.0,0.0,0.0,0.0,0.0,0.0,0.0,0.0,0.0,0.0,0.0,0.0,0.0,0.0,0.0,0.0,0.0,0.0,0.0,0.0,0.0,0.0,0.0,0.0,0.0,0.0,0.0,0.0,0.0,0.0,0.0,0.0,0.0,0.0,0.0,0.0,0.0,0.0,0.0,0.0,0.0,0.0,0.0,0.0,0.0,0.0,0.0,0.0,0.0,0.0,0.0,0.0,0.0,0.0,0.0,0.0,0.0,0.0,0.0,0.0,0.0,0.0,0.0,0.0,0.0,0.0,0.0,0.0,0.0,0.0,0.0,0.0,0.0,0.0,0.0,0.0,0.0,0.0,0.0,0.0,0.0,0.0,0.0,0.0,0.0,0.0,0.0,0.0,0.0,0.0,0.0,0.0,0.0,0.0,0.0,0.0,0.0,0.0,0.0,0.0,0.0,0.0,-1.7877,-1.958,-2.1242,-2.2184,-2.2207,-1.9226,-1.6822,0.0,0.0,0.0,0.0,0.0,0.0,0.0,0.0,0.0,0.0,0.0,0.0,0.0,0.0,0.0,0.0,0.0,0.0,0.0,0.0,0.0,0.0,0.0,0.0,0.0,0.0,0.0,0.0,0.0,0.0,0.0,0.0,0.0,0.0,0.0,0.0,0.0,0.0,0.0,0.0,0.0,0.0,0.0,0.0,0.0,0.0,0.0,0.0,0.0,0.0,0.0,0.0,0.0,0.0,0.0,0.0,0.0,0.0,0.0,0.0,0.0,0.0,0.0,0.0,0.0,0.0,0.0,0.0,0.0,0.0,0.0,0.0,0.0,0.0,0.0,0.0,0.0,0.0,0.0,0.0,0.0,0.0,0.0,0.0,0.0,0.0,0.0,0.0,0.0,0.0,0.0,0.0,0.0,0.0,0.0,0.0,0.0,0.0,0.0,0.0,0.0,0.0,0.0,0.0,0.0,0.0,0.0,0.0,-1.8669,-2.0348,-2.2041,-2.2996,-2.3036,-2.0568,-1.8437,0.0,0.0,0.0,0.0,0.0,0.0,0.0,0.0,0.0,0.0,0.0,0.0,0.0,0.0,0.0,0.0,0.0,0.0,0.0,0.0,0.0,0.0,0.0,0.0,0.0,0.0,0.0,0.0,0.0,0.0,0.0,0.0,0.0,0.0,0.0,0.0,0.0,0.0,0.0,0.0,0.0,0.0,0.0,0.0,0.0,0.0,0.0,0.0,-0.8875,0.0,0.0,0.0,0.0,0.0,0.0,0.0,0.0,0.0,0.0,0.0,0.0,0.0,0.0,0.0,0.0,0.0,0.0,0.0,0.0,0.0,0.0,0.0,0.0,0.0,0.0,0.0,0.0,0.0,0.0,0.0,0.0,0.0,0.0,0.0,0.0,0.0,0.0,0.0,0.0,0.0,0.0,0.0,0.0,0.0,0.0,0.0,0.0,0.0,0.0,0.0,0.0,0.0,0.0,0.0,0.0,0.0,0.0,0.0,-1.9481,-2.1171,-2.2876,-2.3797,-2.3787,-2.1887,-1.9894,0.0,0.0,0.0,0.0,0.0,0.0,0.0,0.0,0.0,0.0,0.0,0.0,0.0,0.0,0.0,0.0,0.0,0.0,0.0,0.0,0.0,0.0,0.0,0.0,0.0,0.0,0.0,0.0,0.0,0.0,0.0,0.0,0.0,0.0,0.0,0.0,0.0,0.0,0.0,0.0,0.0,0.0,0.0,0.0,0.0,0.0,0.0,0.0,0.0,0.0,0.0,0.0,0.0,0.0,0.0,0.0,0.0,0.0,0.0,0.0,0.0,0.0,0.0,0.0,0.0,0.0,0.0,0.0,0.0,0.0,0.0,0.0,0.0,0.0,0.0,0.0,0.0,0.0,0.0,0.0,0.0,0.0,0.0,0.0,0.0,0.0,0.0,0.0,0.0,0.0,0.0,0.0,0.0,0.0,0.0,0.0,0.0,0.0,0.0,0.0,0.0,0.0,0.0,0.0,0.0,0.0,0.0,-1.8027,-2.0167,-2.1863,-2.3507,-2.4401,-2.4468,-2.2949,-2.1036,-1.8738,0.0,0.0,0.0,0.0,0.0,0.0,0.0,0.0,0.0,0.0,0.0,0.0,0.0,0.0,0.0,0.0,0.0,0.0,0.0,0.0,0.0,0.0,0.0,0.0,0.0,0.0,0.0,0.0,0.0,0.0,0.0,0.0,0.0,0.0,0.0,0.0,0.0,0.0,-0.8066,-0.8314,0.0,0.0,0.0,0.0,0.0,0.0,0.0,0.0,-1.333,0.0,0.0,0.0,0.0,0.0,0.0,0.0,0.0,0.0,0.0,0.0,0.0,0.0,0.0,0.0,0.0,0.0,0.0,0.0,0.0,0.0,0.0,0.0,0.0,0.0,0.0,0.0,0.0,0.0,0.0,0.0,0.0,0.0,0.0,0.0,0.0,0.0,0.0,0.0,0.0,0.0,0.0,0.0,0.0,0.0,0.0,0.0,0.0,0.0,0.0,0.0,0.0,0.0,0.0,0.0,0.0,-1.54,-1.8476,-2.0624,-2.1809,-2.3409,-2.4321,-2.4444,-2.2952,-2.1287,-1.95,0.0,0.0,0.0,0.0,0.0,0.0,0.0,0.0,0.0,0.0,0.0,0.0,0.0,0.0,0.0,0.0,0.0,0.0,0.0,0.0,0.0,0.0,0.0,0.0,0.0,0.0,0.0,0.0,0.0,0.0,0.0,0.0,0.0,0.0,0.0,0.0,0.0,0.0,0.0,-1.1052,-1.1445,0.0,0.0,0.0,0.0,0.0,0.0,0.0,0.0,-1.5062,0.0,0.0,0.0,0.0,0.0,0.0,0.0,0.0,0.0,0.0,0.0,0.0,0.0,0.0,0.0,0.0,0.0,0.0,0.0,0.0,0.0,0.0,0.0,0.0,0.0,0.0,0.0,0.0,0.0,0.0,0.0,0.0,0.0,0.0,0.0,0.0,0.0,0.0,0.0,0.0,0.0,0.0,0.0,0.0,0.0,0.0,0.0,0.0,0.0,0.0,0.0,0.0,0.0,0.0,0.0,-1.6556,-1.8966,-2.0925,-2.2399,-2.3603,-2.4294,-2.4454,-2.2901,-2.1295,0.0,0.0,0.0,0.0,0.0,0.0,0.0,0.0,0.0,0.0,0.0,0.0,0.0,0.0,0.0,0.0,0.0,0.0,0.0,0.0,0.0,0.0,0.0,0.0,0.0,0.0,0.0,0.0,0.0,0.0,0.0,0.0,0.0,0.0,0.0,0.0,0.0,0.0,0.0,0.0,-1.2083,-1.2829,-1.2899,0.0,0.0,0.0,0.0,0.0,0.0,-1.6198,-1.725,0.0,0.0,0.0,0.0,0.0,0.0,0.0,0.0,0.0,0.0,0.0,0.0,0.0,0.0,0.0,0.0,0.0,0.0,0.0,0.0,0.0,0.0,0.0,0.0,0.0,0.0,0.0,0.0,0.0,0.0,0.0,0.0,0.0,0.0,0.0,0.0,0.0,0.0,0.0,0.0,0.0,0.0,0.0,0.0,0.0,0.0,0.0,0.0,0.0,0.0,0.0,0.0,0.0,0.0,0.0,-1.7625,-1.9444,-2.1215,-2.2923,-2.3739,-2.4238,-2.4472,-2.2911,-2.1254,0.0,0.0,0.0,0.0,0.0,0.0,0.0,0.0,0.0,0.0,0.0,0.0,0.0,0.0,0.0,0.0,0.0,0.0,0.0,0.0,0.0,0.0,0.0,0.0,0.0,0.0,0.0,0.0,0.0,0.0,0.0,0.0,0.0,0.0,0.0,0.0,0.0,0.0,0.0,0.0,0.0,-1.3521,-1.5515,-1.7208,0.0,0.0,0.0,0.0,-1.5554,-1.8339,0.0,0.0,0.0,0.0,0.0,0.0,0.0,0.0,0.0,0.0,0.0,0.0,0.0,0.0,0.0,0.0,0.0,0.0,0.0,0.0,0.0,0.0,0.0,0.0,0.0,0.0,0.0,0.0,0.0,0.0,0.0,0.0,0.0,0.0,0.0,0.0,0.0,0.0,0.0,0.0,0.0,0.0,0.0,0.0,0.0,0.0,0.0,0.0,0.0,0.0,0.0,0.0,0.0,0.0,0.0,0.0,-1.7668,-1.9822,-2.1602,-2.2951,-2.3567,-2.4057,-2.4472,-2.2936,-2.1321,0.0,0.0,0.0,0.0,0.0,0.0,0.0,0.0,0.0,0.0,0.0,0.0,0.0,0.0,0.0,0.0,0.0,0.0,0.0,0.0,0.0,0.0,0.0,0.0,0.0,0.0,0.0,0.0,0.0,0.0,0.0,0.0,0.0,0.0,0.0,0.0,0.0,0.0,0.0,0.0,0.0,-1.3855,-1.6995,-1.8809,-1.9871,0.0,0.0,-1.5594,-1.7258,-1.9083,0.0,0.0,0.0,0.0,0.0,0.0,0.0,0.0,0.0,0.0,0.0,0.0,0.0,0.0,0.0,0.0,0.0,0.0,0.0,0.0,0.0,0.0,0.0,0.0,0.0,0.0,0.0,0.0,0.0,0.0,0.0,0.0,0.0,0.0,0.0,0.0,0.0,0.0,0.0,0.0,0.0,0.0,0.0,0.0,0.0,0.0,0.0,0.0,0.0,0.0,0.0,0.0,0.0,0.0,0.0,-1.5447,-1.8208,-2.019,-2.1878,-2.3285,-2.3715,-2.4037,-2.4257,-2.2825,-2.1273,0.0,0.0,0.0,0.0,0.0,0.0,0.0,0.0,0.0,0.0,0.0,0.0,0.0,0.0,0.0,0.0,0.0,0.0,0.0,0.0,0.0,0.0,0.0,0.0,0.0,0.0,0.0,0.0,0.0,0.0,0.0,0.0,0.0,0.0,0.0,0.0,0.0,0.0,0.0,0.0,0.0,0.0,-1.8785,-1.9745,0.0,0.0,0.0,-1.8738,-2.0392,0.0,0.0,0.0,0.0,0.0,0.0,0.0,0.0,0.0,0.0,0.0,0.0,0.0,0.0,0.0,0.0,0.0,0.0,0.0,0.0,0.0,0.0,0.0,0.0,0.0,0.0,0.0,0.0,0.0,0.0,0.0,0.0,0.0,0.0,0.0,0.0,0.0,0.0,0.0,0.0,0.0,0.0,0.0,0.0,0.0,0.0,0.0,0.0,0.0,0.0,0.0,0.0,0.0,0.0,0.0,0.0,0.0,-1.8643,-2.035,-2.1998,-2.3516,-2.3774,-2.3958,-2.407,-2.2689,0.0,0.0,0.0,0.0,0.0,0.0,0.0,0.0,0.0,0.0,0.0,0.0,0.0,0.0,0.0,0.0,0.0,0.0,0.0,0.0,0.0,0.0,0.0,0.0,0.0,0.0,0.0,-0.5425,0.0,0.0,0.0,0.0,0.0,0.0,0.0,0.0,0.0,0.0,0.0,0.0,0.0,0.0,-1.8395,-2.0498,-2.1066,-2.1652,0.0,0.0,-2.1689,-2.2542,-2.4036,-2.4817,0.0,0.0,0.0,0.0,0.0,0.0,0.0,0.0,0.0,0.0,0.0,0.0,0.0,0.0,0.0,0.0,0.0,0.0,0.0,0.0,0.0,0.0,0.0,0.0,0.0,0.0,0.0,0.0,0.0,0.0,0.0,0.0,0.0,0.0,0.0,0.0,0.0,0.0,0.0,0.0,0.0,0.0,0.0,0.0,0.0,0.0,0.0,0.0,0.0,0.0,0.0,0.0,0.0,0.0,0.0,-1.8643,-2.0238,-2.1861,-2.3523,-2.3547,-2.371,-2.4051,-2.2557,-2.1027,0.0,0.0,0.0,0.0,0.0,0.0,0.0,0.0,0.0,0.0,0.0,0.0,0.0,0.0,0.0,0.0,0.0,0.0,0.0,0.0,0.0,0.0,0.0,0.0,0.0,0.0,0.0,0.0,0.0,0.0,0.0,0.0,0.0,0.0,0.0,0.0,0.0,0.0,0.0,0.0,0.0,-1.864,-2.1984,-2.3304,-2.4053,0.0,-2.4421,-2.3933,-2.2545,-2.3581,-2.3532,-2.0504,0.0,0.0,0.0,0.0,0.0,0.0,0.0,0.0,0.0,0.0,0.0,0.0,0.0,0.0,0.0,0.0,0.0,0.0,0.0,0.0,0.0,0.0,0.0,0.0,0.0,0.0,0.0,0.0,0.0,0.0,0.0,0.0,0.0,0.0,0.0,0.0,0.0,0.0,0.0,0.0,0.0,0.0,0.0,0.0,0.0,0.0,0.0,0.0,0.0,0.0,0.0,0.0,0.0,-1.6235,-1.8556,-2.0177,-2.1748,-2.3212,-2.3417,-2.3594,-2.3739,-2.2285,-2.1033,0.0,0.0,0.0,0.0,0.0,0.0,0.0,0.0,0.0,0.0,0.0,0.0,0.0,0.0,0.0,0.0,0.0,0.0,0.0,0.0,0.0,0.0,0.0,0.0,0.0,0.0,0.0,0.0,-0.693,-0.7453,-0.7781,0.0,0.0,0.0,0.0,0.0,0.0,0.0,0.0,0.0,0.0,-1.848,-2.1761,-2.3363,0.0,0.0,-2.4488,-2.4375,-2.381,-2.4155,-2.4072,-2.2837,-2.1066,0.0,0.0,0.0,0.0,0.0,0.0,0.0,0.0,0.0,0.0,0.0,0.0,0.0,0.0,0.0,0.0,0.0,0.0,0.0,0.0,0.0,0.0,0.0,0.0,0.0,0.0,0.0,0.0,0.0,0.0,0.0,0.0,0.0,0.0,0.0,0.0,0.0,0.0,0.0,0.0,0.0,0.0,0.0,0.0,0.0,0.0,0.0,0.0,0.0,0.0,0.0,0.0,-1.6545,-1.8828,-2.022,-2.1637,-2.3072,-2.3283,-2.3424,-2.3468,-2.2298,-2.1212,0.0,0.0,0.0,0.0,0.0,0.0,0.0,0.0,0.0,0.0,0.0,0.0,0.0,0.0,0.0,0.0,0.0,0.0,0.0,0.0,0.0,0.0,0.0,0.0,0.0,0.0,0.0,0.0,-0.7398,-0.8551,-1.0086,0.0,0.0,0.0,0.0,0.0,0.0,0.0,0.0,0.0,0.0,-1.943,-2.1649,-2.3234,-2.4237,-2.4266,-2.4339,-2.4447,-2.4568,-2.4542,-2.45,-2.45,0.0,0.0,0.0,0.0,0.0,0.0,0.0,0.0,0.0,0.0,0.0,0.0,0.0,0.0,0.0,0.0,0.0,0.0,0.0,0.0,0.0,0.0,0.0,0.0,0.0,0.0,0.0,-0.7814,0.0,0.0,-0.732,0.0,0.0,0.0,0.0,0.0,0.0,0.0,0.0,0.0,0.0,0.0,0.0,0.0,0.0,0.0,0.0,0.0,0.0,0.0,0.0,0.0,0.0,-1.7289,-1.9636,-2.0455,-2.1568,-2.3037,-2.3119,-2.3235,-2.3463,-2.2638,-2.1524,-2.011,0.0,0.0,0.0,0.0,0.0,0.0,0.0,0.0,0.0,0.0,0.0,0.0,0.0,0.0,0.0,0.0,0.0,0.0,0.0,0.0,0.0,0.0,0.0,0.0,0.0,0.0,-0.5245,-0.7664,-1.0015,0.0,0.0,0.0,0.0,0.0,0.0,0.0,0.0,0.0,0.0,-2.1789,-2.1812,-2.1941,-2.3208,-2.4199,-2.4199,-2.4199,-2.4275,-2.4465,-2.45,-2.45,0.0,0.0,0.0,0.0,0.0,0.0,0.0,0.0,0.0,0.0,0.0,0.0,0.0,0.0,0.0,0.0,0.0,0.0,0.0,0.0,0.0,0.0,0.0,0.0,0.0,0.0,0.0,-1.0381,-1.06,0.0,0.0,0.0,0.0,0.0,0.0,0.0,0.0,0.0,0.0,0.0,-1.6089,-1.6105,0.0,0.0,0.0,0.0,0.0,0.0,0.0,0.0,0.0,0.0,0.0,0.0,-1.8352,-1.9679,-2.0954,-2.2084,-2.3072,-2.3107,-2.3139,-2.3223,-2.2476,-2.1131,-1.9151,0.0,0.0,0.0,0.0,0.0,0.0,0.0,0.0,0.0,0.0,0.0,0.0,0.0,0.0,0.0,0.0,0.0,0.0,0.0,0.0,0.0,0.0,0.0,0.0,0.0,-0.8503,0.0,0.0,0.0,0.0,0.0,0.0,0.0,0.0,0.0,0.0,0.0,-2.2008,-2.3114,-2.2437,-2.2215,-2.3281,-2.386,-2.4199,0.0,0.0,0.0,0.0,0.0,0.0,0.0,0.0,0.0,0.0,0.0,0.0,0.0,0.0,-2.1558,-1.7286,-1.7313,-1.7988,-1.7988,0.0,0.0,0.0,0.0,0.0,0.0,0.0,0.0,0.0,0.0,0.0,0.0,0.0,0.0,-1.3023,-1.3157,-1.3263,0.0,0.0,0.0,0.0,0.0,0.0,0.0,0.0,-1.7941,-1.8449,-1.8491,-1.8451,-1.8601,0.0,-1.8677,-1.7202,0.0,0.0,0.0,0.0,0.0,0.0,0.0,0.0,-1.9145,-2.0479,-2.1481,-2.2347,-2.3054,-2.3107,-2.3107,-2.3089,-2.2382,-2.1169,-1.9417,-1.7436,-1.5932,0.0,0.0,0.0,0.0,0.0,0.0,0.0,0.0,0.0,0.0,0.0,0.0,0.0,0.0,0.0,0.0,0.0,0.0,0.0,0.0,0.0,0.0,0.0,-0.964,0.0,0.0,0.0,0.0,0.0,0.0,0.0,0.0,0.0,-2.0733,-2.1571,-2.252,-2.3769,-2.3159,-2.296,-2.4061,0.0,0.0,0.0,0.0,0.0,0.0,0.0,-2.481,-2.6015,-2.5726,-2.515,-2.4592,-2.3622,-2.309,-2.3618,0.0,0.0,-1.975,-1.9779,-2.0622,-2.1202,-2.2142,-2.2858,-2.2866,-2.173,-2.0364,0.0,0.0,0.0,0.0,0.0,0.0,0.0,0.0,-1.508,-1.5158,0.0,-1.5492,0.0,0.0,0.0,0.0,-1.6283,-1.734,0.0,0.0,-2.0273,-2.0922,-2.1022,-2.0368,-2.0385,-2.0985,-2.0364,-1.9721,-1.9064,-1.7706,0.0,0.0,0.0,0.0,0.0,0.0,-1.9724,-2.1867,-2.2025,-2.2382,-2.3072,-2.3107,-2.3107,-2.3089,-2.2382,-2.1621,-2.0842,-1.9379,-1.7957,-1.6527,-1.4984,0.0,0.0,0.0,0.0,0.0,0.0,0.0,0.0,0.0,0.0,0.0,0.0,0.0,0.0,0.0,0.0,0.0,0.0,0.0,0.0,-0.9694,0.0,0.0,0.0,0.0,0.0,0.0,0.0,0.0,0.0,0.0,-2.3618,-2.3582,-2.3366,-2.3822,0.0,0.0,0.0,0.0,-2.4864,-2.6242,-2.5262,-2.4364,-2.429,-2.4355,-2.5527,-2.8808,0.0,0.0,-2.4853,-2.4574,-2.5086,-2.6627,-2.6906,-2.5986,-2.285,-2.2186,-2.2629,-2.4043,-2.4351,-2.4481,-2.4425,-2.3487,-2.2606,-1.8895,0.0,0.0,0.0,0.0,-1.6698,-1.7078,-1.7585,-1.7514,-1.7533,-1.7668,-1.7883,0.0,0.0,0.0,0.0,0.0,0.0,-1.9262,-1.9759,-2.0781,-2.1407,-2.1599,-2.1586,-2.1689,-2.1846,-2.1566,-2.1237,-2.0869,-2.0374,-1.9302,-1.7807,0.0,0.0,0.0,0.0,-2.134,-2.1972,-2.251,-2.2891,-2.3089,-2.3107,-2.3107,-2.3089,-2.2382,-2.1885,-2.1656,-2.0192,-1.8968,-1.8075,-1.6621,0.0,0.0,0.0,0.0,0.0,0.0,0.0,0.0,0.0,0.0,0.0,0.0,0.0,0.0,0.0,0.0,0.0,0.0,0.0,-1.1227,-1.2212,-1.2882,0.0,0.0,0.0,0.0,0.0,0.0,0.0,0.0,0.0,-2.357,-2.4644,-2.5291,0.0,0.0,-2.3888,-2.4036,-2.5914,-2.7375,-2.7472,-2.7385,0.0,-2.5932,-2.6823,-2.8029,-2.9217,-2.8988,-2.8133,-2.6488,-2.6219,-2.6625,-2.7826,-2.8396,-2.7994,-2.6005,-2.4562,-2.4052,-2.4415,-2.45,-2.45,-2.4481,-2.4221,-2.3979,-2.1698,-2.0117,-1.9747,-1.9405,-1.9077,-1.9141,-1.952,-2.0032,-1.9924,-1.9807,-1.966,-1.985,-1.9415,-1.8559,-1.8527,0.0,0.0,0.0,-2.0599,-2.1327,-2.1956,-2.247,-2.2839,-2.2708,-2.2637,-2.2576,-2.2166,-2.1905,-2.1793,-2.175,-2.1211,-2.0174,0.0,0.0,-2.062,-2.1533,-2.2148,-2.2452,-2.2891,-2.3107,-2.3107,-2.3107,-2.3107,-2.3089,-2.2663,-2.2435,-2.24,-2.1155,-2.0346,-2.0109,-1.8387,-1.6713,0.0,0.0,0.0,0.0,0.0,0.0,0.0,0.0,0.0,0.0,0.0,-1.1672,0.0,0.0,0.0,0.0,-0.9762,-1.0287,-1.2614,-1.3646,0.0,0.0,0.0,0.0,0.0,0.0,0.0,-1.83,-2.2205,-2.5179,-2.5184,-2.602,-2.6601,-2.6557,-2.5421,-2.4644,-2.4773,0.0,-2.8322,-2.8006,-2.8045,-2.7866,-2.7235,-2.7886,-2.8688,-2.9304,-2.9181,-2.8864,-2.8094,-2.7695,-2.7705,-2.8131,-2.8646,-2.8795,-2.8029,-2.7074,-2.6451,-2.6433,-2.5894,-2.5466,-2.5448,-2.5466,-2.5299,-2.3762,-2.3683,-2.21,-2.154,-2.1706,-2.1512,-2.1723,-2.2213,-2.2083,-2.1785,-2.1381,-2.1399,-2.074,-1.9631,-1.955,0.0,-2.1381,-2.1402,-2.2126,-2.3414,-2.3415,-2.3803,-2.4441,-2.3707,-2.333,-2.3269,-2.246,-2.2137,-2.2281,-2.2282,-2.2508,-2.2898,-2.1674,-2.1388,-2.206,-2.2095,-2.2417,-2.3089,-2.3089,-2.3107,-2.3107,-2.3107,-2.3107,-2.3107,-2.3107,-2.3089,-2.3072,-2.223,-2.1878,-2.2117,-2.025,-1.8458,-1.6897,0.0,0.0,0.0,0.0,0.0,0.0,0.0,0.0,0.0,0.0,0.0,0.0,0.0,0.0,0.0,-1.0504,0.0,-1.43,-1.4625,0.0,0.0,0.0,-1.858,-1.9684,-2.4227,-2.5668,-2.1451,0.0,0.0,-2.7657,-2.7467,-2.739,-2.7644,-2.6662,-2.5997,-2.6127,-2.7232,-2.8109,-2.7992,-2.7612,-2.7513,-2.7865,-2.7974,-2.8308,-2.9082,-2.8855,-2.8706,-2.9086,-2.8897,-2.8366,-2.802,-2.8246,-2.8646,-2.9181,-2.9079,-2.9388,-2.924,-2.8114,-2.7111,-2.7074,-2.6925,-2.6349,-2.5476,-2.493,-2.501,-2.4146,-2.2734,-2.2485,-2.2378,-2.2434,-2.2396,-2.2266,-2.2074,-2.2242,-2.2037,-2.1615,-2.1596,-2.1766,-2.2074,-2.2394,-2.2851,-2.3414,-2.3719,-2.408,-2.4491,-2.4152,-2.3991,-2.3941,-2.3666,-2.3581,-2.3748,-2.3224,-2.3435,-2.4236,-2.3484,-2.2998,-2.2861,-2.2844,-2.2914,-2.3107,-2.3107,-2.3107,-2.3107,-2.3107,-2.3107,-2.3107,-2.3107,-2.3107,-2.3089,-2.2992,-2.2417,-2.1476,-2.2014,-2.1074,-1.8205,-1.5193,0.0,0.0,0.0,0.0,0.0,0.0,0.0,0.0,0.0,-1.5049,-1.5564,0.0,-1.6461,0.0,-1.3112,-1.4463,-1.8633,-1.8119,0.0,0.0,-1.6706,-1.7073,-2.1853,-2.5324,-2.6463,-2.4357,-2.6065,-2.739,-2.739,-2.7329,-2.7313,-2.7373,-2.7315,-2.7254,-2.73,-2.7367,-2.7515,-2.7496,-2.7407,-2.7362,-2.7574,-2.8373,-2.885,-2.8597,-2.8516,-2.8535,-2.8676,-2.8989,-2.9156,-2.9019,-2.9093,-2.892,-2.8308,-2.8761,-2.9347,-2.9388,-2.9062,-2.8802,-2.8793,-2.7817,-2.6795,-2.6756,-2.627,-2.6618,-2.6046,-2.4846,-2.4046,-2.3664,-2.3619,-2.3619,-2.337,-2.2947,-2.2636,-2.2592,-2.2752,-2.2748,-2.2902,-2.3198,-2.3433,-2.3802,-2.4283,-2.4513,-2.4894,-2.5377,-2.4878,-2.4645,-2.4612,-2.4215,-2.4066,-2.4145,-2.3744,-2.3901,-2.4566,-2.4202,-2.3993,-2.3937,-2.3676,-2.3532,-2.3544,-2.322,-2.3033,-2.297,-2.3057,-2.3107,-2.3107,-2.3107,-2.3107,-2.3107,-2.3077,-2.2758,-2.2129,-2.2117,-2.1344,-1.9587,-1.6895,-1.5763,0.0,0.0,0.0,0.0,0.0,0.0,0.0,0.0,0.0,0.0,0.0,-1.834,-1.6294,-1.7141,-1.9107,-2.2262,-2.1236,-2.0714,-2.158,-1.9836,-2.0101,-2.386,-2.6069,-2.6726,-2.5297,-2.6396,-2.7315,-2.7332,-2.8211,-2.884,-2.8823,-2.8065,-2.7526,-2.7526,-2.7374,-2.733,-2.7376,-2.7329,-2.7345,-2.7467,-2.8027,-2.836,-2.8051,-2.7992,-2.8139,-2.8453,-2.8766,-2.9075,-2.9326,-2.9181,-2.892,-2.8534,-2.8909,-2.9396,-2.9388,-2.9388,-2.9388,-2.9388,-2.8672,-2.8003,-2.7591,-2.738,-2.746,-2.7333,-2.702,-2.5792,-2.5254,-2.5254,-2.5234,-2.4823,-2.4088,-2.3254,-2.3196,-2.3686,-2.3686,-2.3963,-2.4425,-2.4503,-2.4833,-2.5422,-2.546,-2.5848,-2.6469,-2.5714,-2.5346,-2.533,-2.463,-2.4282,-2.4265,-2.4199,-2.4297,-2.4541,-2.4489,-2.4706,-2.5166,-2.4607,-2.4212,-2.4049,-2.3319,-2.2889,-2.279,-2.2952,-2.307,-2.3082,-2.3082,-2.3082,-2.307,-2.2919,-2.293,-2.3047,-2.1645,-2.0702,-2.0505,-1.8794,-1.7884,0.0,-1.8195,0.0,0.0,0.0,0.0,0.0,0.0,0.0,0.0,-1.9183,-1.9245,-1.9054,-2.1269,-2.3336,-2.4867,-2.3971,-2.3511,-2.4058,-2.4426,-2.4858,-2.5548,-2.674,-2.6931,-2.5451,-2.6488,-2.7315,-2.7398,-2.9278,-3.0679,-3.0787,-2.9289,-2.807,-2.7749,-2.7579,-2.7459,-2.7656,-2.7495,-2.7392,-2.76,-2.7526,-2.757,-2.7786,-2.7724,-2.773,-2.8246,-2.8376,-2.8554,-2.9014,-2.9064,-2.8961,-2.9189,-2.92,-2.9232,-2.9115,-2.9075,-2.9149,-2.9347,-2.9332,-2.9388,-2.7682,-2.7226,-2.7749,-2.7632,-2.7083,-2.6814,-2.6704,-2.6704,-2.6587,-2.6322,-2.5976,-2.5691,-2.5656,-2.5817,-2.5817,-2.5564,-2.5133,-2.5446,-2.556,-2.5484,-2.574,-2.6118,-2.6555,-2.6249,-2.6079,-2.6079,-2.5892,-2.5789,-2.5772,-2.5159,-2.5244,-2.5914,-2.543,-2.5563,-2.6251,0.0,0.0,0.0,-2.3068,-2.2703,-2.2725,-2.2786,-2.2893,-2.2944,-2.2944,0.0,-2.2957,-2.3008,-2.2772,-2.2224,-2.2652,0.0,0.0,0.0,0.0,0.0,0.0,0.0,0.0,0.0,0.0,0.0,-2.0668,-2.0877,-2.0396,-2.0424,-2.0879,-2.1804,-2.2397,-2.3319,-2.485,-2.5885,-2.6161,-2.5561,-2.6202,-2.6693,-2.6694,-2.7851,-2.82,-2.7026,-2.7142,-2.7332,-2.7601,-2.8882,-3.0663,-3.2143,-3.1321,-3.0318,-2.9932,-2.8654,-2.808,-2.8812,-2.8211,-2.7475,-2.7657,-2.7782,-2.8349,-2.9041,-2.8428,-2.7812,-2.7748,-2.7797,-2.7869,-2.8138,-2.9391,-2.9909,-2.8514,-2.8368,-2.8682,-2.8134,-2.8065,-2.8308,-2.9181,-2.9388,-2.9388,-2.8388,-2.8142,-2.8435,-2.8388,0.0,-2.8072,-2.8088,-2.804,-2.7318,-2.6851,-2.6594,-2.6401,-2.6468,-2.6733,-2.6748,-2.6675,-2.6545,-2.6757,-2.6848,-2.6809,-2.663,-2.6954,-2.7612,-2.6786,-2.66,-2.6917,-2.6461,-2.6241,-2.6225,-2.584,-2.584,-2.6241,-2.5961,-2.6049,-2.6555,-2.5964,-2.4956,-2.3553,-2.3246,-2.2915,-2.2586,-2.2685,-2.2777,-2.2803,-2.2803,0.0,0.0,0.0,0.0,0.0,0.0,0.0,0.0,0.0,0.0,-2.1401,-2.137,-2.0986,-2.0463,-2.0702,-2.0901,-2.0956,-2.1724,-2.2093,-2.18,-2.177,-2.1997,-2.269,-2.4043,-2.5298,-2.6074,-2.6851,-2.7172,-2.6837,-2.7579,-2.817,-2.838,-2.9155,-2.9286,-2.8335,-2.789,-2.8311,-3.0276,-3.1184,-3.2038,-3.2868,-3.2565,-3.2035,-3.1706,-3.0601,-3.0022,-3.0507,-2.9554,-2.9039,-2.9828,-3.0018,-3.0192,-3.0931,-3.0562,-2.939,-2.7842,-2.7674,-2.7858,-2.8481,-2.9901,-3.0744,-3.0975,-3.034,-2.9471,-2.877,-2.854,-2.8676,-2.9286,-2.9388,-2.9388,-2.9114,-2.9114,-2.9114,-2.9114,-2.9114,-2.9175,-2.9243,-2.9232,-2.8047,0.0,0.0,-2.701,-2.7149,-2.7561,-2.7561,-2.771,-2.7985,-2.7969,-2.8085,-2.8199,-2.7583,-2.78,-2.8632,-2.7474,-2.7122,-2.7559,-2.6832,-2.6446,-2.633,-2.6274,-2.6221,-2.6256,-2.6256,-2.6363,-2.6539,-2.6033,-2.5102,-2.3849,-2.3765,-2.3369,-2.2629,-2.2744,-2.2783,-2.2659,-2.2659,-2.2659,-2.2659,-2.2659,-2.2659,-2.2672,-2.2764,-2.2777,-2.259,-2.0079,-1.9933,-2.2768,-2.2798,-2.2176,-2.1098,-2.1438,-2.1687,-2.17,-2.2548,-2.3007,-2.2898,-2.2764,-2.294,-2.3457,-2.5833,-2.7312,-2.7421,-2.7345,-2.7488,-2.7921,-2.8603,-2.9235,-2.9835,-3.0666,-3.0681,-2.9507,-2.8833,-2.9693,-3.2709,-3.3469,-3.3684,-3.3309,-3.3067,-3.3136,-3.2932,-3.2389,-3.2037,-3.2054,-3.1272,-3.1091,-3.2277,-3.2606,-3.269,-3.2446,-3.2402,-3.1423,-2.9299,-2.8298,-2.8631,-2.983,-3.0719,-3.1901,-3.333,-3.2411,-3.1109,-3.0117,-3.0124,-3.0233,-3.0196,-2.9768,-2.9415,-2.9114,-2.9114,-2.9114,-2.9114,-2.9121,-2.9522,-2.9881,-3.0081,-2.9446,-2.9233,-2.9349,-2.9327,-2.9349,-2.9415,-2.9399,-2.9157,-2.8674,-2.8658,-2.8543,-2.8362,-2.8152,-2.8303,-2.8757,-2.8516,-2.8129,-2.7591,-2.7349,-2.6964,-2.65,-2.6364,-2.6347,-2.645,-2.645,-2.6502,-2.6589,-2.6437,-2.6017,-2.5288,-2.463,-2.3955,-2.3289,-2.3342,-2.3122,-2.2562,-2.2528,-2.2528,-2.2528,-2.2528,-2.2542,-2.2528,-2.248,-2.248,-2.2494,-2.1953,-2.1949,-2.2567,-2.3025,-2.3059,-2.2603,-2.2496,-2.2478,-2.2574,-2.3631,-2.3894,-2.2829,-2.2712,-2.3798,-2.6299,-2.7054,-2.7513,-2.7883,-2.7617,-2.7834,-2.8884,-2.9023,-2.9368,-3.0363,-3.2091,-3.247,-3.0634,-3.0177,-3.0497,-3.2047,-3.3184,-3.378,-3.3611,-3.309,-3.2634,-3.2874,-3.3243,-3.3494,-3.3447,-3.3018,-3.3049,-3.3459,-3.391,-3.3588,-3.3229,-3.2739,-3.2281,-3.1528,-3.0475,-3.0272,-3.165,-3.2349,-3.2823,-3.2925,-3.2909,-3.2529,-3.2029,-3.2529,-3.3189,-3.3083,-3.1236,-2.9463,-2.9114,-2.9114,-2.9114,-2.9243,-2.9499,-2.9705,-2.9984,-3.0215,-2.9979,-2.9875,-2.9881,-2.9832,-2.9924,-3.0182,-3.0182,-3.0166,-3.0098,-3.0098,-3.0032,-2.9892,-2.9451,-2.9559,-2.9979,-2.9235,-2.8898,-2.8913,-2.8399,-2.7811,-2.7192,-2.7054,-2.6818,-2.6519,-2.6485,-2.6537,-2.6572,-2.6571,-2.6438,-2.6184,-2.5393,-2.4666,-2.4034,-2.364,-2.3296,-2.2971,-2.2615,-2.2377,-2.2394,-2.2377,-2.2377,-2.2394,-2.2402,-2.2402,-2.2391,-2.2338,-2.2366,-2.2501,-2.2833,-2.3074,-2.3165,-2.3532,-2.3724,-2.3779,-2.4704,-2.5068,-2.4481,-2.4124,-2.4902,-2.707,-2.7836,-2.8672,-2.9707,-2.8882,-2.8761,-3.0092,-3.0377,-3.0841,-3.1618,-3.2849,-3.3364,-3.2469,-3.2272,-3.2416,-3.2831,-3.3419,-3.3807,-3.3734,-3.3108,-3.2716,-3.2811,-3.3429,-3.3868,-3.3775,-3.3375,-3.3108,-3.3243,-3.3229,-3.3229,-3.3243,-3.3083,-3.277,-3.2507,-3.1668,-3.1755,-3.228,-3.3142,-3.3616,-3.3375,-3.3288,-3.3306,-3.3532,-3.3738,-3.4173,-3.3844,-3.1645,-2.9611,-2.924,-2.9114,-2.9395,-2.9865,-3.0402,-3.0364,-3.0505,-3.0836,-3.0773,-3.0632,-3.0497,-3.0243,-3.0309,-3.0621,-3.0658,-3.0841,-3.1171,-3.119,-3.119,-3.114,-3.0615,-3.0649,-3.1038,-3.0008,-2.9702,-3.0004,-2.937,-2.8694,-2.8039,-2.7748,-2.7259,-2.6621,-2.6537,-2.6589,-2.6606,-2.664,-2.6657,-2.6657,-2.61,-2.5426,-2.4762,-2.4203,-2.3816,-2.3613,-2.3105,-2.2801,-2.2801,-2.2801,-2.2733,-2.2564,-2.2598,-2.2558,-2.2369,-2.2352,-2.2443,-2.2699,-2.3167,-2.3568,-2.3957,-2.4675,-2.5045,-2.4939,-2.5775,-2.6207,-2.5916,-2.5937,-2.6374,-2.7549,-2.8492,-2.9605,-3.0882,-3.0717,-3.0411,-3.1229,-3.1847,-3.2325,-3.2734,-3.3373,-3.3807,-3.3807,-3.3807,-3.3757,-3.382,-3.3834,-3.3815,-3.368,-3.3317,-3.3014,-3.2968,-3.3542,-3.3959,-3.3855,-3.3526,-3.325,-3.285,-3.2896,-3.3111,-3.3462,-3.3504,-3.3262,-3.283,-3.2606,-3.2703,-3.2912,-3.356,-3.4043,-3.4148,-3.3863,-3.3757,-3.4005,-3.4161,-3.4216,-3.4086,-3.2481,-3.0214,-2.9706,-2.9317,-3.0257,-3.1371,-3.2194,-3.1954,-3.2156,-3.2598,-3.2407,-3.2205,-3.1982,-3.1395,-3.1089,-3.1131,-3.1114,-3.1151,-3.119,-3.119,-3.119,-3.119,-3.1123,-3.114,-3.119,-3.1021,-3.0683,-3.0173,-2.9895,-2.949,-2.8838,-2.8107,-2.7365,-2.6759,-2.6691,-2.6708,-2.6691,-2.6674,-2.6708,-2.6708,-2.6623,-2.6251,-2.5558,-2.5456,-2.5084,-2.4406,-2.4321,-2.4305,-2.4203,-2.4288,-2.3983,-2.3391,-2.3379,-2.3113,-2.2576,-2.2487,-2.2747,-2.3372,-2.4724,-2.5623,-2.5679,-2.6139,-2.6209,-2.5907,-2.6901,-2.7141,-2.6219,-2.758,-2.8627,-2.8834,-2.8923,-2.9702,-3.1256,-3.243,-3.2729,-3.2115,-3.2906,-3.35,-3.3256,-3.3528,-3.3807,-3.3807,-3.3807,-3.3807,-3.3829,-3.3921,-3.3863,-3.3657,-3.3648,-3.349,-3.3204,-3.3661,-3.4161,-3.4111,-3.3889,-3.3823,-3.3845,-3.4018,-3.3805,-3.3948,-3.408,-3.3805,-3.339,-3.3217,-3.335,-3.3643,-3.3992,-3.4185,-3.4216,-3.4136,-3.4111,-3.4148,-3.4216,-3.4216,-3.4191,-3.3745,-3.2518,-3.0622,-3.0385,-3.0855,-3.1515,-3.2259,-3.2679,-3.2938,-3.3041,-3.2917,-3.2887,-3.2916,-3.2628,-3.2019,-3.1207,-3.119,-3.119,-3.119,-3.119,-3.119,-3.119,-3.119,-3.119,-3.119,-3.119,-3.1021,-3.0768,-3.0695,-3.0306,-2.9634,-2.8837,-2.8076,-2.7418,-2.7334,-2.7131,-2.6742,-2.6708,-2.6708,-2.6708,-2.6708,-2.6539,-2.6251,-2.5828,-2.5473,-2.5135,-2.4745,-2.4508,-2.4506,-2.4537,-2.4505,-2.4419,-2.4499,-2.3919,-2.2566,-2.2829,-2.3721,-2.5139,-2.5753,-2.6062,-2.6092,-2.6833,-2.7226,-2.7045,-2.7942,-2.8258,-2.7833,-2.8528,-2.8987,-2.8987,-2.9005,-2.9996,-3.2412,-3.3421,-3.3588,-3.3237,-3.3538,-3.3739,-3.3578,-3.3775,-3.39,-3.3834,-3.3807,-3.3868,-3.3998,-3.4086,-3.4049,-3.3876,-3.3889,-3.3797,-3.362,-3.3967,-3.4161,-3.4197,-3.4099,-3.4068,-3.4136,-3.3546,-3.3433,-3.363,-3.3961,-3.403,-3.3871,-3.3462,-3.349,-3.4111,-3.4185,-3.4216,-3.4216,-3.4216,-3.4216,-3.4216,-3.4216,-3.4216,-3.4216,-3.4216,-3.3436,-3.1381,-3.1223,-3.133,-3.1927,-3.2805,-3.3377,-3.3667,-3.3727,-3.358,-3.3625,-3.3736,-3.3508,-3.2831,-3.1884,-3.1616,-3.1393,-3.1207,-3.119,-3.119,-3.119,-3.119,-3.119,-3.119,-3.119,-3.119,-3.119,-3.1173,-3.0801,-3.0125,-2.9583,-2.889,-2.823,-2.7925,-2.7519,-2.7046,-2.6843,-2.6758,-2.6758,-2.6775,-2.6792,-2.669,-2.6266,-2.5978,-2.5895,-2.5437,-2.5164,-2.5195,-2.5242,-2.5261,-2.5322,-2.5502,-2.4937,-2.3509,-2.3813,-2.5041,-2.6904,-2.6801,-2.6675,-2.6948,-2.7679,-2.8136,-2.8172,-2.8712,-2.8987,-2.8987,-2.8987,-2.9445,-3.0381,-3.0326,-3.15,-3.3275,-3.3807,-3.3807,-3.3807,-3.3807,-3.3807,-3.3807,-3.3947,-3.4042,-3.3921,-3.3895,-3.3934,-3.4136,-3.4216,-3.4161,-3.4099,-3.4074,-3.4061,-3.4172,-3.4507,-3.494,-3.4847,-3.455,-3.4197,-3.413,-3.3684,-3.3199,-3.3404,-3.3992,-3.4197,-3.4216,-3.3765,-3.3574,-3.4161,-3.4204,-3.4216,-3.4216,-3.4216,-3.4216,-3.4216,-3.4216,-3.4216,-3.4216,-3.4216,-3.4216,-3.1823,-3.1345,-3.1718,-3.2963,-3.4627,-3.4399,-3.4656,-3.5144,-3.4786,-3.4644,-3.4521,-3.3838,-3.3389,-3.322,-3.2598,-3.1887,-3.1275,-3.1207,-3.119,-3.119,-3.119,-3.119,-3.119,-3.119,-3.119,-3.119,-3.119,-3.0852,-3.0176,-3.0091,-2.9668,-2.8959,-2.8298,-2.7841,-2.7689,-2.7216,-2.6927,-2.7046,-2.6993,-2.6992,-2.7009,-2.6957,-2.6856,-2.6773,-2.6774,-2.6704,-2.6804,-2.6838,-2.6562,-2.5908,-2.6214,-2.6079,-2.5564,-2.567,-2.676,-2.8434,-2.7893,-2.7801,-2.8615,-2.881,-2.8877,-2.8913,-2.8932,-2.8987,-2.8987,-2.8987,-3.0234,-3.3183,-3.3183,-3.3476,-3.3715,-3.3807,-3.3807,-3.3807,-3.3807,-3.3807,-3.3807,-3.4023,-3.4173,-3.4148,-3.4061,-3.4061,-3.4185,-3.4216,-3.429,-3.4315,-3.4259,-3.4173,-3.4433,-3.5497,-3.6445,-3.6259,-3.5423,-3.4234,-3.4222,-3.3954,-3.3979,-3.4055,-3.4074,-3.4216,-3.4216,-3.4204,-3.4204,-3.4191,-3.4204,-3.4216,-3.4216,-3.4216,-3.4216,-3.4216,-3.4216,-3.4216,-3.4216,-3.4216,-3.4216,-3.2978,-3.3117,-3.3574,-3.4376,-3.5278,-3.5504,-3.5702,-3.5876,-3.5637,-3.5496,-3.5353,-3.4972,-3.4556,-3.4083,-3.3833,-3.3055,-3.1921,-3.1427,-3.119,-3.119,-3.119,-3.119,-3.119,-3.119,-3.119,-3.119,-3.119,-3.1072,-3.0852,-3.0825,-3.0491,-2.9881,-2.9563,-2.9258,-2.873,-2.8032,-2.7896,-2.8288,-2.7554,-2.7213,-2.7605,-2.7247,-2.7007,-2.7039,-2.6991,-2.6975,-2.7007,-2.7039,-2.7123,-2.7219,-2.7416,-2.7571,-2.7767,-2.7852,-2.8183,-2.8854,-2.8638,-2.8601,-2.8932,-2.8987,-2.8987,-2.8987,-2.8987,-2.9005,-2.8987,-2.9078,-3.0326,-3.2981,-3.3807,-3.3807,-3.3807,-3.3807,-3.3807,-3.3807,-3.3807,-3.3807,-3.386,-3.4036,-3.4216,-3.4216,-3.4148,-3.4161,-3.4185,-3.4216,-3.4624,-3.546,-3.4884,-3.4364,-3.4661,-3.6426,-3.8135,-3.7968,-3.6891,-3.5795,-3.5795,-3.4773,-3.4185,-3.4185,-3.4216,-3.4216,-3.4216,-3.4216,-3.4204,-3.4204,-3.4216,-3.4216,-3.4216,-3.4216,-3.4216,-3.4216,-3.4216,-3.4216,-3.4216,-3.4216,-3.4216,-3.3848,-3.4341,-3.4666,-3.5115,-3.5616,-3.5941,-3.6148,-3.6165,-3.6101,-3.5993,-3.5844,-3.5778,-3.5428,-3.4992,-3.4716,-3.4143,-3.3073,-3.208,-3.1427,-3.1207,-3.119,-3.119,-3.119,-3.119,-3.119,-3.119,-3.123,-3.1232,-3.1249,-3.1329,-3.1096,-3.0655,-3.0508,-3.0152,-2.9605,-2.8904,-2.8802,-2.9024,-2.8305,-2.7979,-2.8151,-2.7962,-2.7568,-2.7256,-2.7344,-2.7328,-2.7106,-2.7214,-2.7476,-2.7872,-2.8134,-2.8476,-2.8947,-2.8987,-2.8987,-2.8987,-2.8987,-2.8987,-2.8987,-2.8987,-2.9152,-2.9475,-2.9427,-2.9317,-2.9078,-2.9445,-3.1109,-3.3073,-3.3807,-3.3807,-3.3807,-3.3807,-3.3807,-3.3807,-3.3807,-3.3807,-3.382,-3.4049,-3.4191,-3.4216,-3.4216,-3.4216,-3.429,-3.4736,-3.551,-3.6606,-3.5646,-3.5052,-3.5386,-3.7188,-3.9101,-3.9008,-3.8191,-3.7559,-3.7448,-3.6779,-3.5089,-3.4773,-3.4234,-3.4216,-3.4216,-3.4216,-3.4216,-3.4216,-3.4216,-3.4216,-3.4216,-3.4216,-3.4216,-3.4216,-3.4216,-3.4216,-3.4216,-3.4216,-3.4216,-3.4341,-3.4738,-3.4809,-3.5184,-3.5638,-3.5722,-3.5871,-3.6165,-3.6187,-3.6101,-3.5997,-3.5975,-3.592,-3.5788,-3.5237,-3.4865,-3.4413,-3.3111,-3.2096,-3.1517,-3.1365,-3.1331,-3.1331,-3.1263,-3.123,-3.123,-3.1274,-3.1295,-3.1295,-3.1426,-3.1447,-3.1327,-3.0801,-3.053,-3.0426,-2.978,-2.942,-2.9523,-2.9403,-2.9059,-2.861,-2.9024,-2.8696,-2.7661,-2.8007,-2.799,-2.7385,-2.7542,-2.7701,-2.7815,-2.8304,-2.87,-2.894,-2.8987,-2.8987,-2.8987,-2.8987,-2.8987,-2.8987,-2.906,-2.9567,-3.0191,-3.0301,-2.9971,-2.9739,-3.0485,-3.1911,-3.3385,-3.3807,-3.3807,-3.3807,-3.399,-3.3972,-3.3807,-3.3807,-3.3807,-3.386,-3.4036,-3.4216,-3.4253,-3.4476,-3.4327,-3.4643,-3.5776,-3.6848,-3.6909,-3.663,-3.65,-3.6705,-3.8116,-3.8934,-3.9101,-3.8822,-3.8525,-3.8785,-3.8822,-3.6946,-3.5386,-3.4624,-3.4216,-3.4216,-3.4216,-3.4216,-3.4216,-3.4216,-3.4216,-3.4216,-3.4216,-3.4216,-3.4216,-3.4216,-3.4216,-3.4216,-3.4216,-3.4216,-3.4366,-3.4816,-3.5207,-3.5638,-3.6049,-3.6092,-3.6156,-3.6255,-3.6229,-3.6165,-3.6122,-3.6041,-3.6014,-3.5963,-3.5724,-3.5382,-3.4886,-3.4273,-3.369,-3.3008,-3.2426,-3.2151,-3.2085,-3.166,-3.1385,-3.1404,-3.1423,-3.1443,-3.1462,-3.1521,-3.1578,-3.1509,-3.1448,-3.1364,-3.1277,-3.0677,-3.0505,-3.0867,-3.0006,-2.961,-2.9868,-2.9661,-2.9265,-2.8851,-2.8558,-2.8265,-2.8073,-2.7851,-2.7904,-2.8273,-2.85,-2.8718,-2.894,-2.8987,-2.8987,-2.8987,-2.8987,-2.8987,-2.9078,-2.9519,-3.0026,-3.057,-3.0852,-3.1109,-3.1146,-3.1292,-3.2173,-3.3532,-3.3807,-3.3807,-3.3972,-3.489,-3.4963,-3.3949,-3.3807,-3.3825,-3.4026,-3.4178,-3.4173,-3.4513,-3.6166,-3.7392,-3.7559,-3.8172,-3.8172,-3.8098,-3.7461,-3.7071,-3.8116,-3.8637,-3.9082,-3.9101,-3.9101,-3.9101,-3.9101,-3.9101,-3.8154,-3.6779,-3.5887,-3.4531,-3.4383,-3.4216,-3.4216,-3.4216,-3.4216,-3.4216,-3.4216,-3.4216,-3.4216,-3.4216,-3.4216,-3.4216,-3.4216,-3.4216,-3.4216,-3.4642,-3.5121,-3.5638,-3.6028,-3.6284,-3.6284,-3.628,-3.6276,-3.6251,-3.6247,-3.6187,-3.6127,-3.611,-3.611,-3.611,-3.5869,-3.5441,-3.5423,-3.5183,-3.4597,-3.3502,-3.3071,-3.2952,-3.2286,-3.1908,-3.1842,-3.1656,-3.1538,-3.1557,-3.1615,-3.1671,-3.169,-3.1763,-3.1783,-3.1765,-3.1386,-3.1369,-3.1593,-3.0869,-3.0472,-3.061,-3.0472,-3.0093,-2.9592,-2.9451,-2.934,-2.9208,-2.9001,-2.8754,-2.8544,-2.8614,-2.8846,-2.8975,-2.8987,-2.8987,-2.8987,-2.8987,-2.8987,-2.9078,-2.9714,-3.0742,-3.1531,-3.1825,-3.2137,-3.2559,-3.243,-3.2871,-3.3587,-3.3807,-3.3807,-3.4027,-3.5293,-3.5679,-3.489,-3.4156,-3.4191,-3.4671,-3.5581,-3.5652,-3.5999,-3.7411,-3.8767,-3.9101,-3.9101,-3.9101,-3.8915,-3.8247,-3.7745,-3.8822,-3.9045,-3.9101,-3.9101,-3.9101,-3.9101,-3.9101,-3.9101,-3.9101,-3.8302,-3.7466,-3.5795,-3.4717,-3.4364,-3.4216,-3.4216,-3.4216,-3.4216,-3.4216,-3.4216,-3.4216,-3.4216,-3.4494,-3.4216,-3.4216,-3.4216,-3.4216,-3.5138,-3.5638,-3.6092,-3.6262,-3.6284,-3.6284,-3.6259,-3.6247,-3.6276,-3.6255,-3.6229,-3.6255,-3.6262,-3.6284,-3.6241,-3.619,-3.6266,-3.6176,-3.6121,-3.5738,-3.4758,-3.3987,-3.3628,-3.2892,-3.2513,-3.2464,-3.1922,-3.1615,-3.1634,-3.1727,-3.18,-3.1781,-3.18,-3.18,-3.1783,-3.1765,-3.1731,-3.1748,-3.1696,-3.1351,-3.0886,-3.1369,-3.1127,-2.9868,-3.0539,-3.0802,-3.0472,-3.0539,-2.9994,-2.8685,-2.9071,-2.9257,-2.906,-2.8987,-2.8987,-2.9023,-2.906,-2.9115,-2.9244,-3.0069,-3.1384,-3.3146,-3.2981,-3.2949,-3.3476,-3.3532,-3.355,-3.3788,-3.3807,-3.3899,-3.4302,-3.5367,-3.6174,-3.6248,-3.4871,-3.4736,-3.6597,-3.8029,-3.7912,-3.7331,-3.8154,-3.9101,-3.9101,-3.9101,-3.9101,-3.9064,-3.8934,-3.8952,-3.899,-3.9101,-3.9101,-3.9101,-3.9101,-3.9101,-3.9101,-3.9101,-3.9101,-3.8878,-3.8302,-3.7206,-3.5925,-3.5535,-3.5367,-3.5219,-3.4476,-3.4401,-3.4513,-3.4736,-3.5126,-3.5646,-3.5404,-3.4606,-3.4383,-3.4587,-3.429,-3.5481,-3.5638,-3.6092,-3.6284,-3.6284,-3.6284,-3.628,-3.6259,-3.628,-3.628,-3.6259,-3.628,-3.6284,-3.6284,-3.6284,-3.6284,-3.6284,-3.6284,-3.6284,-3.6249,-3.5931,-3.496,-3.4048,-3.3223,-3.2859,-3.2773,-3.219,-3.1746,-3.1746,-3.18,-3.18,-3.18,-3.18,-3.18,-3.18,-3.18,-3.18,-3.18,-3.18,-3.1731,-3.1576,-3.1645,-3.1627,-3.1319,-3.1236,-3.1208,-3.102,-3.1002,-3.096,-3.0628,-3.0674,-3.0173,-2.9317,-2.9207,-2.9299,-2.9409,-3.0173,-3.0228,-2.9702,-3.084,-3.2485,-3.3568,-3.3568,-3.3568,-3.3752,-3.3807,-3.3807,-3.3807,-3.3825,-3.4284,-3.533,-3.5936,-3.6688,-3.7496,-3.573,-3.5202,-3.7535,-3.8697,-3.8878,-3.8599,-3.8859,-3.9027,-3.9101,-3.9101,-3.9101,-3.9101,-3.9101,-3.9101,-3.9101,-3.9101,-3.9101,-3.9101,-3.9101,-3.9101,-3.9101,-3.9101,-3.9101,-3.9101,-3.8878,-3.8711,-3.8005,-3.7838,-3.7894,-3.7949,-3.5887,-3.5256,-3.5646,-3.598,-3.6519,-3.7095,-3.7243,-3.6891,-3.5795,-3.5473,-3.4711,-3.5611,-3.5638,-3.6092,-3.6284,-3.6284,-3.6284,-3.6284,-3.6284,-3.6284,-3.6284,-3.6284,-3.6284,-3.6284,-3.6284,-3.6284,-3.6284,-3.6284,-3.6284,-3.6284,-3.6284,-3.6249,-3.5766,-3.499,-3.4249,-3.3869,-3.3714,-3.2748,-3.2317,-3.2214,-3.1972,-3.1817,-3.18,-3.18,-3.18,-3.18,-3.18,-3.18,-3.18,-3.18,-3.18,-3.18,-3.18,-3.18,-3.1859,-3.1793,-3.198,-3.2217,-3.2222,-3.2122,-3.1878,-3.1586,-3.125,-3.1115,-3.1005,-3.1005,-3.1091,-3.1935,-3.1953,-3.1421,-3.2137,-3.2889,-3.3605,-3.3807,-3.3807,-3.3807,-3.3807,-3.3807,-3.3807,-3.3807,-3.4302,-3.4945,-3.5238,-3.6376,-3.7933,-3.708,-3.6846,-3.8781,-3.8998,-3.9087,-3.9101,-3.9101,-3.9101,-3.9101,-3.9101,-3.9101,-3.9101,-3.9101,-3.9101,-3.9101,-3.9101,-3.9101,-3.9101,-3.9101,-3.9101,-3.9101,-3.9101,-3.9101,-3.9101,-3.9101,-3.9101,-3.9101,-3.9101,-3.899,-3.8507,-3.7076,-3.624,-3.6593,-3.7132,-3.7931,-3.8488,-3.9045,-3.8748,-3.7522,-3.6439,-3.5603,-3.5661,-3.5722,-3.6114,-3.6284,-3.6284,-3.6284,-3.6284,-3.6284,-3.6284,-3.6284,-3.6284,-3.6284,-3.6284,-3.6284,-3.6284,-3.6284,-3.6284,-3.6284,-3.6284,-3.6284,-3.6284,-3.6128,-3.599,-3.5249,-3.4956,-3.4731,-3.3576,-3.2938,-3.2628,-3.2127,-3.1817,-3.18,-3.18,-3.18,-3.18,-3.18,-3.18,-3.18,-3.18,-3.18,-3.18,-3.18,-3.1837,-3.1984,-3.2483,-3.2997,-3.3427,-3.361,-3.3385,-3.2748,-3.2027,-3.2394,-3.3476,-3.3697,-3.3623,-3.3476,-3.344,-3.3532,-3.355,-3.2968,-3.3023,-3.366,-3.3807,-3.3807,-3.3807,-3.3807,-3.3807,-3.3807,-3.3807,-3.4224,-3.4968,-3.4679,-3.6009,-3.8147,-3.8736,-3.8947,-3.8979,-3.9017,-3.9101,-3.9101,-3.9101,-3.9101,-3.9101,-3.9101,-3.9101,-3.9101,-3.9101,-3.9101,-3.9101,-3.9101,-3.9101,-3.9101,-3.9101,-3.9101,-3.9101,-3.9101,-3.9101,-3.9101,-3.9101,-3.9101,-3.9101,-3.9101,-3.9101,-3.8599,-3.7819,-3.7373,-3.7318,-3.8061,-3.8878,-3.9101,-3.9101,-3.9101,-3.8804,-3.7819,-3.6941,-3.6135,-3.6174,-3.6259,-3.6284,-3.6284,-3.6284,-3.6284,-3.6284,-3.6284,-3.6284,-3.6284,-3.6284,-3.6284,-3.6284,-3.6284,-3.6284,-3.6284,-3.6284,-3.6284,-3.6284,-3.6284,-3.6284,-3.6146,-3.5576,-3.5249,-3.4869,-3.3645,-3.2955,-3.2748,-3.2265,-3.18,-3.18,-3.18,-3.18,-3.18,-3.18,-3.18,-3.18,-3.18,-3.18,-3.18,-3.1818,-3.1929,-3.2214,-3.2829,-3.3346,-3.3694,-3.3807,-3.3715,-3.3532,-3.3366,-3.3348,-3.3715,-3.3807,-3.3807,-3.3807,-3.3807,-3.3807,-3.377,-3.3623,-3.3568,-3.3733,-3.3807,-3.3807,-3.3807,-3.3807,-3.3807,-3.3807,-3.3862,-3.5147,-3.6979,-3.7573,-3.7856,-3.8559,-3.8935,-3.9087,-3.9073,-3.9055,-3.9101,-3.9101,-3.9101,-3.9101,-3.9101,-3.9101,-3.9101,-3.9101,-3.9101,-3.9101,-3.9101,-3.9101,-3.9101,-3.9101,-3.9101,-3.9101,-3.9101,-3.9101,-3.9101,-3.9101,-3.9101,-3.9101,-3.9101,-3.9101,-3.9101,-3.9101,-3.8971,-3.8581,-3.8116,-3.8377,-3.9082,-3.9101,-3.9101,-3.9101,-3.8952,-3.8432,-3.8284,-3.6284,-3.6284,-3.6284,-3.6284,-3.6284,-3.6284,-3.6284,-3.6284,-3.6284,-3.6284,-3.6284,-3.6284,-3.6284,-3.6284,-3.6284,-3.6284,-3.6284,-3.6284,-3.6284,-3.6284,-3.6284,-3.6284,-3.6249,-3.5956,-3.568,-3.5473,-3.4197,-3.3524,-3.3197,-3.2403,-3.18,-3.18,-3.18,-3.18,-3.18,-3.18,-3.18,-3.18,-3.18,-3.18,-3.18,-3.18,-3.2073,-3.2503,-3.3032,-3.3451,-3.3762,-3.3807,-3.3807,-3.3807,-3.3807,-3.3807,-3.3807,-3.3807,-3.3807,-3.3807,-3.3807,-3.3807,-3.3807,-3.3807,-3.3788,-3.3807,-3.3807,-3.3807,-3.3807,-3.3807,-3.3807,-3.4174,-3.5234,-3.704,-3.8641,-3.8884,-3.8866,-3.8837,-3.896,-3.9087,-3.9101,-3.9101,-3.9101,-3.9101,-3.9101,-3.9101,-3.9101,-3.9101,-3.9101,-3.9101,-3.9101,-3.9101,-3.9101,-3.9101,-3.9101,-3.9101,-3.9101,-3.9101,-3.9101,-3.9101,-3.9101,-3.9101,-3.9101,-3.9101,-3.9101,-3.9101,-3.9101,-3.9101,-3.9101,-3.9101,-3.8785,-3.9082,-3.9101,-3.9101,-3.9101,-3.9101,-3.9008,-3.8767,-3.8729,-3.6284,-3.6284,-3.6284,-3.6284,-3.6284,-3.6284,-3.6284,-3.6284,-3.6284,-3.6284,-3.6284,-3.6284,-3.6284,-3.6284,-3.6284,-3.6284,-3.6284,-3.6284,-3.6284,-3.6284,-3.6284,-3.6284,-3.6249,-3.6215,-3.6163,-3.6111,-3.4904,-3.4286,-3.368,-3.2766,-3.2024,-3.1852,-3.18,-3.18,-3.18,-3.18,-3.1903,-3.2059,-3.1886,-3.2012,-3.2067,-3.205,-3.2249,-3.2829,-3.3247,-3.3541,-3.3748,-3.3807,-3.3807,-3.3807,-3.3807,-3.3807,-3.3807,-3.3807,-3.3807,-3.3807,-3.3807,-3.3807,-3.3807,-3.3807,-3.3807,-3.382,-3.4036,-3.4067,-3.4086,-3.3999,-3.4082,-3.5174,-3.6558,-3.8431,-3.8921,-3.9007,-3.9003,-3.896,-3.9031,-3.9087,-3.9101,-3.9101,-3.9101,-3.9101,-3.9101,-3.9101,-3.9101,-3.9101,-3.9101,-3.9101,-3.9101,-3.9101,-3.9101,-3.9101,-3.9101,-3.9101,-3.9101,-3.9101,-3.9101,-3.9101,-3.9101,-3.9101,-3.9101,-3.9101,-3.9101,-3.9101,-3.9101,-3.9101,-3.9101,-3.9101,-3.9101,-3.9101,-3.9101,-3.9101,-3.9101,-3.9101,-3.9101,-3.9101,-3.9101,-3.6284,-3.6284,-3.6284,-3.6284,-3.6284,-3.6284,-3.6284,-3.6284,-3.6284,-3.6284,-3.6284,-3.6284,-3.6284,-3.6284,-3.6284,-3.6284,-3.6284,-3.6284,-3.6284,-3.6284,-3.6284,-3.6284,-3.6284,-3.6284,-3.6284,-3.6094,-3.5387,-3.4749,-3.4076,-3.3197,-3.2541,-3.199,-3.1921,-3.1938,-3.199,-3.1852,-3.2232,-3.2653,-3.2307,-3.2348,-3.2719,-3.2547,-3.2504,-3.3124,-3.348,-3.3694,-3.3762,-3.3807,-3.3807,-3.3807,-3.3807,-3.3807,-3.3807,-3.3807,-3.3807,-3.3807,-3.3807,-3.3807,-3.3807,-3.382,-3.3865,-3.4084,-3.4534,-3.4934,-3.4823,-3.4489,-3.4798,-3.609,-3.7576,-3.9031,-3.9059,-3.9087,-3.9087,-3.9073,-3.9073,-3.9101,-3.9101,-3.9101,-3.9101,-3.9101,-3.9101,-3.9101,-3.9101,-3.9101,-3.9101,-3.9101,-3.9101,-3.9101,-3.9101,-3.9101,-3.9101,-3.9101,-3.9101,-3.9101,-3.9101,-3.9101,-3.9101,-3.9101,-3.9101,-3.9101,-3.9101,-3.9101,-3.9101,-3.9101,-3.9101,-3.9101,-3.9101,-3.9101,-3.9101,-3.9101,-3.9101,-3.9101,-3.9101,-3.9101,-3.9101,-3.6284,-3.6284,-3.6284,-3.6284,-3.6284,-3.6284,-3.6284,-3.6284,-3.6284,-3.6284,-3.6284,-3.6284,-3.6284,-3.6284,-3.6284,-3.6284,-3.6284,-3.6284,-3.6284,-3.6284,-3.6284,-3.6284,-3.6284,-3.6284,-3.6284,-3.6215,-3.5887,-3.5373,-3.4665,-3.3904,-3.3317,-3.3147,-3.3009,-3.2972,-3.2852,-3.2628,-3.3003,-3.3428,-3.3173,-3.2914,-3.3354,-3.2841,-3.2896,-3.3243,-3.3625,-3.3807,-3.3842,-3.386,-3.386,-3.386,-3.3815,-3.382,-3.3807,-3.382,-3.3807,-3.3807,-3.3807,-3.3807,-3.382,-3.3865,-3.4139,-3.4787,-3.5164,-3.548,-3.5697,-3.5675,-3.598,-3.7405,-3.8201,-3.9101,-3.9082,-3.9101,-3.9101,-3.9101,-3.9101,-3.9101,-3.9096,-3.9096,-3.9124,-3.9137,-3.9101,-3.9101,-3.9101,-3.9101,-3.9101,-3.9101,-3.9101,-3.9101,-3.9101,-3.9101,-3.9101,-3.9101,-3.9101,-3.9101,-3.9101,-3.9101,-3.9101,-3.9101,-3.9101,-3.9101,-3.9101,-3.9101,-3.9101,-3.9101,-3.9101,-3.9101,-3.9101,-3.9101,-3.9101,-3.9101,-3.9101,-3.9101,-3.9101,-3.9101,-3.9101,-3.6284,-3.6284,-3.6284,-3.6284,-3.6284,-3.6284,-3.6284,-3.6284,-3.6284,-3.6284,-3.6284,-3.6284,-3.6284,-3.6284,-3.6301,-3.6301,-3.6322,-3.6343,-3.6364,-3.6385,-3.6402,-3.6385,-3.6381,-3.6381,-3.6402,-3.6406,-3.6371,-3.5963,-3.5145,-3.4576,-3.4266,-3.3958,-3.4027,-3.4116,-3.3857,-3.339,-3.3988,-3.4337,-3.4058,-3.3617,-3.3433,-3.3248,-3.3151,-3.3422,-3.3689,-3.3887,-3.3908,-3.3921,-3.3921,-3.3895,-3.386,-3.3807,-3.382,-3.3842,-3.3842,-3.382,-3.3815,-3.3829,-3.3892,-3.4207,-3.4647,-3.5277,-3.5692,-3.6181,-3.6633,-3.7017,-3.7567,-3.8776,-3.9101,-3.9101,-3.9101,-3.9101,-3.9101,-3.9101,-3.9101,-3.911,-3.9187,-3.9253,-3.9338,-3.9287,-3.9165,-3.9124,-3.9165,-3.9101,-3.9101,-3.9101,-3.9101,-3.9101,-3.9101,-3.9101,-3.9101,-3.9101,-3.9101,-3.9101,-3.9101,-3.9101,-3.9101,-3.9101,-3.9101,-3.9101,-3.9101,-3.9101,-3.9101,-3.9101,-3.9101,-3.9101,-3.9101,-3.9101,-3.9101,-3.9101,-3.9101,-3.9101,-3.9101,-3.9101,-3.9101,-3.6284,-3.6284,-3.6284,-3.6284,-3.6284,-3.6284,-3.6284,-3.6284,-3.6284,-3.6284,-3.6284,-3.6284,-3.6301,-3.6305,-3.6305,-3.6364,-3.6444,-3.6482,-3.6523,-3.6582,-3.6602,-3.6602,-3.6623,-3.6643,-3.6602,-3.6602,-3.6602,-3.609,-3.552,-3.5203,-3.4769,-3.4409,-3.4412,-3.4224,-3.4571,-3.4295,-3.4728,-3.5472,-3.4535,-3.3791,-3.377,-3.3886,-3.3935,-3.401,-3.4099,-3.4212,-3.4317,-3.433,-3.4275,-3.417,-3.3942,-3.382,-3.3847,-3.4036,-3.3967,-3.3908,-3.3895,-3.3991,-3.4281,-3.4742,-3.528,-3.593,-3.6604,-3.7386,-3.7765,-3.8206,-3.8646,-3.8939,-3.9101,-3.9101,-3.9101,-3.9101,-3.9101,-3.9101,-3.9101,-3.9124,-3.9187,-3.95,-3.9583,-3.9433,-3.93,-3.9279,-3.9266,-3.9178,-3.9101,-3.9101,-3.9101,-3.9101,-3.9101,-3.9101,-3.9101,-3.9101,-3.9101,-3.9101,-3.9101,-3.9101,-3.9101,-3.9101,-3.9101,-3.9101,-3.9101,-3.9101,-3.9101,-3.9101,-3.9101,-3.9101,-3.9101,-3.9101,-3.9101,-3.9101,-3.9101,-3.9101,-3.9101,-3.9101,-3.9101,-3.6284,-3.6284,-3.6284,-3.6284,-3.6284,-3.6284,-3.6284,-3.6284,-3.6284,-3.6284,-3.6284,-3.6284,-3.6343,-3.6402,-3.6406,-3.6482,-3.6585,-3.6602,-3.664,-3.6702,-3.674,-3.6719,-3.6719,-3.6702,-3.6719,-3.6722,-3.6702,-3.6574,-3.611,-3.6003,-3.5812,-3.5587,-3.5558,-3.5787,-3.563,-3.5425,-3.6149,-3.6644,-3.6356,-3.5833,-3.576,-3.5459,-3.5216,-3.5396,-3.5359,-3.5367,-3.5393,-3.5467,-3.5467,-3.5282,-3.4707,-3.3985,-3.3972,-3.4272,-3.4748,-3.6887,-3.6901,-3.6533,-3.5797,-3.5901,-3.6197,-3.6705,-3.7455,-3.7959,-3.8488,-3.8841,-3.9101,-3.9101,-3.9101,-3.9101,-3.9101,-3.9101,-3.9101,-3.9096,-3.9173,-3.9358,-3.9476,-3.9698,-3.984,-3.9641,-3.95,-3.9559,-3.9548,-3.9396,-3.9248,-3.9101,-3.9101,-3.9101,-3.9101,-3.9101,-3.9101,-3.9101,-3.9101,-3.9101,-3.9101,-3.9101,-3.9101,-3.9101,-3.9101,-3.9101,-3.9101,-3.9101,-3.9101,-3.9101,-3.9101,-3.9101,-3.9101,-3.9101,-3.9101,-3.9101,-3.9101,-3.9101,-3.9101,-3.9101,-3.9101,-3.6284,-3.6284,-3.6284,-3.6284,-3.6284,-3.6284,-3.6284,-3.6284,-3.6284,-3.6284,-3.6305,-3.6343,-3.6423,-3.6523,-3.6544,-3.6623,-3.6742,-3.6725,-3.6745,-3.6783,-3.6783,-3.6786,-3.6806,-3.6803,-3.6786,-3.6766,-3.6806,-3.6733,-3.6751,-3.6713,-3.6658,-3.6722,-3.6581,-3.6831,-3.6995,-3.6844,-3.7073,-3.7571,-3.7317,-3.712,-3.7087,-3.667,-3.6459,-3.6468,-3.6554,-3.6567,-3.6626,-3.6565,-3.6546,-3.6268,-3.5589,-3.4995,-3.492,-3.5669,-3.6617,-3.8224,-3.8567,-3.8233,-3.744,-3.7185,-3.7307,-3.7673,-3.815,-3.8507,-3.8897,-3.9101,-3.9101,-3.9101,-3.9101,-3.9101,-3.9101,-3.9101,-3.9101,-3.9213,-3.9358,-3.963,-3.9882,-4.0024,-4.0024,-3.9819,-3.9819,-4.0091,-4.0014,-3.9724,-3.9476,-3.9173,-3.9101,-3.9082,-3.9124,-3.9165,-3.9101,-3.9101,-3.9101,-3.9101,-3.9101,-3.9101,-3.9101,-3.9101,-3.9101,-3.9101,-3.9101,-3.9101,-3.9101,-3.9101,-3.9101,-3.9101,-3.9101,-3.9101,-3.9101,-3.9101,-3.9101,-3.9101,-3.9101,-3.9101,-3.9101,-3.6284,-3.6284,-3.6284,-3.6284,-3.6284,-3.6284,-3.6284,-3.6301,-3.6284,-3.6305,-3.6343,-3.6423,-3.6561,-3.6661,-3.6684,-3.6725,-3.6809,-3.6788,-3.6869,-3.6928,-3.6987,-3.6948,-3.6928,-3.6928,-3.693,-3.6948,-3.6928,-3.693,-3.695,-3.6928,-3.6846,-3.6783,-3.7031,-3.7225,-3.7488,-3.7662,-3.762,-3.7918,-3.7681,-3.7419,-3.7384,-3.7201,-3.727,-3.6888,-3.6766,-3.6705,-3.6723,-3.6896,-3.6989,-3.6989,-3.6705,-3.6519,-3.6642,-3.7416,-3.8488,-3.8841,-3.9101,-3.8859,-3.8507,-3.8098,-3.7894,-3.8116,-3.8469,-3.8897,-3.9064,-3.9101,-3.9101,-3.9101,-3.9101,-3.9137,-3.9124,-3.9101,-3.9115,-3.9351,-3.9595,-3.9882,-4.011,-4.0283,-4.0248,-4.0004,-4.0072,-4.03,-4.0386,-4.011,-3.9903,-3.9606,-3.9165,-3.9137,-3.9279,-3.9305,-3.9151,-3.9101,-3.9101,-3.9101,-3.9101,-3.9101,-3.9101,-3.9101,-3.9101,-3.9101,-3.9101,-3.9101,-3.9101,-3.9101,-3.9101,-3.9101,-3.9101,-3.9101,-3.9101,-3.9101,-3.9101,-3.9101,-3.9101,-3.9101,-3.9101,-3.6284,-3.6284,-3.6284,-3.6284,-3.6284,-3.6284,-3.6284,-3.6322,-3.6381,-3.6482,-3.6561,-3.6602,-3.6647,-3.6728,-3.6768,-3.6829,-3.6891,-3.6911,-3.695,-3.697,-3.6989,-3.6989,-3.6989,-3.6989,-3.6989,-3.6989,-3.6989,-3.6989,-3.697,-3.6989,-3.7147,-3.7188,-3.7339,-3.7738,-3.8046,-3.8355,-3.8449,-3.8453,-3.8424,-3.8321,-3.8302,-3.8302,-3.8377,-3.8228,-3.8172,-3.8172,-3.8191,-3.8172,-3.8172,-3.8135,-3.8098,-3.8042,-3.7986,-3.8785,-3.9027,-3.9101,-3.9101,-3.9101,-3.9082,-3.8785,-3.8655,-3.8674,-3.8934,-3.9101,-3.9101,-3.9101,-3.9101,-3.9101,-3.9096,-3.9151,-3.9494,-3.93,-3.9219,-3.9537,-3.9827,-4.0091,-4.0302,-4.0457,-4.0465,-4.0221,-4.0266,-4.0438,-4.0481,-4.0465,-4.0276,-4.0053,-3.9578,-3.924,-3.9452,-3.9377,-3.9192,-3.9101,-3.9101,-3.9101,-3.9101,-3.9101,-3.9101,-3.9287,-3.9361,-3.9101,-3.9101,-3.9101,-3.9101,-3.9101,-3.9101,-3.9101,-3.9101,-3.9101,-3.9101,-3.9101,-3.9101,-3.9101,-3.9101,-3.9101,-3.9101,-3.6322,-3.6343,-3.6343,-3.6343,-3.6322,-3.636,-3.6343,-3.6381,-3.6502,-3.6606,-3.6725,-3.6725,-3.6786,-3.6849,-3.6869,-3.6908,-3.6968,-3.697,-3.697,-3.6989,-3.6989,-3.6989,-3.6989,-3.6989,-3.6989,-3.6989,-3.6989,-3.6989,-3.6989,-3.6989,-3.7262,-3.7541,-3.7703,-3.8082,-3.8468,-3.8909,-3.9101,-3.9101,-3.9101,-3.9101,-3.9045,-3.9027,-3.9027,-3.899,-3.8934,-3.8934,-3.8897,-3.8859,-3.8897,-3.8915,-3.8952,-3.9027,-3.9064,-3.9101,-3.9101,-3.9101,-3.9101,-3.9101,-3.9101,-3.9101,-3.9101,-3.9008,-3.9045,-3.9101,-3.9101,-3.9101,-3.9101,-3.9101,-3.911,-3.9318,-3.9802,-3.9675,-3.9625,-3.9951,-3.9963,-4.0166,-4.0345,-4.0496,-4.0496,-4.0422,-4.0496,-4.0496,-4.0496,-4.0496,-4.0468,-4.026,-3.984,-3.9664,-3.9913,-3.9698,-3.9151,-3.9101,-3.9101,-3.9101,-3.9101,-3.9101,-3.9361,-4.0903,-4.0643,-3.9324,-3.9101,-3.9157,-3.9138,-3.9101,-3.9101,-3.9101,-3.9101,-3.9101,-3.9101,-3.9101,-3.9101,-3.9101,-3.9101,-3.9101,-3.9101,-3.6364,-3.6482,-3.6502,-3.6423,-3.636,-3.6444,-3.6502,-3.6523,-3.6643,-3.6725,-3.6809,-3.6809,-3.6851,-3.695,-3.695,-3.6987,-3.6987,-3.6989,-3.6989,-3.6989,-3.6989,-3.6989,-3.6989,-3.6989,-3.6989,-3.6989,-3.6989,-3.6989,-3.7048,-3.7087,-3.7449,-3.793,-3.815,-3.8312,-3.8628,-3.8927,-3.9087,-3.9101,-3.9101,-3.9101,-3.9101,-3.9101,-3.9101,-3.9101,-3.9101,-3.9101,-3.9101,-3.9101,-3.9101,-3.9101,-3.9101,-3.9101,-3.9101,-3.9101,-3.9101,-3.9101,-3.9101,-3.9101,-3.9101,-3.9101,-3.9101,-3.9101,-3.9101,-3.9101,-3.9101,-3.9101,-3.9101,-3.9101,-3.9221,-3.9539,-3.9873,-4.0158,-4.0215,-4.0501,-4.0567,-4.0392,-4.0606,-4.1085,-4.12,-4.0669,-4.0496,-4.0496,-4.0496,-4.0516,-4.0554,-4.0386,-4.0043,-4.0062,-4.0294,-4.0363,-3.99,-3.9361,-3.938,-3.9342,-3.9342,-3.9157,-3.9714,-4.1497,-4.1962,-4.0624,-3.9677,-3.9547,-3.9454,-3.9212,-3.9101,-3.9101,-3.9101,-3.9101,-3.9101,-3.9101,-3.9101,-3.9101,-3.9101,-3.9101,-3.9101,-3.6502,-3.6623,-3.6623,-3.6602,-3.6564,-3.6623,-3.6623,-3.6643,-3.6745,-3.6829,-3.6928,-3.6928,-3.693,-3.6989,-3.6989,-3.6989,-3.6989,-3.6989,-3.6989,-3.6989,-3.6989,-3.6989,-3.6989,-3.6989,-3.6989,-3.6989,-3.6989,-3.7127,-3.7356,-3.73,-3.7756,-3.8279,-3.8566,-3.8826,-3.8927,-3.9073,-3.9101,-3.9101,-3.9101,-3.9101,-3.9101,-3.9101,-3.9101,-3.9101,-3.9101,-3.9101,-3.9101,-3.9101,-3.9101,-3.9101,-3.9101,-3.9101,-3.9101,-3.9101,-3.9101,-3.9101,-3.9101,-3.9101,-3.9101,-3.9101,-3.9101,-3.9101,-3.9101,-3.9101,-3.9101,-3.9101,-3.9101,-3.9287,-3.9675,-4.0402,-4.1757,-4.088,-4.0831,-4.1675,-4.1731,-4.1174,-4.1239,-4.197,-4.22,-4.1046,-4.0496,-4.0535,-4.0554,-4.0977,-4.1093,-4.1054,-4.0803,-4.0384,-4.0452,-4.1148,-4.1149,-4.0183,-3.9807,-3.9733,-3.9695,-4.0048,-4.0866,-4.2593,-4.2835,-4.1962,-4.1144,-4.042,-3.9695,-3.9417,-3.925,-3.9101,-3.9101,-3.9101,-3.9101,-3.9101,-3.9101,-3.9101,-3.9101,-3.9101,-3.9101,-3.6643,-3.6725,-3.6725,-3.6745,-3.6786,-3.6763,-3.6745,-3.6806,-3.6849,-3.6928,-3.6987,-3.6989,-3.6989,-3.6989,-3.6989,-3.6989,-3.6989,-3.6989,-3.6989,-3.6989,-3.6989,-3.6989,-3.6989,-3.6989,-3.6989,-3.6989,-3.7029,-3.7166,-3.7468,-3.7487,-3.7911,-3.8486,-3.8927,-3.8998,-3.9087,-3.9101,-3.9101,-3.9101,-3.9101,-3.9101,-3.9101,-3.9101,-3.9101,-3.9101,-3.9101,-3.9101,-3.9101,-3.9101,-3.9101,-3.9101,-3.9101,-3.9101,-3.9101,-3.9101,-3.9101,-3.9101,-3.9101,-3.9101,-3.9101,-3.9101,-3.9101,-3.9101,-3.9101,-3.9101,-3.9101,-3.9101,-3.9371,-3.9698,-4.0194,-4.1428,-4.2481,-4.1477,-4.2247,-4.3124,-4.2777,-4.222,-4.147,-4.2162,-4.2354,-4.1227,-4.0989,-4.092,-4.0708,-4.1324,-4.1739,-4.1681,-4.1588,-4.1181,-4.0946,-4.1834,-4.241,-4.1567,-4.0698,-4.0531,-4.0903,-4.1534,-4.25,-4.3782,-4.3466,-4.2835,-4.2314,-4.1534,-4.0568,-3.9807,-4.0067,-4.003,-3.9305,-3.9101,-3.9101,-3.9101,-3.9101,-3.9101,-3.9101,-3.9101,-3.9101,-3.6745,-3.6809,-3.6791,-3.6871,-3.6968,-3.6869,-3.6871,-3.6987,-3.6989,-3.6989,-3.6989,-3.6989,-3.6989,-3.6989,-3.6989,-3.6989,-3.6989,-3.6989,-3.6989,-3.6989,-3.6989,-3.6989,-3.6989,-3.6989,-3.6989,-3.6989,-3.7048,-3.7206,-3.7505,-3.7807,-3.8178,-3.8579,-3.897,-3.9055,-3.9101,-3.9101,-3.9101,-3.9101,-3.9101,-3.9101,-3.9101,-3.9101,-3.9101,-3.9101,-3.9101,-3.9101,-3.9101,-3.9101,-3.9101,-3.9101,-3.9101,-3.9101,-3.9101,-3.9101,-3.9101,-3.9101,-3.9101,-3.9101,-3.9101,-3.9101,-3.9101,-3.9115,-3.9156,-3.9129,-3.9124,-3.92,-3.9583,-3.9984,-4.0479,-4.1783,-4.2739,-4.3431,-4.4152,-4.4162,-4.3874,-4.297,-4.1777,-4.1747,-4.1958,-4.1785,-4.1912,-4.172,-4.1035,-4.1354,-4.245,-4.245,-4.2431,-4.247,-4.2452,-4.3293,-4.3624,-4.3106,-4.2277,-4.1516,-4.1924,-4.2612,-4.3058,-4.4005,-4.4005,-4.3522,-4.3076,-4.2649,-4.1887,-4.1367,-4.1367,-4.0903,-3.964,-3.9138,-3.9101,-3.9101,-3.9184,-3.9129,-3.9129,-3.9101,-3.9101,-3.6829,-3.6948,-3.6948,-3.695,-3.697,-3.6968,-3.695,-3.6989,-3.6989,-3.6989,-3.6989,-3.6989,-3.6989,-3.6989,-3.6989,-3.6989,-3.6989,-3.6989,-3.6989,-3.6989,-3.6989,-3.6989,-3.6989,-3.6989,-3.6989,-3.6989,-3.7087,-3.7338,-3.7948,-3.8261,-3.8591,-3.897,-3.9045,-3.9082,-3.9101,-3.9101,-3.9101,-3.9101,-3.9101,-3.9101,-3.9101,-3.9101,-3.9101,-3.9101,-3.9101,-3.9101,-3.9101,-3.9101,-3.9101,-3.9101,-3.9101,-3.9101,-3.9101,-3.9101,-3.9101,-3.9101,-3.9101,-3.9101,-3.9101,-3.9101,-3.9115,-3.9165,-3.9259,-3.9251,-3.9272,-3.9452,-3.987,-4.0239,-4.1143,-4.2508,-4.3778,-4.4671,-4.496,-4.4682,-4.4201,-4.3132,-4.2324,-4.3055,-4.3132,-4.2324,-4.245,-4.2393,-4.167,-4.2239,-4.3201,-4.322,-4.3297,-4.344,-4.3698,-4.4433,-4.4398,-4.3867,-4.3503,-4.2649,-4.2909,-4.354,-4.3726,-4.4005,-4.4005,-4.4005,-4.3708,-4.3318,-4.302,-4.2816,-4.2667,-4.1274,-3.9472,-3.9472,-4.0141,-3.9416,-3.9351,-3.9244,-3.9142,-3.9184,-3.9152,-3.7191,-3.6987,-3.6989,-3.6989,-3.6989,-3.6989,-3.6989,-3.6989,-3.6989,-3.6989,-3.6989,-3.6989,-3.6989,-3.6989,-3.6989,-3.6989,-3.6989,-3.6989,-3.6989,-3.6989,-3.6989,-3.6989,-3.6989,-3.6989,-3.6989,-3.7029,-3.7204,-3.7523,-3.8167,-3.8718,-3.9087,-3.9087,-3.9101,-3.9101,-3.9101,-3.9101,-3.9101,-3.9101,-3.9101,-3.9101,-3.9101,-3.9101,-3.9101,-3.9101,-3.9101,-3.9101,-3.9101,-3.9101,-3.9101,-3.9101,-3.9101,-3.9101,-3.9101,-3.9101,-3.9101,-3.9101,-3.9101,-3.9101,-3.9101,-3.9101,-3.917,-3.9272,-3.9414,-3.9446,-3.9513,-3.9671,-4.0033,-4.0485,-4.1918,-4.3324,-4.4556,-4.5556,-4.5306,-4.5047,-4.4094,-4.3113,-4.3786,-4.4748,-4.4152,-4.3074,-4.2843,-4.294,-4.3132,-4.369,-4.3912,-4.3844,-4.4132,-4.4594,-4.4684,-4.4988,-4.4681,-4.4024,-4.3958,-4.3708,-4.4005,-4.4005,-4.4005,-4.4005,-4.4005,-4.4005,-4.4005,-4.3893,-4.3522,-4.3633,-4.3819,-4.2389,-4.0996,-4.1219,-4.1568,-4.0882,-4.0453,-4.0539,-4.0242,-3.9505,-3.9384,-3.7707,-3.7095,-3.7025,-3.6989,-3.6989,-3.6989,-3.6989,-3.6989,-3.6989,-3.6989,-3.6989,-3.6989,-3.6989,-3.6989,-3.6989,-3.6989,-3.6989,-3.6989,-3.6989,-3.6989,-3.6989,-3.6989,-3.6989,-3.6989,-3.7048,-3.7147,-3.7356,-3.7685,-3.8216,-3.8733,-3.9101,-3.9101,-3.9101,-3.9101,-3.9101,-3.9101,-3.9101,-3.9101,-3.9101,-3.9101,-3.9101,-3.9101,-3.9101,-3.9101,-3.9101,-3.9101,-3.9101,-3.9101,-3.9101,-3.9101,-3.9101,-3.9101,-3.9101,-3.9101,-3.9101,-3.9101,-3.9101,-3.9101,-3.9101,-3.9101,-3.9253,-3.9383,-3.952,-3.9609,-3.9694,-3.9731,-4.0024,-4.1925,-4.3585,-4.4267,-4.5306,-4.5575,-4.5402,-4.5287,-4.4729,-4.4113,-4.4363,-4.5094,-4.4998,-4.4209,-4.4209,-4.4267,-4.4344,-4.4844,-4.469,-4.4517,-4.4671,-4.5325,-4.5313,-4.5391,-4.4896,-4.4166,-4.4079,-4.4036,-4.4005,-4.4005,-4.4005,-4.4005,-4.4005,-4.4005,-4.4005,-4.4005,-4.4005,-4.4036,-4.4085,-4.402,-4.3318,-4.3174,-4.3006,-4.3036,-4.2642,-4.2305,-4.1627,-4.0691,-3.9671,-3.8006,-3.7777,-3.7235,-3.6989,-3.6989,-3.6989,-3.6989,-3.6989,-3.6989,-3.6989,-3.6989,-3.6989,-3.6989,-3.6989,-3.6989,-3.6989,-3.6989,-3.6989,-3.6989,-3.6989,-3.6989,-3.6989,-3.7009,-3.7048,-3.7147,-3.7356,-3.756,-3.7894,-3.8455,-3.8865,-3.9101,-3.9101,-3.9101,-3.9101,-3.9101,-3.9101,-3.9101,-3.9101,-3.9101,-3.9101,-3.9101,-3.9101,-3.9101,-3.9101,-3.9101,-3.9101,-3.9101,-3.9101,-3.9101,-3.9101,-3.9101,-3.9101,-3.9101,-3.9101,-3.9101,-3.9101,-3.9101,-3.9101,-3.9115,-3.9156,-3.9298,-3.9513,-3.9656,-3.972,-3.9767,-3.9778,-4.0926,-4.3281,-4.4825,-4.5306,-4.5594,-4.5556,-4.5537,-4.5479,-4.5421,-4.5152,-4.4902,-4.5229,-4.5556,-4.5594,-4.5594,-4.5594,-4.5594,-4.5537,-4.5441,-4.5364,-4.5344,-4.5484,-4.5156,-4.5055,-4.4812,-4.425,-4.4121,-4.4064,-4.4036,-4.4005,-4.4005,-4.4005,-4.4005,-4.4005,-4.4005,-4.4067,-4.4128,-4.4147,-4.4147,-4.4116,-4.4143,-4.415,-4.4115,-4.4175,-4.4204,-4.363,-4.3359,-4.261,-4.1004,-3.8093,-3.8006,-3.7303,-3.6989,-3.6989,-3.6989,-3.6989,-3.6989,-3.6989,-3.6989,-3.6989,-3.6989,-3.6989,-3.6989,-3.6989,-3.6989,-3.6989,-3.6989,-3.6989,-3.6989,-3.6989,-3.6989,-3.7029,-3.7127,-3.7319,-3.7505,-3.7911,-3.831,-3.8744,-3.8937,-3.9101,-3.9101,-3.9101,-3.9101,-3.9101,-3.9101,-3.9101,-3.9101,-3.9101,-3.9101,-3.9101,-3.9101,-3.9101,-3.9101,-3.9101,-3.9101,-3.9101,-3.9101,-3.9101,-3.9101,-3.9101,-3.9101,-3.9101,-3.9101,-3.9101,-3.9101,-3.9101,-3.9101,-3.9129,-3.9237,-3.9376,-3.9609,-3.9878,-3.9973,-4.0148,-4.0366,-4.18,-4.3989,-4.5037,-4.5594,-4.5594,-4.5575,-4.5575,-4.5537,-4.5518,-4.5402,-4.5306,-4.5441,-4.5594,-4.5594,-4.5594,-4.5594,-4.5594,-4.5594,-4.5518,-4.5518,-4.5594,-4.5594,-4.5273,-4.4919,-4.4612,-4.4336,-4.4196,-4.4079,-4.402,-4.4005,-4.4005,-4.4005,-4.402,-4.4005,-4.4036,-4.4177,-4.4266,-4.427,-4.427,-4.4252,-4.431,-4.4397,-4.444,-4.4369,-4.4604,-4.4759,-4.4513,-4.4257,-4.3141,-3.8286,-3.8164,-3.7584,-3.7253,-3.7148,-3.7165,-3.7095,-3.7007,-3.6989,-3.6989,-3.6989,-3.6989,-3.6989,-3.6989,-3.6989,-3.6989,-3.6989,-3.6989,-3.6989,-3.6989,-3.6989,-3.6989,-3.7108,-3.7282,-3.7542,-3.7911,-3.8326,-3.867,-3.9027,-3.9101,-3.9101,-3.9101,-3.9101,-3.9101,-3.9101,-3.9101,-3.9101,-3.9101,-3.9101,-3.9101,-3.9101,-3.9101,-3.9101,-3.9101,-3.9101,-3.9101,-3.9101,-3.9101,-3.9101,-3.9101,-3.9101,-3.9101,-3.9101,-3.9101,-3.9101,-3.9101,-3.9101,-3.9101,-3.9137,-3.9337,-3.9525,-3.9761,-4.0052,-4.0307,-4.0502,-4.15,-4.2923,-4.4162,-4.521,-4.5594,-4.5594,-4.5594,-4.5594,-4.5594,-4.5594,-4.5594,-4.5594,-4.5594,-4.5594,-4.5594,-4.5594,-4.5594,-4.5594,-4.5594,-4.5594,-4.5594,-4.5594,-4.5594,-4.5466,-4.5096,-4.4751,-4.4443,-4.421,-4.4109,-4.402,-4.4005,-4.4005,-4.4101,-4.4131,-4.4085,-4.4082,-4.4252,-4.4373,-4.4373,-4.4358,-4.434,-4.4368,-4.4444,-4.4487,-4.4482,-4.4808,-4.5063,-4.5177,-4.4968,-4.5052,-3.9076,-3.9056,-3.8918,-3.8497,-3.7953,-3.7883,-3.7549,-3.706,-3.7007,-3.6989,-3.6989,-3.6989,-3.6989,-3.6989,-3.6989,-3.6989,-3.6989,-3.6989,-3.6989,-3.6989,-3.7031,-3.7029,-3.7166,-3.7523,-3.7894,-3.8326,-3.8715,-3.8984,-3.9101,-3.9101,-3.9101,-3.9101,-3.9101,-3.9101,-3.9101,-3.9101,-3.9101,-3.9101,-3.9101,-3.9101,-3.9101,-3.9101,-3.9101,-3.9101,-3.9101,-3.9101,-3.9101,-3.9101,-3.9101,-3.9101,-3.9101,-3.9101,-3.9101,-3.9101,-3.9101,-3.9137,-3.9137,-3.9137,-3.9232,-3.9446,-3.969,-4.0129,-4.0443,-4.0745,-4.1259,-4.2181,-4.3547,-4.4836,-4.5594,-4.5594,-4.5594,-4.5594,-4.5594,-4.5594,-4.5594,-4.5594,-4.5594,-4.5594,-4.5594,-4.5594,-4.5594,-4.5594,-4.5594,-4.5594,-4.5594,-4.5594,-4.5594,-4.5594,-4.5594,-4.5243,-4.4915,-4.4538,-4.4206,-4.4109,-4.4005,-4.4005,-4.402,-4.4147,-4.4222,-4.4177,-4.4222,-4.4387,-4.4444,-4.443,-4.4444,-4.444,-4.4487,-4.4473,-4.4487,-4.4551,-4.491,-4.5203,-4.5409,-4.5507,-4.5454]},{"header":{"parameterUnit":"m.s-1","parameterCategory":1,"la1":31.0,"la2":29.5877,"lo1":-88.7671,"lo2":-86.6584,"dy":0.0162,"dx":0.0185,"nx":115,"ny":88,"refTime":"2024-07-16T18:00:00:Z","depth":0,"parameterNumber":3,"parameterNumberName":"V-component_of_WINDS"},"data":[0.0,0.0,0.0,0.0,0.0,0.0,0.0,0.0,0.0,0.0,0.0,0.0,0.0,0.0,0.0,0.0,0.0,0.0,0.0,0.0,0.0,0.0,0.0,0.0,0.0,0.0,0.0,0.0,0.0,0.0,0.0,0.0,0.0,0.0,0.0,0.0,0.0,0.0,0.0,0.0,0.0,0.0,0.0,0.0,0.0,0.0,0.0,0.0,0.0,0.0,0.0,0.0,0.0,0.0,0.0,0.0,0.0,0.0,0.0,0.0,0.0,0.0,0.0,0.0,0.0,0.0,0.0,0.0,0.0,0.0,0.0,0.0,0.0,0.0,0.0,0.0,0.0,0.0,0.0,0.0,0.0,0.0,0.0,0.0,0.0,0.0,0.0,0.0,0.0,0.0,0.0,0.0,0.0,0.0,0.0,0.0,0.0,0.0,0.0,0.0,0.0,0.0,0.0,0.0,0.0,0.0,0.0,0.0,0.0,0.0,0.0,0.0,0.0,0.0,0.0,0.0,0.0,0.0,0.0,0.0,0.0,0.0,0.0,0.0,0.0,0.0,0.0,0.0,0.0,0.0,0.0,0.0,0.0,0.0,0.0,0.0,0.0,0.0,0.0,0.0,0.0,0.0,0.0,0.0,0.0,0.0,0.0,0.0,0.0,0.0,0.0,0.0,0.0,0.0,0.0,0.0,0.0,0.0,0.0,0.0,0.0,0.0,0.0,0.0,0.0,0.0,0.0,0.0,0.0,0.0,0.0,0.0,0.0,0.0,0.0,0.0,0.0,0.0,0.0,0.0,0.0,0.0,0.0,0.0,0.0,0.0,0.0,0.0,0.0,0.0,0.0,0.0,0.0,0.0,0.0,0.0,0.0,0.0,0.0,0.0,0.0,0.0,0.0,0.0,0.0,0.0,0.0,0.0,0.0,0.0,0.0,0.0,0.0,0.0,0.0,0.0,0.0,0.0,0.0,0.0,0.0,0.0,0.0,0.0,0.0,0.0,0.0,0.0,0.0,0.0,0.0,0.0,0.0,0.0,0.0,0.0,0.0,0.0,0.0,0.0,0.0,0.0,0.0,0.0,0.0,0.0,0.0,0.0,0.0,0.0,0.0,0.0,0.0,0.0,0.0,0.0,0.0,0.0,0.0,0.0,0.0,0.0,0.0,0.0,0.0,0.0,0.0,0.0,0.0,0.0,0.0,0.0,0.0,0.0,0.0,0.0,0.0,0.0,0.0,0.0,0.0,0.0,0.0,0.0,0.0,0.0,0.0,0.0,0.0,0.0,0.0,0.0,0.0,0.0,0.0,0.0,0.0,0.0,0.0,0.0,0.0,0.0,0.0,0.0,0.0,0.0,0.0,0.0,0.0,0.0,0.0,0.0,0.0,0.0,0.0,0.0,0.0,0.0,0.0,0.0,0.0,0.0,0.0,0.0,0.0,0.0,0.0,0.0,0.0,0.0,0.0,0.0,0.0,0.0,0.0,0.0,0.0,0.0,0.0,0.0,0.0,0.0,0.0,0.0,0.0,0.0,0.0,0.0,0.0,0.0,0.0,0.0,0.0,0.0,0.0,0.0,0.0,0.0,0.0,0.0,0.0,0.0,0.0,0.0,0.0,0.0,0.0,0.0,0.0,0.0,0.0,0.0,0.0,0.0,0.0,0.0,0.0,0.0,0.0,0.0,0.0,0.0,0.0,0.0,0.0,0.0,0.0,0.0,0.0,0.0,0.0,0.0,0.0,0.0,0.0,0.0,0.0,0.0,0.0,0.0,0.0,0.0,0.0,0.0,0.0,0.0,0.0,0.0,0.0,0.0,0.0,0.0,0.0,0.0,0.0,0.0,0.0,0.0,0.0,0.0,0.0,0.0,0.0,0.0,0.0,0.0,0.0,0.0,0.0,0.0,0.0,0.0,0.0,0.0,0.0,0.0,0.0,0.0,0.0,0.0,0.0,0.0,0.0,0.0,0.0,0.0,0.0,0.0,0.0,0.0,0.0,0.0,0.0,0.0,0.0,0.0,0.0,0.0,0.0,0.0,0.0,0.0,0.0,0.0,0.0,0.0,0.0,0.0,0.0,0.0,0.0,0.0,0.0,0.0,0.0,0.0,0.0,0.0,0.0,0.0,0.0,0.0,0.0,0.0,0.0,0.0,0.0,0.0,0.0,0.0,0.0,0.0,0.0,0.0,0.0,0.0,0.0,0.0,0.0,0.0,0.0,0.0,0.0,0.0,0.0,0.0,0.0,0.0,0.0,0.0,0.0,0.0,0.0,0.0,0.0,0.0,0.0,0.0,0.0,0.0,0.0,0.0,0.0,0.0,0.0,0.0,0.0,0.0,0.0,0.0,0.0,0.0,0.0,0.0,0.0,0.0,0.0,0.0,0.0,0.0,0.0,0.0,0.0,0.0,0.0,0.0,0.0,0.0,0.0,0.0,0.0,0.0,0.0,0.0,0.0,0.0,0.0,0.0,0.0,0.0,0.0,0.0,0.0,0.0,0.0,0.0,0.0,0.0,0.0,0.0,0.0,0.0,0.0,0.0,0.0,0.0,0.0,0.0,0.0,0.0,0.0,0.0,0.0,0.0,0.0,0.0,0.0,0.0,0.0,0.0,0.0,0.0,0.0,0.0,0.0,0.0,0.0,0.0,0.0,0.0,0.0,0.0,0.0,0.0,0.0,0.0,0.0,0.0,0.0,0.0,0.0,0.0,0.0,0.0,0.0,0.0,0.0,0.0,0.0,0.0,0.0,0.0,0.0,0.0,0.0,0.0,0.0,0.0,0.0,0.0,0.0,0.0,0.0,0.0,0.0,0.0,0.0,0.0,0.0,0.0,0.0,0.0,0.0,0.0,0.0,0.0,0.0,0.0,0.0,0.0,0.0,0.0,0.0,0.0,0.0,0.0,0.0,0.0,0.0,0.0,0.0,0.0,0.0,0.0,0.0,0.0,0.0,0.0,0.0,0.0,0.0,0.0,0.0,0.0,0.0,0.0,0.0,0.0,0.0,0.0,0.0,0.0,0.0,0.0,0.0,0.0,0.0,0.0,0.0,0.0,0.0,0.0,0.0,0.0,0.0,0.0,0.0,0.0,0.0,0.0,0.0,0.0,0.0,0.0,0.0,0.0,0.0,0.0,0.0,0.0,0.0,0.0,0.0,0.0,0.0,0.0,0.0,0.0,0.0,0.0,0.0,0.0,0.0,0.0,0.0,0.0,0.0,0.0,0.0,0.0,0.0,0.0,0.0,0.0,0.0,0.0,0.0,0.0,0.0,0.0,0.0,0.0,0.0,0.0,0.0,0.0,0.0,0.0,0.0,0.0,0.0,0.0,0.0,0.0,0.0,0.0,0.0,0.0,0.0,0.0,0.0,0.0,0.0,0.0,0.0,0.0,0.0,0.0,0.0,0.0,0.0,0.0,0.0,0.0,0.0,0.0,0.0,0.0,0.0,0.0,0.0,0.0,0.0,0.0,0.0,0.0,0.0,0.0,0.0,0.0,0.0,0.0,0.0,0.0,0.0,0.0,0.0,0.0,0.0,0.0,0.0,0.0,0.0,0.0,0.0,0.0,0.0,0.0,0.0,0.0,0.0,0.0,0.0,0.0,0.0,0.0,0.0,0.0,0.0,0.0,0.0,0.0,0.0,0.0,0.0,0.0,0.0,0.0,0.0,0.0,0.0,0.0,0.0,0.0,0.0,0.0,0.0,0.0,0.0,0.0,0.0,0.0,0.0,0.0,0.0,0.0,0.0,0.0,0.0,0.0,0.0,0.0,0.0,0.0,0.0,0.0,0.0,0.0,0.0,0.0,0.0,0.0,0.0,0.0,0.0,0.0,0.0,0.0,0.0,0.0,0.0,0.0,0.0,0.0,0.0,0.0,0.0,0.0,0.0,0.0,0.0,0.0,0.0,0.0,0.0,0.0,0.0,0.0,0.0,0.0,0.0,0.0,0.0,0.0,0.0,0.0,0.0,0.0,0.0,0.0,0.0,0.0,0.0,0.0,0.0,0.0,0.0,0.0,0.0,0.0,0.0,0.0,0.0,0.0,0.0,0.0,0.0,0.0,0.0,0.0,0.0,0.0,0.0,0.0,0.0,0.0,0.0,0.0,0.0,0.0,0.0,0.0,0.0,0.0,0.0,0.0,0.0,0.0,0.0,0.0,0.0,0.0,0.0,0.0,0.0,0.0,0.0,0.0,0.0,0.0,0.0,0.0,0.0,0.0,0.0,0.0,0.0,0.0,0.0,0.0,0.0,0.0,0.0,0.0,0.0,0.0,0.0615,0.0,0.0,0.0,0.0,0.0,0.0,0.0,0.0,0.0,0.0,0.0,0.0,0.0,0.0,0.0,0.0,0.0,0.0,0.0,0.0,0.0,0.0,0.0,0.0,0.0,0.0,0.0,0.0,0.0,0.0,0.0,0.0,0.0,0.0,0.0,0.0,0.0,0.0,0.0,0.0,0.0,0.0,0.0,0.0,0.0,0.0,0.0,0.0,0.0,0.0,0.0,0.0,0.0,0.0,0.0,0.0,0.0,0.0,0.0,0.0,0.0,0.0,0.0,0.0,0.0,0.0,0.0,0.0,0.0,0.0,0.0,0.0,0.0,0.0,0.0,0.0,0.0,0.0,0.0,0.0,0.0,0.0,0.0,0.0,0.0,0.0,0.0,0.0,0.0,0.0,0.0,0.0,0.0,0.0,0.0,0.0,0.0,0.0,0.0,0.0,0.0,0.0,0.0,0.0,0.0,0.0,0.0,0.0,0.0,0.0,0.02,0.0178,0.0295,0.0396,0.0496,0.0,0.0,0.0,0.0,0.0,0.0,0.0,0.0,0.0,0.0,0.0,0.0,0.0,0.0,0.0,0.0,0.0,0.0,0.0,0.0,0.0,0.0,0.0,0.0,0.0,0.0,0.0,0.0,0.0,0.0,0.0,0.0,0.0,0.0,0.0,0.0,0.0,0.0,0.0,0.0,0.0,0.0,0.0,0.0,0.0,0.0,0.0,0.0,0.0,0.0,0.0,0.0,0.0,0.0,0.0,0.0,0.0,0.0,0.0,0.0,0.0,0.0,0.0,0.0,0.0,0.0,0.0,0.0,0.0,0.0,0.0,0.0,0.0,0.0,0.0,0.0,0.0,0.0,0.0,0.0,0.0,0.0,0.0,0.0,0.0,0.0,0.0,0.0,0.0,0.0,0.0,0.0,0.0,0.0,0.0,0.0,0.0,0.0,0.0,0.0,0.0,0.0,0.0,0.0,0.0,0.0,0.0,0.0,0.0,0.0,0.0,0.0,0.0172,0.0283,0.0407,0.0,0.0,0.0,0.0,0.0,0.0,0.0,0.0,0.0,0.0,0.0,0.0,0.0,0.0,0.0,0.0,0.0,0.0,0.0,0.0,0.0,0.0,0.0,0.0,0.0,0.0,0.0,0.0,0.0,0.0,0.0,0.0,0.0,0.0,0.0,0.0,0.0,0.0,0.0,0.0,0.0,0.0,0.0,0.0,0.0,0.0,0.0,0.0,0.0,0.0,0.0,0.0,0.0,0.0,0.0,0.0,0.0,0.0,0.0,0.0,0.0,0.0,0.0,0.0,0.0,0.0,0.0,0.0,0.0,0.0,0.0,0.0,0.0,0.0,0.0,0.0,0.0,0.0,0.0,0.0,0.0,0.0,0.0,0.0,0.0,0.0,0.0,0.0,0.0,0.0,0.0,0.0,0.0,0.0,0.0,0.0,0.0,0.0,0.0,0.0,0.0,0.0,0.0,0.0,0.0,0.0,0.0,0.0,0.0,0.0,-0.0139,-0.0083,-0.0006,0.0,0.039,0.0,0.0,0.0,0.0,0.0,0.0,0.0,0.0,0.0,0.0,0.0,0.0,0.0,0.0,0.0,0.0,0.0,0.0,0.0,0.0,0.0,0.0,0.0,0.0,0.0,0.0,0.0,0.0,0.0,0.0,0.0,0.0,0.0,0.0,0.0,0.0,0.0,0.0,0.0,0.0,0.0,0.0,0.0,0.0,0.0,0.0,0.0,0.0,0.0,0.0,0.0,0.0,0.0,0.0,0.0,0.0,0.0,0.0,0.0,0.0,0.0,0.0,0.0,0.0,0.0,0.0,0.0,0.0,0.0,0.0,0.0,0.0,0.0,0.0,0.0,0.0,0.0,0.0,0.0,0.0,0.0,0.0,0.0,0.0,0.0,0.0,0.0,0.0,0.0,0.0,0.0,0.0,0.0,0.0,0.0,0.0,0.0,0.0,0.0,0.0,0.0,0.0,0.0,0.0,0.0,0.0,0.0,0.0,0.0,0.0,0.0,-0.0228,-0.0072,0.0067,0.0,0.0,0.0,0.0,0.0,0.0,0.0,0.0,0.0,0.0,0.0,0.0,0.0,0.0,0.0,0.0,0.0,0.0,0.0,0.0,0.0,0.0,0.0,0.0,0.0,0.0,0.0,0.0,0.0,0.0,0.0,0.0,0.0,0.0,0.0,0.0,0.0,0.0,0.0,0.0,0.0,0.0,0.0,0.0,0.0,0.0,0.0,0.0,0.0,0.0,0.0,0.0,0.0,0.0,0.0,0.0,0.0,0.0,0.0,0.0,0.0,0.0,0.0,0.0,0.0,0.0,0.0,0.0,0.0,0.0,0.0,0.0,0.0,0.0,0.0,0.0,0.0,0.0,0.0,0.0,0.0,0.0,0.0,0.0,0.0,0.0,0.0,0.0,0.0,0.0,0.0,0.0,0.0,0.0,0.0,0.0,0.0,0.0,0.0,0.0,0.0,0.0,0.0,0.0,0.0,0.0,0.0,0.0,0.0,0.0,-0.0507,0.0,-0.0322,-0.0172,-0.0017,0.0061,0.0,0.0,0.0,0.0,0.0,0.0,0.0,0.0,0.0,0.0,0.0,0.0,0.0,0.0,0.0,0.0,0.0,0.0,0.0,0.0,0.0,0.0,0.0,0.0,0.0,0.0,0.0,0.0,0.0,0.0,0.0,0.0,0.0,0.0,0.0,0.0,0.0,0.0,0.0,0.0,0.0,0.0,0.0,0.0,0.0,0.0,0.0,0.0,0.0,0.0,0.0,0.0,0.0,0.0,0.0,0.0,0.0,0.0,0.0,0.0,0.0,0.0,0.0,0.0,0.0,0.0,0.0,0.0,0.0,0.0,0.0,0.0,0.0,0.0,0.0,0.0,0.0,0.0,0.0,0.0,0.0,0.0,0.0,0.0,0.0,0.0,0.0,0.0,0.0,0.0,0.0,0.0,0.0,0.0,0.0,0.0,0.0,0.0,0.0,0.0,0.0,0.0,0.0,0.0,0.0,0.0,0.0,0.0,0.0,-0.0687,-0.06,-0.0409,-0.034,-0.0195,0.0,0.0,0.0,0.0,0.0,0.0,0.0,0.0,0.0,0.0,0.0,0.0,0.0,0.0,0.0,0.0,0.0,0.0,0.0,0.0,0.0,0.0,0.0,0.0,0.0,0.0,0.0,0.0,0.0,0.0,0.0,0.0,0.0,0.0,0.0,0.0,0.0,0.0,0.0,0.0,0.0,0.0,0.0,0.0,0.0,0.0,0.0,0.0,0.0,0.0,0.0,0.0,0.0,0.0,0.0,0.0,0.0,0.0,0.0,0.0,0.0,0.0,0.0,0.0,0.0,0.0,0.0,0.0,0.0,0.0,0.0,0.0,0.0,0.0,0.0,0.0,0.0,0.0,0.0,0.0,0.0,0.0,0.0,0.0,0.0,0.0,0.0,0.0,0.0,0.0,0.0,0.0,0.0,0.0,0.0,0.0,0.0,0.0,0.0,0.0,0.0,0.0,0.0,0.0,0.0,0.0,0.0,0.0,0.0,-0.1012,-0.1059,-0.0957,-0.0733,-0.0618,-0.0452,0.0,0.0,0.0,0.0,0.0,0.0,0.0,0.0,0.0,0.0,0.0,0.0,0.0,0.0,0.0,0.0,0.0,0.0,0.0,0.0,0.0,0.0,0.0,0.0,0.0,0.0,0.0,0.0,0.0,0.0,0.0,0.0,0.0,0.0,0.0,0.0,0.0,0.0,0.0,0.0,0.0,0.0,0.0,0.0,0.0,0.0,0.0,0.0,0.0,0.0,0.0,0.0,0.0,0.0,0.0,0.0,0.0,0.0,0.0,0.0,0.0,0.0,0.0,0.0,0.0,0.0,0.0,0.0,0.0,0.0,0.0,0.0,0.0,0.0,0.0,0.0,0.0,0.0,0.0,0.0,0.0,0.0,0.0,0.0,0.0,0.0,0.0,0.0,0.0,0.0,0.0,0.0,0.0,0.0,0.0,0.0,0.0,0.0,0.0,0.0,0.0,0.0,0.0,0.0,0.0,0.0,0.0,0.0,0.0,-0.1388,0.0,-0.1288,0.0,-0.0924,-0.0713,0.0,0.0,0.0,0.0,0.0,0.0,0.0,0.0,0.0,0.0,0.0,0.0,0.0,0.0,0.0,0.0,0.0,0.0,0.0,0.0,0.0,0.0,0.0,0.0,0.0,0.0,0.0,0.0,0.0,0.0,0.0,0.0,0.0,0.0,0.0,0.0,0.0,0.0,0.0,0.0,0.0,0.0,0.0,0.0,0.0,0.0,0.0,0.0,0.0,0.0,0.0,0.0,0.0,0.0,0.0,0.0,0.0,0.0,0.0,0.0,0.0,0.0,0.0,0.0,0.0,0.0,0.0,0.0,0.0,0.0,0.0,0.0,0.0,0.0,0.0,0.0,0.0,0.0,0.0,0.0,0.0,0.0,0.0,0.0,0.0,0.0,0.0,0.0,0.0,0.0,0.0,0.0,0.0,0.0,0.0,0.0,0.0,0.0,0.0,0.0,0.0,0.0,0.0,0.0,0.0,0.0,0.0,0.0,-0.1675,-0.1793,-0.1695,-0.1569,-0.1417,-0.1283,-0.1059,0.0,0.0,0.0,0.0,0.0,0.0,0.0,0.0,0.0,0.0,0.0,0.0,0.0,0.0,0.0,0.0,0.0,0.0,0.0,0.0,0.0,0.0,0.0,0.0,0.0,0.0,0.0,0.0,0.0,0.0,0.0,0.0,0.0,0.0,0.0,0.0,0.0,0.0,0.0,0.0,0.0,0.0,0.0,0.0,0.0,0.0,0.0,0.0,0.0,0.0,0.0,0.0,0.0,0.0,0.0,0.0,0.0,0.0,0.0,0.0,0.0,0.0,0.0,0.0,0.0,0.0,0.0,0.0,0.0,0.0,0.0,0.0,0.0,0.0,0.0,0.0,0.0,0.0,0.0,0.0,0.0,0.0,0.0,0.0,0.0,0.0,0.0,0.0,0.0,0.0,0.0,0.0,0.0,0.0,0.0,0.0,0.0,0.0,0.0,0.0,0.0,0.0,0.0,0.0,0.0,0.0,0.0,0.0,0.0,-0.2351,-0.2314,-0.219,-0.1963,-0.1828,-0.152,0.0,0.0,0.0,0.0,0.0,0.0,0.0,0.0,0.0,0.0,0.0,0.0,0.0,0.0,0.0,0.0,0.0,0.0,0.0,0.0,0.0,0.0,0.0,0.0,0.0,0.0,0.0,0.0,0.0,0.0,0.0,0.0,0.0,0.0,0.0,0.0,0.0,0.0,0.0,0.0,0.0,0.0,0.0,0.0,0.0,0.0,0.0,0.0,0.0,0.0,0.0,0.0,0.0,0.0,0.0,0.0,0.0,0.0,0.0,0.0,0.0,0.0,0.0,0.0,0.0,0.0,0.0,0.0,0.0,0.0,0.0,0.0,0.0,0.0,0.0,0.0,0.0,0.0,0.0,0.0,0.0,0.0,0.0,0.0,0.0,0.0,0.0,0.0,0.0,0.0,0.0,0.0,0.0,0.0,0.0,0.0,0.0,0.0,0.0,0.0,0.0,0.0,0.0,0.0,0.0,0.0,0.0,0.0,0.0,-0.3334,-0.3163,-0.2915,-0.2657,-0.2428,-0.2035,-0.1494,0.0,0.0,0.0,0.0,0.0,0.0,0.0,0.0,0.0,0.0,0.0,0.0,0.0,0.0,0.0,0.0,0.0,0.0,0.0,0.0,0.0,0.0,0.0,0.0,0.0,0.0,0.0,0.0,0.0,0.0,0.0,0.0,0.0,0.0,0.0,0.0,0.0,0.0,0.0,0.0,0.0,0.0,0.0,0.0,0.0,0.0,0.0,0.0,0.0,0.0,0.0,0.0,0.0,0.0,0.0,0.0,0.0,0.0,0.0,0.0,0.0,0.0,0.0,0.0,0.0,0.0,0.0,0.0,0.0,0.0,0.0,0.0,0.0,0.0,0.0,0.0,0.0,0.0,0.0,0.0,0.0,0.0,0.0,0.0,0.0,0.0,0.0,0.0,0.0,0.0,0.0,0.0,0.0,0.0,0.0,0.0,0.0,0.0,0.0,0.0,0.0,0.0,0.0,0.0,0.0,0.0,0.0,0.0,-0.4637,-0.4185,-0.3796,-0.346,-0.3057,-0.2565,0.0,0.0,0.0,0.0,0.0,0.0,0.0,0.0,0.0,0.0,0.0,0.0,0.0,0.0,0.0,0.0,0.0,0.0,0.0,0.0,0.0,0.0,0.0,0.0,0.0,0.0,0.0,0.0,0.0,0.0,0.0,0.0,0.0,0.0,0.0,0.0,0.0,0.0,0.0,0.0,0.0,0.0,0.0,0.0,0.0,0.0,0.0,0.0,0.0,0.0,0.0,0.0,0.0,0.0,0.0,0.0,0.0,0.0,0.0,0.0,0.0,0.0,0.0,0.0,0.0,0.0,0.0,0.0,0.0,0.0,0.0,0.0,0.0,0.0,0.0,0.0,0.0,0.0,0.0,0.0,0.0,0.0,0.0,0.0,0.0,0.0,0.0,0.0,0.0,0.0,0.0,0.0,0.0,0.0,0.0,0.0,0.0,0.0,0.0,0.0,0.0,0.0,0.0,0.0,0.0,0.0,0.0,0.0,0.0,-0.527,-0.5604,-0.5235,-0.4129,-0.372,-0.3232,0.0,0.0,0.0,0.0,0.0,0.0,0.0,0.0,0.0,0.0,0.0,0.0,0.0,0.0,0.0,0.0,0.0,0.0,0.0,0.0,0.0,0.0,0.0,0.0,0.0,0.0,0.0,0.0,0.0,0.0,0.0,0.0,0.0,0.0,0.0,0.0,0.0,0.0,0.0,0.0,0.0,0.0,0.0,0.0,0.0,0.0,0.0,0.0,0.0,0.0,0.0,0.0,0.0,0.0,0.0,0.0,0.0,0.0,0.0,0.0,0.0,0.0,0.0,0.0,0.0,0.0,0.0,0.0,0.0,0.0,0.0,0.0,0.0,0.0,0.0,0.0,0.0,0.0,0.0,0.0,0.0,0.0,0.0,0.0,0.0,0.0,0.0,0.0,0.0,0.0,0.0,0.0,0.0,0.0,0.0,0.0,0.0,0.0,0.0,0.0,0.0,0.0,0.0,0.0,0.0,0.0,0.0,0.0,-0.5794,-0.5898,-0.6517,-0.6318,-0.5286,-0.4603,-0.3922,0.0,0.0,0.0,0.0,0.0,0.0,0.0,0.0,0.0,0.0,0.0,0.0,0.0,0.0,0.0,0.0,0.0,0.0,0.0,0.0,0.0,0.0,0.0,0.0,0.0,0.0,0.0,0.0,0.0,0.0,0.0,0.0,0.0,0.0,0.0,0.0,0.0,0.0,0.0,0.0,0.0,0.0,0.0,0.0,0.0,0.0,0.0,0.0,0.0,0.0,0.0,0.0,0.0,0.0,0.0,0.0,0.0,0.0,0.0,0.0,0.0,0.0,0.0,0.0,0.0,0.0,0.0,0.0,0.0,0.0,0.0,0.0,0.0,0.0,0.0,0.0,0.0,0.0,0.0,0.0,0.0,0.0,0.0,0.0,0.0,0.0,0.0,0.0,0.0,0.0,0.0,0.0,0.0,0.0,0.0,0.0,0.0,0.0,0.0,0.0,0.0,0.0,0.0,0.0,0.0,0.0,0.0,0.0,-0.6331,-0.648,-0.7056,-0.7128,-0.6657,-0.5581,-0.4606,0.0,0.0,0.0,0.0,0.0,0.0,0.0,0.0,0.0,0.0,0.0,0.0,0.0,0.0,0.0,0.0,0.0,0.0,0.0,0.0,0.0,0.0,0.0,0.0,0.0,0.0,0.0,0.0,0.0,0.0,0.0,0.0,0.0,0.0,0.0,0.0,0.0,0.0,0.0,0.0,0.0,0.0,0.0,0.0,0.0,0.0,0.0,0.0,0.0,0.0,0.0,0.0,0.0,0.0,0.0,0.0,0.0,0.0,0.0,0.0,0.0,0.0,0.0,0.0,0.0,0.0,0.0,0.0,0.0,0.0,0.0,0.0,0.0,0.0,0.0,0.0,0.0,0.0,0.0,0.0,0.0,0.0,0.0,0.0,0.0,0.0,0.0,0.0,0.0,0.0,0.0,0.0,0.0,0.0,0.0,0.0,0.0,0.0,0.0,0.0,0.0,0.0,0.0,0.0,0.0,0.0,0.0,0.0,-0.6726,-0.6957,-0.7375,-0.7472,-0.7153,-0.6141,-0.5287,0.0,0.0,0.0,0.0,0.0,0.0,0.0,0.0,0.0,0.0,0.0,0.0,0.0,0.0,0.0,0.0,0.0,0.0,0.0,0.0,0.0,0.0,0.0,0.0,0.0,0.0,0.0,0.0,0.0,0.0,0.0,0.0,0.0,0.0,0.0,0.0,0.0,0.0,0.0,0.0,0.0,0.0,0.0,0.0,0.0,0.0,0.0,0.0,0.1119,0.0,0.0,0.0,0.0,0.0,0.0,0.0,0.0,0.0,0.0,0.0,0.0,0.0,0.0,0.0,0.0,0.0,0.0,0.0,0.0,0.0,0.0,0.0,0.0,0.0,0.0,0.0,0.0,0.0,0.0,0.0,0.0,0.0,0.0,0.0,0.0,0.0,0.0,0.0,0.0,0.0,0.0,0.0,0.0,0.0,0.0,0.0,0.0,0.0,0.0,0.0,0.0,0.0,0.0,0.0,0.0,0.0,0.0,0.0,-0.7066,-0.7264,-0.771,-0.7789,-0.75,-0.677,-0.594,0.0,0.0,0.0,0.0,0.0,0.0,0.0,0.0,0.0,0.0,0.0,0.0,0.0,0.0,0.0,0.0,0.0,0.0,0.0,0.0,0.0,0.0,0.0,0.0,0.0,0.0,0.0,0.0,0.0,0.0,0.0,0.0,0.0,0.0,0.0,0.0,0.0,0.0,0.0,0.0,0.0,0.0,0.0,0.0,0.0,0.0,0.0,0.0,0.0,0.0,0.0,0.0,0.0,0.0,0.0,0.0,0.0,0.0,0.0,0.0,0.0,0.0,0.0,0.0,0.0,0.0,0.0,0.0,0.0,0.0,0.0,0.0,0.0,0.0,0.0,0.0,0.0,0.0,0.0,0.0,0.0,0.0,0.0,0.0,0.0,0.0,0.0,0.0,0.0,0.0,0.0,0.0,0.0,0.0,0.0,0.0,0.0,0.0,0.0,0.0,0.0,0.0,0.0,0.0,0.0,0.0,0.0,-0.7101,-0.7465,-0.7475,-0.7979,-0.8076,-0.7744,-0.7236,-0.6481,-0.5439,0.0,0.0,0.0,0.0,0.0,0.0,0.0,0.0,0.0,0.0,0.0,0.0,0.0,0.0,0.0,0.0,0.0,0.0,0.0,0.0,0.0,0.0,0.0,0.0,0.0,0.0,0.0,0.0,0.0,0.0,0.0,0.0,0.0,0.0,0.0,0.0,0.0,0.0,-0.0053,0.0318,0.0,0.0,0.0,0.0,0.0,0.0,0.0,0.0,-0.0524,0.0,0.0,0.0,0.0,0.0,0.0,0.0,0.0,0.0,0.0,0.0,0.0,0.0,0.0,0.0,0.0,0.0,0.0,0.0,0.0,0.0,0.0,0.0,0.0,0.0,0.0,0.0,0.0,0.0,0.0,0.0,0.0,0.0,0.0,0.0,0.0,0.0,0.0,0.0,0.0,0.0,0.0,0.0,0.0,0.0,0.0,0.0,0.0,0.0,0.0,0.0,0.0,0.0,0.0,0.0,0.0,-0.6557,-0.7606,-0.802,-0.775,-0.8261,-0.8315,-0.7883,-0.7292,-0.6661,-0.5892,0.0,0.0,0.0,0.0,0.0,0.0,0.0,0.0,0.0,0.0,0.0,0.0,0.0,0.0,0.0,0.0,0.0,0.0,0.0,0.0,0.0,0.0,0.0,0.0,0.0,0.0,0.0,0.0,0.0,0.0,0.0,0.0,0.0,0.0,0.0,0.0,0.0,0.0,0.0,-0.0253,-0.0075,0.0,0.0,0.0,0.0,0.0,0.0,0.0,0.0,-0.215,0.0,0.0,0.0,0.0,0.0,0.0,0.0,0.0,0.0,0.0,0.0,0.0,0.0,0.0,0.0,0.0,0.0,0.0,0.0,0.0,0.0,0.0,0.0,0.0,0.0,0.0,0.0,0.0,0.0,0.0,0.0,0.0,0.0,0.0,0.0,0.0,0.0,0.0,0.0,0.0,0.0,0.0,0.0,0.0,0.0,0.0,0.0,0.0,0.0,0.0,0.0,0.0,0.0,0.0,0.0,-0.7134,-0.7904,-0.8216,-0.807,-0.8474,-0.8454,-0.7916,-0.7386,-0.6765,0.0,0.0,0.0,0.0,0.0,0.0,0.0,0.0,0.0,0.0,0.0,0.0,0.0,0.0,0.0,0.0,0.0,0.0,0.0,0.0,0.0,0.0,0.0,0.0,0.0,0.0,0.0,0.0,0.0,0.0,0.0,0.0,0.0,0.0,0.0,0.0,0.0,0.0,0.0,0.0,-0.0792,-0.0757,-0.0888,0.0,0.0,0.0,0.0,0.0,0.0,-0.2349,-0.2945,0.0,0.0,0.0,0.0,0.0,0.0,0.0,0.0,0.0,0.0,0.0,0.0,0.0,0.0,0.0,0.0,0.0,0.0,0.0,0.0,0.0,0.0,0.0,0.0,0.0,0.0,0.0,0.0,0.0,0.0,0.0,0.0,0.0,0.0,0.0,0.0,0.0,0.0,0.0,0.0,0.0,0.0,0.0,0.0,0.0,0.0,0.0,0.0,0.0,0.0,0.0,0.0,0.0,0.0,0.0,-0.7663,-0.8278,-0.8491,-0.8343,-0.8728,-0.8613,-0.7922,-0.7417,-0.6829,0.0,0.0,0.0,0.0,0.0,0.0,0.0,0.0,0.0,0.0,0.0,0.0,0.0,0.0,0.0,0.0,0.0,0.0,0.0,0.0,0.0,0.0,0.0,0.0,0.0,0.0,0.0,0.0,0.0,0.0,0.0,0.0,0.0,0.0,0.0,0.0,0.0,0.0,0.0,0.0,0.0,-0.1406,-0.2008,-0.2591,0.0,0.0,0.0,0.0,-0.2013,-0.2946,0.0,0.0,0.0,0.0,0.0,0.0,0.0,0.0,0.0,0.0,0.0,0.0,0.0,0.0,0.0,0.0,0.0,0.0,0.0,0.0,0.0,0.0,0.0,0.0,0.0,0.0,0.0,0.0,0.0,0.0,0.0,0.0,0.0,0.0,0.0,0.0,0.0,0.0,0.0,0.0,0.0,0.0,0.0,0.0,0.0,0.0,0.0,0.0,0.0,0.0,0.0,0.0,0.0,0.0,0.0,0.0,-0.7613,-0.8877,-0.9142,-0.8382,-0.9076,-0.8995,-0.7922,-0.7342,-0.6748,0.0,0.0,0.0,0.0,0.0,0.0,0.0,0.0,0.0,0.0,0.0,0.0,0.0,0.0,0.0,0.0,0.0,0.0,0.0,0.0,0.0,0.0,0.0,0.0,0.0,0.0,0.0,0.0,0.0,0.0,0.0,0.0,0.0,0.0,0.0,0.0,0.0,0.0,0.0,0.0,0.0,-0.204,-0.2692,-0.355,-0.402,0.0,0.0,-0.1846,-0.2656,-0.3236,0.0,0.0,0.0,0.0,0.0,0.0,0.0,0.0,0.0,0.0,0.0,0.0,0.0,0.0,0.0,0.0,0.0,0.0,0.0,0.0,0.0,0.0,0.0,0.0,0.0,0.0,0.0,0.0,0.0,0.0,0.0,0.0,0.0,0.0,0.0,0.0,0.0,0.0,0.0,0.0,0.0,0.0,0.0,0.0,0.0,0.0,0.0,0.0,0.0,0.0,0.0,0.0,0.0,0.0,0.0,-0.6938,-0.8131,-0.8963,-0.9343,-0.926,-0.9341,-0.9047,-0.8441,-0.7554,-0.6835,0.0,0.0,0.0,0.0,0.0,0.0,0.0,0.0,0.0,0.0,0.0,0.0,0.0,0.0,0.0,0.0,0.0,0.0,0.0,0.0,0.0,0.0,0.0,0.0,0.0,0.0,0.0,0.0,0.0,0.0,0.0,0.0,0.0,0.0,0.0,0.0,0.0,0.0,0.0,0.0,0.0,0.0,-0.346,-0.3749,0.0,0.0,0.0,-0.2926,-0.3458,0.0,0.0,0.0,0.0,0.0,0.0,0.0,0.0,0.0,0.0,0.0,0.0,0.0,0.0,0.0,0.0,0.0,0.0,0.0,0.0,0.0,0.0,0.0,0.0,0.0,0.0,0.0,0.0,0.0,0.0,0.0,0.0,0.0,0.0,0.0,0.0,0.0,0.0,0.0,0.0,0.0,0.0,0.0,0.0,0.0,0.0,0.0,0.0,0.0,0.0,0.0,0.0,0.0,0.0,0.0,0.0,0.0,-0.8545,-0.9034,-0.9508,-0.9982,-0.9666,-0.9256,-0.8791,-0.7896,0.0,0.0,0.0,0.0,0.0,0.0,0.0,0.0,0.0,0.0,0.0,0.0,0.0,0.0,0.0,0.0,0.0,0.0,0.0,0.0,0.0,0.0,0.0,0.0,0.0,0.0,0.0,-0.1485,0.0,0.0,0.0,0.0,0.0,0.0,0.0,0.0,0.0,0.0,0.0,0.0,0.0,0.0,-0.3826,-0.417,-0.4598,-0.5273,0.0,0.0,-0.4487,-0.4509,-0.5,-0.5275,0.0,0.0,0.0,0.0,0.0,0.0,0.0,0.0,0.0,0.0,0.0,0.0,0.0,0.0,0.0,0.0,0.0,0.0,0.0,0.0,0.0,0.0,0.0,0.0,0.0,0.0,0.0,0.0,0.0,0.0,0.0,0.0,0.0,0.0,0.0,0.0,0.0,0.0,0.0,0.0,0.0,0.0,0.0,0.0,0.0,0.0,0.0,0.0,0.0,0.0,0.0,0.0,0.0,0.0,0.0,-0.8496,-0.933,-0.9819,-1.0015,-1.0208,-0.9821,-0.8843,-0.8266,-0.7498,0.0,0.0,0.0,0.0,0.0,0.0,0.0,0.0,0.0,0.0,0.0,0.0,0.0,0.0,0.0,0.0,0.0,0.0,0.0,0.0,0.0,0.0,0.0,0.0,0.0,0.0,0.0,0.0,0.0,0.0,0.0,0.0,0.0,0.0,0.0,0.0,0.0,0.0,0.0,0.0,0.0,-0.4432,-0.4698,-0.6875,-0.8194,0.0,-0.7089,-0.6665,-0.6041,-0.6901,-0.7335,-0.6416,0.0,0.0,0.0,0.0,0.0,0.0,0.0,0.0,0.0,0.0,0.0,0.0,0.0,0.0,0.0,0.0,0.0,0.0,0.0,0.0,0.0,0.0,0.0,0.0,0.0,0.0,0.0,0.0,0.0,0.0,0.0,0.0,0.0,0.0,0.0,0.0,0.0,0.0,0.0,0.0,0.0,0.0,0.0,0.0,0.0,0.0,0.0,0.0,0.0,0.0,0.0,0.0,0.0,-0.77,-0.8777,-0.9462,-1.0112,-1.0762,-1.0549,-1.0198,-0.9803,-0.8919,-0.81,0.0,0.0,0.0,0.0,0.0,0.0,0.0,0.0,0.0,0.0,0.0,0.0,0.0,0.0,0.0,0.0,0.0,0.0,0.0,0.0,0.0,0.0,0.0,0.0,0.0,0.0,0.0,0.0,-0.231,-0.253,-0.2717,0.0,0.0,0.0,0.0,0.0,0.0,0.0,0.0,0.0,0.0,-0.5277,-0.6163,-0.7732,0.0,0.0,-0.7809,-0.7452,-0.7024,-0.75,-0.7763,-0.7393,-0.6315,0.0,0.0,0.0,0.0,0.0,0.0,0.0,0.0,0.0,0.0,0.0,0.0,0.0,0.0,0.0,0.0,0.0,0.0,0.0,0.0,0.0,0.0,0.0,0.0,0.0,0.0,0.0,0.0,0.0,0.0,0.0,0.0,0.0,0.0,0.0,0.0,0.0,0.0,0.0,0.0,0.0,0.0,0.0,0.0,0.0,0.0,0.0,0.0,0.0,0.0,0.0,0.0,-0.7958,-0.9158,-0.9644,-1.0349,-1.1284,-1.0888,-1.0582,-1.0387,-0.9551,-0.8759,0.0,0.0,0.0,0.0,0.0,0.0,0.0,0.0,0.0,0.0,0.0,0.0,0.0,0.0,0.0,0.0,0.0,0.0,0.0,0.0,0.0,0.0,0.0,0.0,0.0,0.0,0.0,0.0,-0.2629,-0.3229,-0.4024,0.0,0.0,0.0,0.0,0.0,0.0,0.0,0.0,0.0,0.0,-0.6313,-0.7191,-0.8171,-0.8732,-0.8533,-0.8321,-0.8062,-0.7687,-0.7768,-0.7901,-0.7901,0.0,0.0,0.0,0.0,0.0,0.0,0.0,0.0,0.0,0.0,0.0,0.0,0.0,0.0,0.0,0.0,0.0,0.0,0.0,0.0,0.0,0.0,0.0,0.0,0.0,0.0,0.0,-0.8416,0.0,0.0,-0.7209,0.0,0.0,0.0,0.0,0.0,0.0,0.0,0.0,0.0,0.0,0.0,0.0,0.0,0.0,0.0,0.0,0.0,0.0,0.0,0.0,0.0,0.0,-0.8526,-0.9551,-0.9921,-1.0491,-1.1267,-1.1276,-1.0989,-1.0446,-1.0138,-0.9471,-0.8407,0.0,0.0,0.0,0.0,0.0,0.0,0.0,0.0,0.0,0.0,0.0,0.0,0.0,0.0,0.0,0.0,0.0,0.0,0.0,0.0,0.0,0.0,0.0,0.0,0.0,0.0,-0.1806,-0.298,-0.4148,0.0,0.0,0.0,0.0,0.0,0.0,0.0,0.0,0.0,0.0,-0.7689,-0.7564,-0.7608,-0.8304,-0.8778,-0.8778,-0.8778,-0.8566,-0.8008,-0.7901,-0.7901,0.0,0.0,0.0,0.0,0.0,0.0,0.0,0.0,0.0,0.0,0.0,0.0,0.0,0.0,0.0,0.0,0.0,0.0,0.0,0.0,0.0,0.0,0.0,0.0,0.0,0.0,0.0,-1.0472,-1.0531,0.0,0.0,0.0,0.0,0.0,0.0,0.0,0.0,0.0,0.0,0.0,-1.0548,-1.0015,0.0,0.0,0.0,0.0,0.0,0.0,0.0,0.0,0.0,0.0,0.0,0.0,-0.8976,-0.9598,-1.0192,-1.0771,-1.1284,-1.1301,-1.1192,-1.1015,-1.063,-0.991,-0.8702,0.0,0.0,0.0,0.0,0.0,0.0,0.0,0.0,0.0,0.0,0.0,0.0,0.0,0.0,0.0,0.0,0.0,0.0,0.0,0.0,0.0,0.0,0.0,0.0,0.0,-0.3511,0.0,0.0,0.0,0.0,0.0,0.0,0.0,0.0,0.0,0.0,0.0,-0.8503,-0.8728,-0.8194,-0.7948,-0.833,-0.8625,-0.8778,0.0,0.0,0.0,0.0,0.0,0.0,0.0,0.0,0.0,0.0,0.0,0.0,0.0,0.0,-0.6643,-0.4977,-0.5231,-0.5693,-0.5693,0.0,0.0,0.0,0.0,0.0,0.0,0.0,0.0,0.0,0.0,0.0,0.0,0.0,0.0,-1.2522,-1.2323,-1.218,0.0,0.0,0.0,0.0,0.0,0.0,0.0,0.0,-1.1819,-1.1753,-1.1724,-1.1196,-1.0984,0.0,-1.0892,-0.9932,0.0,0.0,0.0,0.0,0.0,0.0,0.0,0.0,-0.9312,-0.9961,-1.0448,-1.0899,-1.1276,-1.1301,-1.1301,-1.1293,-1.0916,-1.0239,-0.9287,-0.813,-0.724,0.0,0.0,0.0,0.0,0.0,0.0,0.0,0.0,0.0,0.0,0.0,0.0,0.0,0.0,0.0,0.0,0.0,0.0,0.0,0.0,0.0,0.0,0.0,-0.3981,0.0,0.0,0.0,0.0,0.0,0.0,0.0,0.0,0.0,-0.8063,-0.8963,-0.953,-0.9363,-0.8774,-0.847,-0.8758,0.0,0.0,0.0,0.0,0.0,0.0,0.0,-0.8271,-0.8421,-0.8297,-0.8111,-0.7931,-0.7505,-0.7308,-0.7645,0.0,0.0,-0.5944,-0.6118,-0.6626,-0.6863,-0.7194,-0.7455,-0.743,-0.7008,-0.647,0.0,0.0,0.0,0.0,0.0,0.0,0.0,0.0,-1.4185,-1.4073,0.0,-1.3616,0.0,0.0,0.0,0.0,-1.2722,-1.2685,0.0,0.0,-1.2853,-1.2696,-1.2414,-1.1908,-1.1918,-1.2361,-1.1876,-1.1271,-1.0567,-0.9714,0.0,0.0,0.0,0.0,0.0,0.0,-0.9594,-1.0636,-1.0713,-1.0916,-1.1284,-1.1301,-1.1301,-1.1293,-1.0916,-1.0516,-1.0109,-0.9321,-0.8445,-0.7488,-0.673,0.0,0.0,0.0,0.0,0.0,0.0,0.0,0.0,0.0,0.0,0.0,0.0,0.0,0.0,0.0,0.0,0.0,0.0,0.0,0.0,-0.3794,0.0,0.0,0.0,0.0,0.0,0.0,0.0,0.0,0.0,0.0,-0.883,-1.0223,-1.0896,-0.9807,0.0,0.0,0.0,0.0,-0.9234,-1.0172,-0.9508,-0.8898,-0.8871,-0.8864,-0.9008,-0.943,0.0,0.0,-0.8015,-0.7925,-0.8121,-0.8684,-0.8775,-0.8318,-0.7095,-0.6862,-0.7081,-0.7725,-0.7853,-0.7895,-0.7877,-0.7603,-0.7345,-1.3634,0.0,0.0,0.0,0.0,-1.3857,-1.4619,-1.5287,-1.5427,-1.5376,-1.5191,-1.4906,0.0,0.0,0.0,0.0,0.0,0.0,-1.3994,-1.3835,-1.3722,-1.3507,-1.3236,-1.2842,-1.2744,-1.2901,-1.2799,-1.22,-1.1214,-1.1062,-1.0209,-0.8757,0.0,0.0,0.0,0.0,-1.0379,-1.0687,-1.101,-1.1165,-1.1293,-1.1301,-1.1301,-1.1293,-1.0916,-1.0644,-1.0533,-0.9794,-0.9047,-0.8285,-0.7422,0.0,0.0,0.0,0.0,0.0,0.0,0.0,0.0,0.0,0.0,0.0,0.0,0.0,0.0,0.0,0.0,0.0,0.0,0.0,-0.4324,-0.5121,-0.5736,0.0,0.0,0.0,0.0,0.0,0.0,0.0,0.0,0.0,-1.0005,-1.0524,-1.0898,0.0,0.0,-0.938,-0.9106,-1.0045,-1.113,-1.2052,-1.1413,0.0,-0.989,-0.9962,-0.996,-0.9564,-0.9384,-0.9107,-0.8543,-0.8487,-0.8941,-1.0404,-0.9916,-0.9028,-0.8324,-0.7833,-0.7699,-0.7845,-0.7901,-0.7901,-0.7895,-0.7811,-0.7733,-1.4774,-1.3729,-1.3988,-1.4196,-1.4408,-1.5123,-1.5807,-1.6476,-1.6607,-1.6473,-1.6099,-1.5895,-1.5375,-1.4663,-1.4671,0.0,0.0,0.0,-1.5242,-1.483,-1.474,-1.4384,-1.3791,-1.3477,-1.3367,-1.3431,-1.3319,-1.2839,-1.2049,-1.2087,-1.1486,-1.0224,0.0,0.0,-1.0029,-1.0473,-1.0772,-1.0951,-1.1165,-1.1301,-1.1301,-1.1301,-1.1301,-1.1293,-1.1053,-1.0942,-1.0925,-1.049,-0.9923,-0.9191,-0.821,-0.7311,0.0,0.0,0.0,0.0,0.0,0.0,0.0,0.0,0.0,0.0,0.0,-0.479,0.0,0.0,0.0,0.0,-0.4244,-0.4553,-0.5273,-0.5792,0.0,0.0,0.0,0.0,0.0,0.0,0.0,-0.895,-1.0473,-1.1674,-1.171,-1.1996,-1.2228,-1.2278,-1.1186,-1.0271,-1.0009,0.0,-1.2205,-1.2726,-1.2781,-1.237,-1.1316,-1.1479,-1.1264,-0.9734,-0.9977,-0.9939,-0.9162,-0.9435,-1.0393,-1.1652,-1.1212,-1.002,-0.9175,-0.8764,-0.8531,-0.8525,-0.8351,-0.8213,-0.8207,-0.8213,-0.8159,-1.5765,-1.5564,-1.5224,-1.5543,-1.6208,-1.6432,-1.6895,-1.7472,-1.7605,-1.729,-1.6667,-1.6644,-1.6059,-1.5098,-1.5171,0.0,-1.6667,-1.6608,-1.6298,-1.5793,-1.5756,-1.5164,-1.4111,-1.386,-1.3845,-1.3947,-1.3663,-1.3367,-1.3125,-1.2929,-1.2573,-1.2016,-1.0895,-1.046,-1.073,-1.0747,-1.0934,-1.1293,-1.1293,-1.1301,-1.1301,-1.1301,-1.1301,-1.1301,-1.1301,-1.1293,-1.1284,-1.1266,-1.0878,-0.9963,-0.9069,-0.805,-0.6977,0.0,0.0,0.0,0.0,0.0,0.0,0.0,0.0,0.0,0.0,0.0,0.0,0.0,0.0,0.0,-0.4926,0.0,-0.6536,-0.6284,0.0,0.0,0.0,-0.9087,-0.9895,-1.2679,-1.3505,-1.0989,0.0,0.0,-1.3601,-1.4109,-1.4258,-1.367,-1.2468,-1.1574,-1.1326,-1.216,-1.2736,-1.2757,-1.3692,-1.4019,-1.2846,-1.2749,-1.2089,-1.0263,-1.0717,-1.0947,-1.0015,-1.0375,-1.175,-1.2696,-1.2135,-1.1104,-0.9977,-0.973,-0.9478,-0.943,-0.9101,-0.8776,-0.8764,-0.8716,-0.853,-1.7346,-1.7174,-1.7471,-1.7104,-1.6291,-1.66,-1.694,-1.7253,-1.7302,-1.7279,-1.7207,-1.699,-1.6871,-1.6811,-1.6835,-1.6967,-1.7207,-1.6723,-1.6262,-1.5793,-1.533,-1.4756,-1.4104,-1.4297,-1.4415,-1.4421,-1.4573,-1.445,-1.4059,-1.368,-1.3394,-1.3159,-1.2454,-1.1781,-1.1181,-1.1173,-1.1207,-1.1301,-1.1301,-1.1301,-1.1301,-1.1301,-1.1301,-1.1301,-1.1301,-1.1301,-1.1293,-1.109,-1.0573,-0.9674,-0.9859,-0.9521,-0.8513,-0.7825,0.0,0.0,0.0,0.0,0.0,0.0,0.0,0.0,0.0,-0.6485,-0.6868,0.0,-0.6278,0.0,-0.608,-0.7191,-0.929,-0.874,0.0,0.0,-0.7613,-0.7938,-1.0394,-1.2938,-1.3923,-1.2511,-1.3461,-1.4258,-1.4258,-1.4417,-1.4446,-1.4249,-1.3544,-1.2999,-1.2948,-1.357,-1.4058,-1.401,-1.4267,-1.4396,-1.3899,-1.1934,-1.0787,-1.1337,-1.1485,-1.1384,-1.108,-1.0408,-1.011,-1.0383,-1.0231,-1.0598,-1.2089,-1.0968,-0.9606,-0.9478,-0.9408,-0.9324,-0.9286,-0.9005,-0.8674,-1.8346,-1.8395,-1.8681,-1.8408,-1.7804,-1.7511,-1.747,-1.7597,-1.7597,-1.7571,-1.7449,-1.7213,-1.7335,-1.7736,-1.7772,-1.7893,-1.8084,-1.7779,-1.7214,-1.6495,-1.6186,-1.5631,-1.4911,-1.4948,-1.4955,-1.4972,-1.4985,-1.4892,-1.4651,-1.4408,-1.4184,-1.3934,-1.3623,-1.2993,-1.2131,-1.1869,-1.1764,-1.1739,-1.1514,-1.1452,-1.1578,-1.1402,-1.1301,-1.1301,-1.1301,-1.1301,-1.1301,-1.1318,-1.0947,-1.0172,-1.0431,-1.0238,-0.9474,-0.9078,-0.8986,0.0,0.0,0.0,0.0,0.0,0.0,0.0,0.0,0.0,0.0,0.0,-0.7317,-0.734,-0.843,-0.9867,-1.1589,-1.0937,-1.0412,-1.0467,-0.8651,-0.848,-1.1221,-1.3283,-1.4136,-1.3204,-1.3924,-1.4485,-1.4494,-1.4066,-1.3756,-1.3748,-1.3878,-1.395,-1.395,-1.4288,-1.4455,-1.4327,-1.4417,-1.4387,-1.4109,-1.2773,-1.1965,-1.2673,-1.2757,-1.2381,-1.164,-1.0899,-1.0225,-0.967,-0.9977,-1.0598,-1.1492,-1.0629,-0.9516,-0.9478,-0.9478,-0.9478,-0.9478,-0.9281,-0.9065,-1.9096,-1.9261,-1.9317,-1.9497,-1.9631,-1.8696,-1.8306,-1.8306,-1.8334,-1.8201,-1.7947,-1.7723,-1.796,-1.8506,-1.8506,-1.8722,-1.9083,-1.9015,-1.8418,-1.739,-1.7335,-1.6786,-1.5865,-1.5604,-1.5494,-1.5484,-1.5279,-1.5173,-1.52,-1.5121,-1.4926,-1.4637,-1.4533,-1.4121,-1.3451,-1.2878,-1.2537,-1.2386,-1.1882,-1.1694,-1.1927,-1.1569,-1.1377,-1.1352,-1.1352,-1.1352,-1.1377,-1.1678,-1.1526,-1.0931,-1.0733,-1.0435,-0.9863,-1.0125,-1.0352,0.0,-1.032,0.0,0.0,0.0,0.0,0.0,0.0,0.0,0.0,-0.8341,-0.8393,-0.9319,-1.1043,-1.2441,-1.3222,-1.2745,-1.2403,-1.2324,-1.0684,-1.0265,-1.2083,-1.3296,-1.387,-1.3497,-1.4084,-1.4485,-1.4453,-1.3653,-1.3101,-1.3148,-1.3813,-1.4302,-1.433,-1.4318,-1.4294,-1.4168,-1.4351,-1.4297,-1.3761,-1.395,-1.4123,-1.4043,-1.3861,-1.345,-1.2135,-1.1826,-1.1392,-1.0453,-1.0939,-1.1262,-1.0193,-0.9983,-0.9888,-1.0168,-1.0225,-1.0072,-0.9606,-0.946,-0.9478,-1.9882,-1.9645,-2.0023,-1.9984,-1.9677,-1.9482,-1.9401,-1.9401,-1.9495,-1.9656,-1.9887,-1.9937,-2.0045,-2.0125,-2.0125,-1.9973,-1.9636,-1.9132,-1.8316,-1.723,-1.6916,-1.64,-1.5759,-1.5889,-1.5981,-1.5981,-1.6061,-1.6115,-1.6143,-1.5759,-1.566,-1.5764,-1.528,-1.5095,-1.5156,0.0,0.0,0.0,-1.2362,-1.2135,-1.2051,-1.1893,-1.1728,-1.1628,-1.1628,0.0,-1.1603,-1.1502,-1.123,-1.0839,-1.0623,0.0,0.0,0.0,0.0,0.0,0.0,0.0,0.0,0.0,0.0,0.0,-1.0759,-1.0609,-1.0086,-0.9851,-1.0211,-1.1411,-1.1877,-1.2432,-1.3213,-1.3763,-1.3402,-1.1919,-1.2709,-1.3127,-1.2306,-1.1715,-1.2043,-1.4069,-1.4394,-1.4494,-1.4445,-1.4558,-1.438,-1.3851,-1.4068,-1.4057,-1.368,-1.3783,-1.4153,-1.5079,-1.4921,-1.4264,-1.3601,-1.3701,-1.4096,-1.4282,-1.3981,-1.364,-1.3459,-1.3221,-1.307,-1.2528,-1.2438,-1.2312,-1.2546,-1.1896,-1.1334,-1.2489,-1.2642,-1.2089,-0.9977,-0.9478,-0.9478,-2.0672,-2.0446,-2.0707,-2.0672,0.0,-2.0442,-2.0454,-2.0419,-1.9985,-1.996,-2.0268,-2.0488,-2.0401,-2.0053,-2.0065,-1.9738,-1.9154,-1.8823,-1.828,-1.7493,-1.7088,-1.672,-1.6427,-1.6134,-1.6102,-1.6294,-1.6255,-1.6239,-1.6228,-1.6107,-1.6107,-1.6239,-1.5948,-1.5768,-1.5681,-1.499,-1.4156,-1.3224,-1.2852,-1.2604,-1.2391,-1.2126,-1.1952,-1.1902,-1.1902,0.0,0.0,0.0,0.0,0.0,0.0,0.0,0.0,0.0,0.0,-1.117,-1.1724,-1.1693,-1.0938,-1.1153,-1.1319,-1.126,-1.1521,-1.1532,-1.1078,-1.1093,-1.142,-1.2033,-1.2817,-1.3451,-1.3864,-1.4277,-1.3957,-1.2693,-1.2532,-1.2358,-1.212,-1.2039,-1.2131,-1.2468,-1.3117,-1.3504,-1.344,-1.3559,-1.3847,-1.3994,-1.3907,-1.3805,-1.3827,-1.4555,-1.5504,-1.6136,-1.5303,-1.4637,-1.4629,-1.4641,-1.4685,-1.5086,-1.4906,-1.4414,-1.3844,-1.361,-1.3139,-1.198,-1.1967,-1.2539,-1.228,-1.2028,-1.1832,-1.1587,-1.1531,-1.1188,-0.9728,-0.9478,-0.9478,-2.1201,-2.1201,-2.1201,-2.1201,-2.1201,-2.1051,-2.0955,-2.0803,-2.0144,0.0,0.0,-2.0399,-2.0181,-1.9614,-1.9614,-1.9268,-1.8655,-1.8644,-1.8326,-1.7749,-1.7445,-1.7245,-1.7119,-1.6467,-1.6256,-1.6477,-1.6322,-1.6167,-1.6056,-1.6259,-1.6345,-1.6327,-1.6327,-1.6116,-1.5671,-1.5182,-1.4529,-1.3769,-1.3445,-1.3154,-1.2835,-1.251,-1.2274,-1.2175,-1.2175,-1.2175,-1.2175,-1.2175,-1.2175,-1.215,-1.1977,-1.1952,-1.2138,-1.1274,-1.0851,-1.1105,-1.1742,-1.1668,-1.0692,-1.1309,-1.1714,-1.169,-1.18,-1.1849,-1.1762,-1.1977,-1.2229,-1.2505,-1.3736,-1.4407,-1.4198,-1.4387,-1.4195,-1.3505,-1.1738,-1.104,-1.213,-1.2781,-1.2591,-1.1475,-1.2202,-1.2872,-1.3257,-1.2764,-1.2636,-1.3542,-1.3824,-1.381,-1.4191,-1.4975,-1.5625,-1.5591,-1.4874,-1.4663,-1.4752,-1.4688,-1.507,-1.513,-1.5498,-1.5326,-1.429,-1.3802,-1.286,-1.1563,-1.2023,-1.2486,-1.2131,-1.236,-1.2098,-1.085,-1.0116,-0.9787,-0.9775,-0.9636,-0.9522,-2.1201,-2.1201,-2.1201,-2.1201,-2.1158,-2.0528,-1.9966,-1.9628,-2.019,-2.0327,-2.0124,-2.0156,-2.0124,-2.0028,-2.0017,-1.9713,-1.9205,-1.9194,-1.8625,-1.7637,-1.7677,-1.7472,-1.7024,-1.7008,-1.6818,-1.6538,-1.6637,-1.6443,-1.6002,-1.6077,-1.6066,-1.5972,-1.5972,-1.5885,-1.5701,-1.5728,-1.5364,-1.4637,-1.4292,-1.39,-1.3412,-1.324,-1.2916,-1.2474,-1.2455,-1.2455,-1.2455,-1.2455,-1.2431,-1.2455,-1.2461,-1.2461,-1.2437,-1.2484,-1.245,-1.2221,-1.1292,-1.0906,-1.1393,-1.1899,-1.2141,-1.2003,-1.143,-1.1333,-1.1979,-1.2076,-1.2654,-1.3983,-1.4309,-1.4019,-1.3039,-1.3769,-1.3991,-1.3201,-1.1689,-1.1347,-1.3045,-1.2803,-1.2586,-1.2807,-1.3278,-1.4181,-1.52,-1.3745,-1.2378,-1.2776,-1.3918,-1.4958,-1.4422,-1.36,-1.3025,-1.3091,-1.3634,-1.3353,-1.2844,-1.1842,-1.2725,-1.3637,-1.4963,-1.557,-1.5377,-1.4863,-1.452,-1.4759,-1.3815,-1.3596,-1.4402,-1.4096,-1.3641,-1.3719,-1.2324,-1.0864,-1.0749,-1.0112,-0.9502,-2.1201,-2.1201,-2.1201,-2.0955,-2.056,-2.0226,-1.9846,-1.9528,-1.9889,-2.0009,-1.9966,-2.0074,-1.9901,-1.9507,-1.9507,-1.9171,-1.858,-1.858,-1.8314,-1.7828,-1.7652,-1.7586,-1.7527,-1.7135,-1.6938,-1.6989,-1.6938,-1.6628,-1.6178,-1.6256,-1.6194,-1.5934,-1.5914,-1.5827,-1.573,-1.5769,-1.5573,-1.5155,-1.4846,-1.4385,-1.3841,-1.3546,-1.3281,-1.3063,-1.286,-1.2725,-1.2735,-1.2725,-1.2725,-1.2735,-1.2642,-1.2642,-1.27,-1.2832,-1.2783,-1.2505,-1.176,-1.1191,-1.0956,-1.1319,-1.1507,-1.1438,-1.1258,-1.1259,-1.1644,-1.2325,-1.3241,-1.428,-1.3277,-1.2281,-1.1927,-1.2185,-1.2468,-1.2735,-1.3406,-1.3611,-1.2775,-1.2527,-1.2433,-1.2749,-1.2875,-1.3303,-1.4275,-1.3164,-1.2305,-1.2445,-1.3926,-1.4824,-1.4565,-1.3084,-1.2077,-1.2335,-1.3273,-1.3926,-1.36,-1.3637,-1.3637,-1.36,-1.4086,-1.4848,-1.5505,-1.5446,-1.5445,-1.5527,-1.3897,-1.2652,-1.3273,-1.3491,-1.3499,-1.2872,-1.2321,-1.1186,-1.0997,-1.0244,-0.955,-2.1293,-2.1201,-2.1113,-2.0718,-2.017,-1.9908,-1.9763,-1.9645,-1.9416,-1.9421,-1.9523,-1.9593,-1.9309,-1.8811,-1.8787,-1.8486,-1.8042,-1.8008,-1.8008,-1.7978,-1.7676,-1.7695,-1.792,-1.7282,-1.7148,-1.7367,-1.7214,-1.686,-1.6434,-1.6427,-1.6218,-1.5838,-1.5788,-1.574,-1.5633,-1.5614,-1.5585,-1.5391,-1.5183,-1.4828,-1.426,-1.3938,-1.375,-1.3633,-1.334,-1.3164,-1.3164,-1.3164,-1.3125,-1.3027,-1.285,-1.2763,-1.2817,-1.2808,-1.2569,-1.2101,-1.1964,-1.1559,-1.0729,-1.0601,-1.0728,-1.0973,-1.1007,-1.109,-1.137,-1.2129,-1.2935,-1.3288,-1.1802,-1.0885,-1.1317,-1.1256,-1.1408,-1.2538,-1.4471,-1.4646,-1.2771,-1.2353,-1.2305,-1.2305,-1.2305,-1.2328,-1.2268,-1.2231,-1.2224,-1.2592,-1.3419,-1.4099,-1.4207,-1.2792,-1.1818,-1.2114,-1.2996,-1.3688,-1.4669,-1.4517,-1.397,-1.3055,-1.2945,-1.3608,-1.4617,-1.5204,-1.4947,-1.4482,-1.2799,-1.1515,-1.126,-1.2033,-1.2328,-1.1626,-1.1223,-1.1117,-1.1075,-1.0515,-0.9781,-2.1583,-2.1154,-2.0941,-2.0617,-2.0313,-1.9438,-1.9369,-1.9733,-1.8947,-1.8594,-1.8745,-1.8355,-1.8221,-1.811,-1.81,-1.8076,-1.8008,-1.8008,-1.8008,-1.8008,-1.7969,-1.7978,-1.8008,-1.791,-1.7715,-1.7465,-1.7478,-1.7241,-1.6692,-1.6433,-1.6039,-1.5527,-1.5449,-1.5459,-1.5449,-1.5439,-1.542,-1.542,-1.5371,-1.5156,-1.4756,-1.4697,-1.4482,-1.4055,-1.4007,-1.3997,-1.3938,-1.3987,-1.3812,-1.3471,-1.3295,-1.301,-1.2611,-1.2529,-1.1968,-1.0744,-1.1072,-1.1308,-1.1132,-1.0329,-1.0258,-1.1097,-1.0631,-1.0555,-1.1163,-1.1038,-1.0881,-1.0996,-1.0814,-1.0847,-1.1376,-1.1804,-1.2237,-1.2691,-1.292,-1.2901,-1.331,-1.2828,-1.2305,-1.2305,-1.2305,-1.2305,-1.2187,-1.1929,-1.2033,-1.2542,-1.2622,-1.2981,-1.3542,-1.2418,-1.1223,-1.1372,-1.1959,-1.2144,-1.2027,-1.1589,-1.2137,-1.1731,-1.1403,-1.2137,-1.3237,-1.3716,-1.339,-1.2579,-1.1663,-1.1149,-1.1117,-1.1298,-1.1372,-1.126,-1.1117,-1.1117,-1.1068,-1.0924,-1.0527,-2.2249,-2.2076,-2.1958,-2.1559,-2.0899,-1.9636,-1.9354,-1.9755,-1.939,-1.9131,-1.9004,-1.8838,-1.8486,-1.8018,-1.8008,-1.8008,-1.8008,-1.8008,-1.8008,-1.8008,-1.8008,-1.8008,-1.8008,-1.8008,-1.791,-1.7764,-1.7811,-1.7586,-1.7109,-1.6733,-1.6292,-1.587,-1.5821,-1.5664,-1.5439,-1.542,-1.542,-1.542,-1.542,-1.5322,-1.5156,-1.4912,-1.4707,-1.4512,-1.425,-1.4114,-1.4077,-1.4024,-1.3723,-1.319,-1.2958,-1.2718,-1.2508,-1.1726,-1.0873,-1.0093,-1.0503,-1.0829,-1.0808,-1.0267,-1.0112,-1.0585,-1.0482,-1.053,-1.0824,-1.0701,-1.0586,-1.0586,-1.0593,-1.0955,-1.1797,-1.2164,-1.2391,-1.2551,-1.2414,-1.2489,-1.2806,-1.2335,-1.2046,-1.2231,-1.2305,-1.2077,-1.1706,-1.1446,-1.1558,-1.1996,-1.1959,-1.2218,-1.2528,-1.1737,-1.1223,-1.1111,-1.1409,-1.144,-1.1298,-1.2835,-1.3127,-1.2615,-1.1694,-1.1552,-1.1953,-1.3055,-1.2981,-1.1372,-1.1149,-1.1117,-1.1117,-1.1117,-1.1117,-1.1117,-1.1117,-1.1117,-1.1117,-1.1117,-1.0864,-2.28,-2.2685,-2.2503,-2.2097,-2.1457,-2.0105,-1.9732,-2.0015,-1.9879,-1.961,-1.938,-1.9346,-1.8955,-1.8408,-1.8208,-1.8125,-1.8018,-1.8008,-1.8008,-1.8008,-1.8008,-1.8008,-1.8008,-1.8008,-1.8008,-1.8008,-1.7998,-1.7783,-1.7393,-1.708,-1.668,-1.6299,-1.6163,-1.5928,-1.5615,-1.5459,-1.5332,-1.5332,-1.5303,-1.5274,-1.5255,-1.5012,-1.4848,-1.4875,-1.4575,-1.4382,-1.4328,-1.4245,-1.3931,-1.3323,-1.2889,-1.2535,-1.2238,-1.1231,-1.0436,-1.0025,-1.0187,-1.0407,-1.0513,-1.0349,-1.0241,-1.0254,-1.0486,-1.0586,-1.0586,-1.0586,-1.0754,-1.1095,-1.1075,-1.1504,-1.2111,-1.2305,-1.2305,-1.2305,-1.2305,-1.2305,-1.2305,-1.1855,-1.1639,-1.1929,-1.2003,-1.1892,-1.1298,-1.1117,-1.1223,-1.1409,-1.1484,-1.1521,-1.1558,-1.142,-1.1353,-1.1323,-1.1226,-1.1111,-1.1254,-1.2469,-1.3709,-1.32,-1.1663,-1.1111,-1.1117,-1.2248,-1.2762,-1.1223,-1.1155,-1.1117,-1.1117,-1.1117,-1.1117,-1.1117,-1.1117,-1.1117,-1.1117,-1.1117,-1.1117,-2.3121,-2.2617,-2.1953,-2.1715,-2.169,-2.0567,-2.0363,-2.065,-1.9983,-1.9601,-1.9581,-1.9438,-1.9277,-1.918,-1.8773,-1.8364,-1.8057,-1.8018,-1.8008,-1.8008,-1.8008,-1.8008,-1.8008,-1.8008,-1.8008,-1.8008,-1.8008,-1.7812,-1.7422,-1.7373,-1.7129,-1.6677,-1.6338,-1.6114,-1.5986,-1.5516,-1.5234,-1.5302,-1.5117,-1.5039,-1.5048,-1.502,-1.504,-1.5109,-1.5148,-1.5032,-1.4934,-1.4953,-1.4686,-1.4214,-1.3429,-1.2649,-1.1819,-1.1396,-1.0982,-1.056,-1.0221,-1.0188,-1.0521,-1.0557,-1.0546,-1.0559,-1.0566,-1.0586,-1.0586,-1.0586,-1.1042,-1.2078,-1.2078,-1.2184,-1.2271,-1.2305,-1.2305,-1.2305,-1.2305,-1.2305,-1.2305,-1.1632,-1.1186,-1.126,-1.1521,-1.1521,-1.1149,-1.1117,-1.1141,-1.1191,-1.1173,-1.1186,-1.1271,-1.1534,-1.1842,-1.1781,-1.151,-1.1123,-1.1161,-1.1774,-1.17,-1.1477,-1.1484,-1.1117,-1.1117,-1.1155,-1.1155,-1.1192,-1.1155,-1.1117,-1.1117,-1.1117,-1.1117,-1.1117,-1.1117,-1.1117,-1.1117,-1.1117,-1.1117,-2.3523,-2.2814,-2.2065,-2.1428,-2.0884,-1.9985,-1.979,-2.004,-1.9907,-1.9879,-2.0053,-2.009,-1.9951,-1.9678,-1.9485,-1.9036,-1.8383,-1.8144,-1.8008,-1.8008,-1.8008,-1.8008,-1.8008,-1.8008,-1.8008,-1.8008,-1.8008,-1.7939,-1.7812,-1.7663,-1.7383,-1.6992,-1.6683,-1.6427,-1.6131,-1.5699,-1.5583,-1.5761,-1.5313,-1.5123,-1.5341,-1.5142,-1.497,-1.4872,-1.5,-1.5068,-1.497,-1.4872,-1.4346,-1.3386,-1.293,-1.2168,-1.1148,-1.0936,-1.0783,-1.0609,-1.0459,-1.0445,-1.0566,-1.0586,-1.0586,-1.0586,-1.0586,-1.0593,-1.0586,-1.062,-1.1075,-1.2004,-1.2305,-1.2305,-1.2305,-1.2305,-1.2305,-1.2305,-1.2305,-1.2305,-1.2157,-1.1595,-1.1117,-1.1117,-1.126,-1.1223,-1.1149,-1.1117,-1.125,-1.1522,-1.1335,-1.1166,-1.1262,-1.1836,-1.2391,-1.2337,-1.1986,-1.163,-1.163,-1.1298,-1.1149,-1.1149,-1.1117,-1.1117,-1.1117,-1.1117,-1.1155,-1.1155,-1.1117,-1.1117,-1.1117,-1.1117,-1.1117,-1.1117,-1.1117,-1.1117,-1.1117,-1.1117,-1.1117,-2.3372,-2.2569,-2.2031,-2.1308,-2.0459,-1.9923,-1.9627,-1.9636,-1.9754,-1.9951,-2.0177,-2.0294,-2.0198,-1.9898,-1.9791,-1.9416,-1.8807,-1.8381,-1.8144,-1.8018,-1.8008,-1.8008,-1.8008,-1.8008,-1.8008,-1.8008,-1.794,-1.7896,-1.7906,-1.7725,-1.7504,-1.7212,-1.6954,-1.667,-1.6368,-1.5939,-1.5842,-1.5964,-1.5529,-1.531,-1.5404,-1.5301,-1.5046,-1.476,-1.4885,-1.4954,-1.4832,-1.4508,-1.3962,-1.3108,-1.2489,-1.1686,-1.0751,-1.0586,-1.0586,-1.0586,-1.0586,-1.0586,-1.0586,-1.0586,-1.0646,-1.0728,-1.0747,-1.0707,-1.062,-1.0754,-1.1323,-1.2037,-1.2305,-1.2305,-1.2305,-1.2305,-1.2305,-1.2305,-1.2305,-1.2305,-1.2268,-1.1558,-1.1192,-1.1117,-1.1117,-1.1117,-1.1141,-1.1286,-1.1495,-1.185,-1.1582,-1.1389,-1.1498,-1.2083,-1.2705,-1.2674,-1.2409,-1.2204,-1.2168,-1.195,-1.1401,-1.1298,-1.1123,-1.1117,-1.1117,-1.1117,-1.1117,-1.1117,-1.1117,-1.1117,-1.1117,-1.1117,-1.1117,-1.1117,-1.1117,-1.1117,-1.1117,-1.1117,-1.1117,-2.2569,-2.1918,-2.1804,-2.1193,-2.0421,-2.0313,-2.0089,-1.9636,-1.9597,-1.9754,-1.9902,-1.9942,-1.9962,-1.9837,-1.9582,-1.9326,-1.9174,-1.8781,-1.8391,-1.8105,-1.8018,-1.7998,-1.7998,-1.7959,-1.794,-1.794,-1.7784,-1.7706,-1.7706,-1.7554,-1.7476,-1.741,-1.7029,-1.6793,-1.6779,-1.6211,-1.5932,-1.5947,-1.5758,-1.5532,-1.5212,-1.5473,-1.5298,-1.4708,-1.4931,-1.4922,-1.4561,-1.392,-1.3511,-1.323,-1.2197,-1.1233,-1.0713,-1.0586,-1.0586,-1.0586,-1.0586,-1.0586,-1.0586,-1.0613,-1.0762,-1.0989,-1.1029,-1.0909,-1.0861,-1.1096,-1.1575,-1.2151,-1.2305,-1.2305,-1.2305,-1.2371,-1.2365,-1.2305,-1.2305,-1.2305,-1.2157,-1.1595,-1.1117,-1.1129,-1.1202,-1.1154,-1.1256,-1.1624,-1.1928,-1.1992,-1.1902,-1.186,-1.1926,-1.2385,-1.265,-1.2705,-1.2614,-1.2518,-1.2602,-1.2614,-1.2005,-1.1498,-1.125,-1.1117,-1.1117,-1.1117,-1.1117,-1.1117,-1.1117,-1.1117,-1.1117,-1.1117,-1.1117,-1.1117,-1.1117,-1.1117,-1.1117,-1.1117,-1.1117,-2.2531,-2.1756,-2.1155,-2.0421,-1.9726,-1.9648,-1.9529,-1.9429,-1.9518,-1.9636,-1.9715,-1.9824,-1.9912,-1.9883,-1.9751,-1.9562,-1.9288,-1.9145,-1.8867,-1.8485,-1.8206,-1.8098,-1.8015,-1.7776,-1.7666,-1.7632,-1.7598,-1.7564,-1.7529,-1.7382,-1.7279,-1.7242,-1.6986,-1.6853,-1.685,-1.644,-1.6306,-1.6499,-1.5997,-1.5744,-1.5881,-1.5771,-1.556,-1.5381,-1.5184,-1.5029,-1.4848,-1.4,-1.3086,-1.222,-1.1732,-1.124,-1.0713,-1.0586,-1.0586,-1.0586,-1.0586,-1.0586,-1.062,-1.078,-1.0929,-1.1089,-1.1229,-1.1323,-1.1336,-1.139,-1.171,-1.2204,-1.2305,-1.2305,-1.2365,-1.2699,-1.2726,-1.2314,-1.2305,-1.2311,-1.2216,-1.1602,-1.1186,-1.1214,-1.1751,-1.2149,-1.2204,-1.2403,-1.2403,-1.2379,-1.2127,-1.2,-1.2385,-1.2554,-1.2699,-1.2705,-1.2705,-1.2705,-1.2705,-1.2705,-1.2397,-1.195,-1.1661,-1.122,-1.1172,-1.1117,-1.1117,-1.1117,-1.1117,-1.1117,-1.1117,-1.1117,-1.1117,-1.1117,-1.1117,-1.1117,-1.1117,-1.1117,-1.1117,-2.2069,-2.126,-2.0421,-1.9766,-1.9292,-1.9292,-1.9341,-1.939,-1.9478,-1.9527,-1.9597,-1.9666,-1.9657,-1.9657,-1.9657,-1.9526,-1.9293,-1.9283,-1.9153,-1.8882,-1.8523,-1.8332,-1.8266,-1.7896,-1.7732,-1.765,-1.7502,-1.7392,-1.7358,-1.721,-1.7107,-1.7072,-1.6978,-1.6899,-1.689,-1.6688,-1.6679,-1.6798,-1.6413,-1.6202,-1.6276,-1.6202,-1.6001,-1.5693,-1.5331,-1.495,-1.4562,-1.36,-1.2727,-1.1933,-1.1452,-1.0965,-1.0618,-1.0586,-1.0586,-1.0586,-1.0586,-1.0586,-1.062,-1.0815,-1.1189,-1.1476,-1.1583,-1.1697,-1.185,-1.1804,-1.1964,-1.2225,-1.2305,-1.2305,-1.2385,-1.2846,-1.2986,-1.2699,-1.2432,-1.2276,-1.215,-1.1905,-1.1627,-1.1697,-1.2155,-1.2596,-1.2705,-1.2705,-1.2705,-1.2644,-1.2427,-1.2264,-1.2614,-1.2687,-1.2705,-1.2705,-1.2705,-1.2705,-1.2705,-1.2705,-1.2705,-1.2445,-1.2174,-1.163,-1.128,-1.1166,-1.1117,-1.1117,-1.1117,-1.1117,-1.1117,-1.1117,-1.1117,-1.1117,-1.1208,-1.1117,-1.1117,-1.1117,-1.1117,-2.127,-2.0421,-1.9648,-1.9332,-1.9292,-1.9292,-1.9381,-1.9527,-1.939,-1.9429,-1.9518,-1.9429,-1.9332,-1.9292,-1.9371,-1.9344,-1.9283,-1.9286,-1.9307,-1.9153,-1.8872,-1.8694,-1.8496,-1.8092,-1.793,-1.7856,-1.7423,-1.721,-1.7176,-1.7003,-1.6908,-1.6943,-1.6908,-1.6908,-1.6899,-1.689,-1.6872,-1.6881,-1.6853,-1.667,-1.6379,-1.6679,-1.6551,-1.584,-1.5393,-1.4816,-1.4048,-1.3081,-1.2462,-1.225,-1.1305,-1.0757,-1.0613,-1.0586,-1.0586,-1.06,-1.0613,-1.0633,-1.068,-1.0981,-1.1423,-1.2064,-1.2004,-1.2033,-1.2184,-1.2204,-1.2211,-1.2298,-1.2305,-1.2338,-1.2485,-1.2872,-1.3166,-1.3193,-1.2692,-1.2258,-1.2068,-1.2402,-1.2318,-1.2085,-1.2397,-1.2705,-1.2705,-1.2705,-1.2705,-1.2693,-1.265,-1.2656,-1.2668,-1.2705,-1.2705,-1.2705,-1.2705,-1.2705,-1.2705,-1.2705,-1.2705,-1.2632,-1.2445,-1.2089,-1.1673,-1.1546,-1.1492,-1.1443,-1.1202,-1.1178,-1.1214,-1.1286,-1.1413,-1.1582,-1.1504,-1.1244,-1.1172,-1.1238,-1.1141,-2.0692,-2.0421,-1.9648,-1.9292,-1.9292,-1.9292,-1.9341,-1.9381,-1.9341,-1.9341,-1.9381,-1.9341,-1.9292,-1.9292,-1.9292,-1.9292,-1.9292,-1.9292,-1.9292,-1.9274,-1.9206,-1.8785,-1.8295,-1.7851,-1.7702,-1.7656,-1.7296,-1.6968,-1.6968,-1.6908,-1.6908,-1.6908,-1.6908,-1.6908,-1.6908,-1.6908,-1.6908,-1.6908,-1.6908,-1.6872,-1.6789,-1.6826,-1.6817,-1.6565,-1.5659,-1.5053,-1.463,-1.324,-1.2157,-1.1719,-1.143,-1.0982,-1.0707,-1.0667,-1.07,-1.074,-1.0982,-1.1002,-1.0847,-1.1263,-1.1824,-1.2218,-1.2218,-1.2218,-1.2285,-1.2305,-1.2305,-1.2305,-1.2311,-1.2478,-1.2859,-1.308,-1.3353,-1.3647,-1.296,-1.2466,-1.2833,-1.2807,-1.2632,-1.2542,-1.2626,-1.2681,-1.2705,-1.2705,-1.2705,-1.2705,-1.2705,-1.2705,-1.2705,-1.2705,-1.2705,-1.2705,-1.2705,-1.2705,-1.2705,-1.2705,-1.2705,-1.2705,-1.2632,-1.2578,-1.2349,-1.2294,-1.2312,-1.233,-1.1661,-1.1455,-1.1582,-1.1691,-1.1866,-1.2053,-1.2101,-1.1986,-1.163,-1.1483,-1.1236,-2.0508,-2.0421,-1.9648,-1.9292,-1.9292,-1.9292,-1.9292,-1.9292,-1.9292,-1.9292,-1.9292,-1.9292,-1.9292,-1.9292,-1.9292,-1.9292,-1.9292,-1.9292,-1.9292,-1.9292,-1.9274,-1.9017,-1.8605,-1.821,-1.8009,-1.7926,-1.7413,-1.7183,-1.7128,-1.7,-1.6917,-1.6908,-1.6908,-1.6908,-1.6908,-1.6908,-1.6908,-1.6908,-1.6908,-1.6908,-1.6908,-1.6908,-1.6908,-1.6629,-1.5679,-1.4743,-1.3925,-1.2896,-1.213,-1.1721,-1.1496,-1.1335,-1.1363,-1.1323,-1.1323,-1.1316,-1.1623,-1.163,-1.1436,-1.1697,-1.1971,-1.2231,-1.2305,-1.2305,-1.2305,-1.2305,-1.2305,-1.2305,-1.2305,-1.2485,-1.2719,-1.2826,-1.324,-1.376,-1.3131,-1.2732,-1.3353,-1.2954,-1.2747,-1.2705,-1.2705,-1.2705,-1.2705,-1.2705,-1.2705,-1.2705,-1.2705,-1.2705,-1.2705,-1.2705,-1.2705,-1.2705,-1.2705,-1.2705,-1.2705,-1.2705,-1.2705,-1.2705,-1.2705,-1.2705,-1.2705,-1.2705,-1.2668,-1.2512,-1.2047,-1.1775,-1.189,-1.2065,-1.2324,-1.2506,-1.2687,-1.259,-1.2192,-1.1796,-1.1525,-2.0382,-2.0313,-1.9608,-1.9292,-1.9292,-1.9292,-1.9292,-1.9292,-1.9292,-1.9292,-1.9292,-1.9292,-1.9292,-1.9292,-1.9292,-1.9292,-1.9292,-1.9292,-1.9292,-1.9292,-1.9292,-1.921,-1.9136,-1.8742,-1.8586,-1.8467,-1.7853,-1.7513,-1.7348,-1.7082,-1.6917,-1.6908,-1.6908,-1.6908,-1.6908,-1.6908,-1.6908,-1.6908,-1.6908,-1.6908,-1.6908,-1.6908,-1.6839,-1.6429,-1.519,-1.3837,-1.2873,-1.2275,-1.2151,-1.196,-1.1657,-1.179,-1.2184,-1.2265,-1.2238,-1.2184,-1.2171,-1.2204,-1.2211,-1.204,-1.206,-1.2251,-1.2305,-1.2305,-1.2305,-1.2305,-1.2305,-1.2305,-1.2305,-1.2414,-1.2598,-1.2536,-1.3106,-1.3743,-1.3243,-1.2984,-1.3137,-1.296,-1.2705,-1.2705,-1.2705,-1.2705,-1.2705,-1.2705,-1.2705,-1.2705,-1.2705,-1.2705,-1.2705,-1.2705,-1.2705,-1.2705,-1.2705,-1.2705,-1.2705,-1.2705,-1.2705,-1.2705,-1.2705,-1.2705,-1.2705,-1.2705,-1.2705,-1.2542,-1.2288,-1.2143,-1.2125,-1.2367,-1.2632,-1.2705,-1.2705,-1.2705,-1.2608,-1.2288,-1.1958,-1.9569,-1.9539,-1.9381,-1.9292,-1.9292,-1.9292,-1.9292,-1.9292,-1.9292,-1.9292,-1.9292,-1.9292,-1.9292,-1.9292,-1.9292,-1.9292,-1.9292,-1.9292,-1.9292,-1.9292,-1.9292,-1.9292,-1.9219,-1.8916,-1.8742,-1.854,-1.7889,-1.7523,-1.7413,-1.7156,-1.6908,-1.6908,-1.6908,-1.6908,-1.6908,-1.6908,-1.6908,-1.6908,-1.6908,-1.6908,-1.6908,-1.6874,-1.6621,-1.5974,-1.4573,-1.3346,-1.2556,-1.2305,-1.2271,-1.2204,-1.2144,-1.2138,-1.2271,-1.2305,-1.2305,-1.2305,-1.2305,-1.2305,-1.2291,-1.2238,-1.2218,-1.2278,-1.2305,-1.2305,-1.2305,-1.2305,-1.2305,-1.2305,-1.2325,-1.2619,-1.3004,-1.349,-1.3685,-1.3749,-1.3264,-1.2747,-1.279,-1.2784,-1.2705,-1.2705,-1.2705,-1.2705,-1.2705,-1.2705,-1.2705,-1.2705,-1.2705,-1.2705,-1.2705,-1.2705,-1.2705,-1.2705,-1.2705,-1.2705,-1.2705,-1.2705,-1.2705,-1.2705,-1.2705,-1.2705,-1.2705,-1.2705,-1.2705,-1.2705,-1.2662,-1.2536,-1.2385,-1.2469,-1.2699,-1.2705,-1.2705,-1.2705,-1.2656,-1.2487,-1.2439,-1.9292,-1.9292,-1.9292,-1.9292,-1.9292,-1.9292,-1.9292,-1.9292,-1.9292,-1.9292,-1.9292,-1.9292,-1.9292,-1.9292,-1.9292,-1.9292,-1.9292,-1.9292,-1.9292,-1.9292,-1.9292,-1.9292,-1.9274,-1.9118,-1.8971,-1.8861,-1.8183,-1.7825,-1.7651,-1.7229,-1.6908,-1.6908,-1.6908,-1.6908,-1.6908,-1.6908,-1.6908,-1.6908,-1.6908,-1.6908,-1.6908,-1.6908,-1.6298,-1.5286,-1.4106,-1.3135,-1.2372,-1.2305,-1.2305,-1.2305,-1.2305,-1.2305,-1.2305,-1.2305,-1.2305,-1.2305,-1.2305,-1.2305,-1.2305,-1.2305,-1.2298,-1.2305,-1.2305,-1.2305,-1.2305,-1.2305,-1.2305,-1.2438,-1.2781,-1.3299,-1.34,-1.3294,-1.3525,-1.361,-1.313,-1.2747,-1.2705,-1.2705,-1.2705,-1.2705,-1.2705,-1.2705,-1.2705,-1.2705,-1.2705,-1.2705,-1.2705,-1.2705,-1.2705,-1.2705,-1.2705,-1.2705,-1.2705,-1.2705,-1.2705,-1.2705,-1.2705,-1.2705,-1.2705,-1.2705,-1.2705,-1.2705,-1.2705,-1.2705,-1.2705,-1.2705,-1.2602,-1.2699,-1.2705,-1.2705,-1.2705,-1.2705,-1.2674,-1.2596,-1.2584,-1.9292,-1.9292,-1.9292,-1.9292,-1.9292,-1.9292,-1.9292,-1.9292,-1.9292,-1.9292,-1.9292,-1.9292,-1.9292,-1.9292,-1.9292,-1.9292,-1.9292,-1.9292,-1.9292,-1.9292,-1.9292,-1.9292,-1.9274,-1.9256,-1.9228,-1.9201,-1.8559,-1.8182,-1.7908,-1.7422,-1.7027,-1.6936,-1.6908,-1.6908,-1.6908,-1.6908,-1.6963,-1.7046,-1.6954,-1.6842,-1.6737,-1.6684,-1.5903,-1.4573,-1.3644,-1.2959,-1.2409,-1.2305,-1.2305,-1.2305,-1.2305,-1.2305,-1.2305,-1.2305,-1.2305,-1.2305,-1.2305,-1.2305,-1.2305,-1.2305,-1.2305,-1.2268,-1.2304,-1.2273,-1.228,-1.2291,-1.2405,-1.2716,-1.3081,-1.3468,-1.3307,-1.3052,-1.3003,-1.313,-1.2918,-1.2747,-1.2705,-1.2705,-1.2705,-1.2705,-1.2705,-1.2705,-1.2705,-1.2705,-1.2705,-1.2705,-1.2705,-1.2705,-1.2705,-1.2705,-1.2705,-1.2705,-1.2705,-1.2705,-1.2705,-1.2705,-1.2705,-1.2705,-1.2705,-1.2705,-1.2705,-1.2705,-1.2705,-1.2705,-1.2705,-1.2705,-1.2705,-1.2705,-1.2705,-1.2705,-1.2705,-1.2705,-1.2705,-1.2705,-1.2705,-1.9292,-1.9292,-1.9292,-1.9292,-1.9292,-1.9292,-1.9292,-1.9292,-1.9292,-1.9292,-1.9292,-1.9292,-1.9292,-1.9292,-1.9292,-1.9292,-1.9292,-1.9292,-1.9292,-1.9292,-1.9292,-1.9292,-1.9292,-1.9292,-1.9292,-1.9191,-1.8815,-1.8476,-1.8119,-1.7651,-1.7303,-1.7009,-1.6972,-1.6982,-1.7009,-1.6936,-1.7093,-1.7134,-1.6952,-1.6705,-1.6492,-1.605,-1.533,-1.389,-1.3062,-1.2556,-1.2372,-1.2305,-1.2305,-1.2305,-1.2305,-1.2305,-1.2305,-1.2305,-1.2305,-1.2305,-1.2305,-1.2305,-1.2305,-1.2268,-1.2201,-1.2112,-1.2187,-1.2285,-1.2246,-1.2255,-1.2494,-1.2824,-1.2893,-1.2918,-1.2833,-1.2747,-1.2747,-1.279,-1.279,-1.2705,-1.2705,-1.2705,-1.2705,-1.2705,-1.2705,-1.2705,-1.2705,-1.2705,-1.2705,-1.2705,-1.2705,-1.2705,-1.2705,-1.2705,-1.2705,-1.2705,-1.2705,-1.2705,-1.2705,-1.2705,-1.2705,-1.2705,-1.2705,-1.2705,-1.2705,-1.2705,-1.2705,-1.2705,-1.2705,-1.2705,-1.2705,-1.2705,-1.2705,-1.2705,-1.2705,-1.2705,-1.2705,-1.2705,-1.2705,-1.9292,-1.9292,-1.9292,-1.9292,-1.9292,-1.9292,-1.9292,-1.9292,-1.9292,-1.9292,-1.9292,-1.9292,-1.9292,-1.9292,-1.9292,-1.9292,-1.9292,-1.9292,-1.9292,-1.9292,-1.9292,-1.9292,-1.9292,-1.9292,-1.9292,-1.9256,-1.9081,-1.8759,-1.8383,-1.8027,-1.7715,-1.7578,-1.7505,-1.7532,-1.7468,-1.7348,-1.718,-1.7124,-1.6675,-1.6365,-1.6178,-1.5576,-1.4517,-1.36,-1.2739,-1.2305,-1.215,-1.2157,-1.2157,-1.2157,-1.2224,-1.2268,-1.2305,-1.2268,-1.2305,-1.2305,-1.2305,-1.2305,-1.2268,-1.2201,-1.2131,-1.2233,-1.228,-1.226,-1.2291,-1.2415,-1.2609,-1.2789,-1.2875,-1.2705,-1.2699,-1.2705,-1.2705,-1.2705,-1.2705,-1.2705,-1.2656,-1.2656,-1.2571,-1.2528,-1.2705,-1.2705,-1.2705,-1.2705,-1.2705,-1.2705,-1.2705,-1.2705,-1.2705,-1.2705,-1.2705,-1.2705,-1.2705,-1.2705,-1.2705,-1.2705,-1.2705,-1.2705,-1.2705,-1.2705,-1.2705,-1.2705,-1.2705,-1.2705,-1.2705,-1.2705,-1.2705,-1.2705,-1.2705,-1.2705,-1.2705,-1.2705,-1.2705,-1.2705,-1.2705,-1.9292,-1.9292,-1.9292,-1.9292,-1.9292,-1.9292,-1.9292,-1.9292,-1.9292,-1.9292,-1.9292,-1.9292,-1.9292,-1.9292,-1.9301,-1.9301,-1.9262,-1.9222,-1.9183,-1.9143,-1.9152,-1.9143,-1.9192,-1.9192,-1.9152,-1.9103,-1.9085,-1.9021,-1.8687,-1.8385,-1.8219,-1.8008,-1.8045,-1.8044,-1.7907,-1.7661,-1.7271,-1.6747,-1.6199,-1.59,-1.5324,-1.4543,-1.3774,-1.3208,-1.2512,-1.2083,-1.1966,-1.1929,-1.1929,-1.2003,-1.2157,-1.2305,-1.2268,-1.215,-1.215,-1.2268,-1.2224,-1.2187,-1.2127,-1.2114,-1.2099,-1.219,-1.2246,-1.2326,-1.2391,-1.2475,-1.2615,-1.2693,-1.2705,-1.2705,-1.2705,-1.2705,-1.2705,-1.2705,-1.2705,-1.2613,-1.2308,-1.2095,-1.1746,-1.1918,-1.2443,-1.2571,-1.2443,-1.2705,-1.2705,-1.2705,-1.2705,-1.2705,-1.2705,-1.2705,-1.2705,-1.2705,-1.2705,-1.2705,-1.2705,-1.2705,-1.2705,-1.2705,-1.2705,-1.2705,-1.2705,-1.2705,-1.2705,-1.2705,-1.2705,-1.2705,-1.2705,-1.2705,-1.2705,-1.2705,-1.2705,-1.2705,-1.2705,-1.2705,-1.2705,-1.9292,-1.9292,-1.9292,-1.9292,-1.9292,-1.9292,-1.9292,-1.9292,-1.9292,-1.9292,-1.9292,-1.9292,-1.9301,-1.9253,-1.9253,-1.9183,-1.9073,-1.9042,-1.8962,-1.8891,-1.8851,-1.8851,-1.8812,-1.8772,-1.8851,-1.8851,-1.8851,-1.8737,-1.8688,-1.862,-1.8438,-1.8199,-1.8153,-1.8006,-1.7805,-1.7616,-1.741,-1.6682,-1.6012,-1.4956,-1.3601,-1.2711,-1.2351,-1.2085,-1.195,-1.1864,-1.1858,-1.1821,-1.1802,-1.1807,-1.2103,-1.2268,-1.2194,-1.1595,-1.1737,-1.1966,-1.2003,-1.1787,-1.1846,-1.2005,-1.2062,-1.2153,-1.2292,-1.2419,-1.2453,-1.2552,-1.265,-1.2699,-1.2705,-1.2705,-1.2705,-1.2705,-1.2705,-1.2705,-1.2705,-1.2571,-1.2308,-1.1047,-1.0745,-1.1354,-1.1875,-1.2009,-1.2052,-1.24,-1.2705,-1.2705,-1.2705,-1.2705,-1.2705,-1.2705,-1.2705,-1.2705,-1.2705,-1.2705,-1.2705,-1.2705,-1.2705,-1.2705,-1.2705,-1.2705,-1.2705,-1.2705,-1.2705,-1.2705,-1.2705,-1.2705,-1.2705,-1.2705,-1.2705,-1.2705,-1.2705,-1.2705,-1.2705,-1.2705,-1.2705,-1.9292,-1.9292,-1.9292,-1.9292,-1.9292,-1.9292,-1.9292,-1.9292,-1.9292,-1.9292,-1.9292,-1.9292,-1.9222,-1.9152,-1.9103,-1.9042,-1.8843,-1.8851,-1.882,-1.87,-1.8669,-1.8709,-1.8709,-1.87,-1.8709,-1.866,-1.87,-1.8736,-1.8698,-1.8692,-1.8593,-1.8476,-1.8363,-1.8087,-1.7571,-1.7278,-1.6522,-1.5743,-1.4966,-1.407,-1.3104,-1.2731,-1.26,-1.2145,-1.2132,-1.2049,-1.1971,-1.1996,-1.1996,-1.1934,-1.1866,-1.1744,-1.1781,-1.1509,-1.15,-1.2432,-1.2392,-1.2135,-1.1934,-1.2056,-1.2155,-1.2237,-1.2396,-1.2425,-1.2506,-1.262,-1.2705,-1.2705,-1.2705,-1.2705,-1.2705,-1.2705,-1.2705,-1.2656,-1.2351,-1.1612,-1.1133,-1.0313,-0.9749,-1.0529,-1.1047,-1.0832,-1.0875,-1.1483,-1.2046,-1.2705,-1.2705,-1.2705,-1.2705,-1.2705,-1.2705,-1.2705,-1.2705,-1.2705,-1.2705,-1.2705,-1.2705,-1.2705,-1.2705,-1.2705,-1.2705,-1.2705,-1.2705,-1.2705,-1.2705,-1.2705,-1.2705,-1.2705,-1.2705,-1.2705,-1.2705,-1.2705,-1.2705,-1.2705,-1.2705,-1.9292,-1.9292,-1.9292,-1.9292,-1.9292,-1.9292,-1.9292,-1.9292,-1.9292,-1.9292,-1.9253,-1.9222,-1.9112,-1.8962,-1.8922,-1.8812,-1.862,-1.8612,-1.8571,-1.854,-1.854,-1.8491,-1.8451,-1.85,-1.8491,-1.8531,-1.8451,-1.8465,-1.8474,-1.8505,-1.8527,-1.866,-1.8289,-1.7914,-1.73,-1.6645,-1.5832,-1.4611,-1.3906,-1.3191,-1.2634,-1.2941,-1.2777,-1.2512,-1.232,-1.228,-1.2166,-1.2102,-1.2095,-1.2003,-1.1693,-1.1624,-1.1726,-1.1762,-1.1942,-1.2558,-1.2578,-1.2469,-1.2255,-1.2217,-1.2347,-1.2423,-1.2534,-1.2512,-1.2638,-1.2705,-1.2705,-1.2705,-1.2705,-1.2705,-1.2705,-1.2705,-1.2705,-1.2223,-1.1612,-1.0572,-0.9575,-0.8965,-0.8965,-0.9836,-0.9836,-0.8659,-0.9008,-1.0135,-1.1133,-1.2351,-1.2705,-1.2699,-1.2571,-1.2443,-1.2705,-1.2705,-1.2705,-1.2705,-1.2705,-1.2705,-1.2705,-1.2705,-1.2705,-1.2705,-1.2705,-1.2705,-1.2705,-1.2705,-1.2705,-1.2705,-1.2705,-1.2705,-1.2705,-1.2705,-1.2705,-1.2705,-1.2705,-1.2705,-1.2705,-1.9292,-1.9292,-1.9292,-1.9292,-1.9292,-1.9292,-1.9292,-1.9301,-1.9292,-1.9253,-1.9222,-1.9112,-1.8931,-1.878,-1.8692,-1.8612,-1.8402,-1.8442,-1.8282,-1.8161,-1.804,-1.8121,-1.8161,-1.8161,-1.8112,-1.8121,-1.8161,-1.8112,-1.8072,-1.8161,-1.8371,-1.854,-1.7861,-1.7408,-1.6642,-1.5745,-1.4914,-1.3801,-1.3067,-1.2566,-1.2237,-1.2357,-1.2335,-1.2119,-1.199,-1.1926,-1.1932,-1.2033,-1.2063,-1.2063,-1.1926,-1.1866,-1.1994,-1.2202,-1.2506,-1.262,-1.2705,-1.2626,-1.2512,-1.2379,-1.2312,-1.2385,-1.2499,-1.2638,-1.2693,-1.2705,-1.2705,-1.2705,-1.2705,-1.2528,-1.2571,-1.2705,-1.2662,-1.1703,-1.0702,-0.9575,-0.8663,-0.7921,-0.8097,-0.9052,-0.8838,-0.7834,-0.7485,-0.8663,-0.9488,-1.0659,-1.2443,-1.2528,-1.2009,-1.1923,-1.2485,-1.2705,-1.2705,-1.2705,-1.2705,-1.2705,-1.2705,-1.2705,-1.2705,-1.2705,-1.2705,-1.2705,-1.2705,-1.2705,-1.2705,-1.2705,-1.2705,-1.2705,-1.2705,-1.2705,-1.2705,-1.2705,-1.2705,-1.2705,-1.2705,-1.9292,-1.9292,-1.9292,-1.9292,-1.9292,-1.9292,-1.9292,-1.9262,-1.9192,-1.9042,-1.8931,-1.8851,-1.8723,-1.8563,-1.8482,-1.8362,-1.8193,-1.8152,-1.8072,-1.8031,-1.7991,-1.7991,-1.7991,-1.7991,-1.7991,-1.7991,-1.7991,-1.7991,-1.8031,-1.7991,-1.7619,-1.744,-1.7066,-1.6116,-1.5323,-1.4531,-1.371,-1.3287,-1.2763,-1.2451,-1.2445,-1.2445,-1.2469,-1.2421,-1.2403,-1.2403,-1.2409,-1.2403,-1.2403,-1.2391,-1.2379,-1.2361,-1.2343,-1.2602,-1.2681,-1.2705,-1.2705,-1.2705,-1.2699,-1.2602,-1.256,-1.2566,-1.265,-1.2705,-1.2705,-1.2705,-1.2705,-1.2705,-1.2656,-1.2485,-1.1139,-1.1875,-1.2272,-1.1058,-0.9884,-0.875,-0.7925,-0.7316,-0.7272,-0.8229,-0.8009,-0.7312,-0.7183,-0.7272,-0.8057,-0.8925,-1.0837,-1.2137,-1.1359,-1.1617,-1.2357,-1.2705,-1.2705,-1.2705,-1.2705,-1.2705,-1.2705,-1.2765,-1.2789,-1.2705,-1.2705,-1.2705,-1.2705,-1.2705,-1.2705,-1.2705,-1.2705,-1.2705,-1.2705,-1.2705,-1.2705,-1.2705,-1.2705,-1.2705,-1.2705,-1.9262,-1.9222,-1.9222,-1.9222,-1.9262,-1.9231,-1.9222,-1.9192,-1.9002,-1.8803,-1.8612,-1.8612,-1.8491,-1.8322,-1.8282,-1.8201,-1.808,-1.8031,-1.8031,-1.7991,-1.7991,-1.7991,-1.7991,-1.7991,-1.7991,-1.7991,-1.7991,-1.7991,-1.7991,-1.7991,-1.7326,-1.6665,-1.6247,-1.5338,-1.4287,-1.316,-1.2705,-1.2705,-1.2705,-1.2705,-1.2687,-1.2681,-1.2681,-1.2668,-1.265,-1.265,-1.2638,-1.2626,-1.2638,-1.2644,-1.2656,-1.2681,-1.2693,-1.2705,-1.2705,-1.2705,-1.2705,-1.2705,-1.2705,-1.2705,-1.2705,-1.2674,-1.2687,-1.2705,-1.2705,-1.2705,-1.2705,-1.2705,-1.2613,-1.188,-1.0062,-1.0399,-1.0664,-0.9453,-0.9318,-0.84,-0.7705,-0.7095,-0.7095,-0.7401,-0.7095,-0.7095,-0.7095,-0.7095,-0.7363,-0.8237,-0.9749,-1.0443,-0.9444,-1.0313,-1.2485,-1.2705,-1.2705,-1.2705,-1.2705,-1.2705,-1.2789,-1.329,-1.3206,-1.2777,-1.2705,-1.2723,-1.2717,-1.2705,-1.2705,-1.2705,-1.2705,-1.2705,-1.2705,-1.2705,-1.2705,-1.2705,-1.2705,-1.2705,-1.2705,-1.9183,-1.9042,-1.9002,-1.9112,-1.9231,-1.9073,-1.9002,-1.8962,-1.8772,-1.8612,-1.8402,-1.8402,-1.8273,-1.8072,-1.8072,-1.804,-1.804,-1.7991,-1.7991,-1.7991,-1.7991,-1.7991,-1.7991,-1.7991,-1.7991,-1.7991,-1.7991,-1.7991,-1.787,-1.7789,-1.6919,-1.576,-1.522,-1.4754,-1.3964,-1.3167,-1.2747,-1.2705,-1.2705,-1.2705,-1.2705,-1.2705,-1.2705,-1.2705,-1.2705,-1.2705,-1.2705,-1.2705,-1.2705,-1.2705,-1.2705,-1.2705,-1.2705,-1.2705,-1.2705,-1.2705,-1.2705,-1.2705,-1.2705,-1.2705,-1.2705,-1.2705,-1.2705,-1.2705,-1.2705,-1.2705,-1.2705,-1.2705,-1.2132,-1.1338,-0.9941,-0.8627,-0.8548,-0.8516,-0.8392,-0.8172,-0.748,-0.7244,-0.7265,-0.7125,-0.7095,-0.7095,-0.7095,-0.7098,-0.7105,-0.7804,-0.8969,-0.8882,-0.7969,-0.9411,-1.1914,-1.2789,-1.2795,-1.2783,-1.2783,-1.2723,-1.2904,-1.3483,-1.3634,-1.32,-1.2892,-1.285,-1.2819,-1.2741,-1.2705,-1.2705,-1.2705,-1.2705,-1.2705,-1.2705,-1.2705,-1.2705,-1.2705,-1.2705,-1.2705,-1.9002,-1.8812,-1.8812,-1.8851,-1.8882,-1.8812,-1.8812,-1.8772,-1.8571,-1.8362,-1.8161,-1.8161,-1.8112,-1.7991,-1.7991,-1.7991,-1.7991,-1.7991,-1.7991,-1.7991,-1.7991,-1.7991,-1.7991,-1.7991,-1.7991,-1.7991,-1.7991,-1.7659,-1.7123,-1.7245,-1.6124,-1.4838,-1.4132,-1.3464,-1.3167,-1.279,-1.2705,-1.2705,-1.2705,-1.2705,-1.2705,-1.2705,-1.2705,-1.2705,-1.2705,-1.2705,-1.2705,-1.2705,-1.2705,-1.2705,-1.2705,-1.2705,-1.2705,-1.2705,-1.2705,-1.2705,-1.2705,-1.2705,-1.2705,-1.2705,-1.2705,-1.2705,-1.2705,-1.2705,-1.2705,-1.2705,-1.2705,-1.1918,-1.0399,-0.9328,-0.8117,-0.7715,-0.766,-0.7818,-0.7734,-0.7631,-0.7272,-0.74,-0.7441,-0.7238,-0.7095,-0.7102,-0.7105,-0.7179,-0.72,-0.7193,-0.8209,-0.8216,-0.7452,-0.9217,-1.146,-1.2525,-1.2934,-1.291,-1.2898,-1.3012,-1.3278,-1.3839,-1.3918,-1.3634,-1.3369,-1.3133,-1.2898,-1.2807,-1.2753,-1.2705,-1.2705,-1.2705,-1.2705,-1.2705,-1.2705,-1.2705,-1.2705,-1.2705,-1.2705,-1.8772,-1.8612,-1.8612,-1.8571,-1.8491,-1.858,-1.8571,-1.8451,-1.8322,-1.8161,-1.804,-1.7991,-1.7991,-1.7991,-1.7991,-1.7991,-1.7991,-1.7991,-1.7991,-1.7991,-1.7991,-1.7991,-1.7991,-1.7991,-1.7991,-1.7991,-1.791,-1.7578,-1.6829,-1.6739,-1.5703,-1.4294,-1.3167,-1.2954,-1.2747,-1.2705,-1.2705,-1.2705,-1.2705,-1.2705,-1.2705,-1.2705,-1.2705,-1.2705,-1.2705,-1.2705,-1.2705,-1.2705,-1.2705,-1.2705,-1.2705,-1.2705,-1.2705,-1.2705,-1.2705,-1.2705,-1.2705,-1.2705,-1.2705,-1.2705,-1.2705,-1.2705,-1.2705,-1.2705,-1.2705,-1.2705,-1.1569,-1.0313,-0.836,-0.7865,-0.7538,-0.7267,-0.7402,-0.7604,-0.7543,-0.7444,-0.7312,-0.7434,-0.7468,-0.7223,-0.7227,-0.7169,-0.7132,-0.724,-0.736,-0.735,-0.7427,-0.7261,-0.7358,-0.937,-1.1364,-1.2609,-1.3224,-1.3169,-1.329,-1.3495,-1.3809,-1.4226,-1.4123,-1.3918,-1.3749,-1.3495,-1.3181,-1.2934,-1.3019,-1.3006,-1.2771,-1.2705,-1.2705,-1.2705,-1.2705,-1.2705,-1.2705,-1.2705,-1.2705,-1.8571,-1.8402,-1.8393,-1.8233,-1.808,-1.8282,-1.8233,-1.804,-1.7991,-1.7991,-1.7991,-1.7991,-1.7991,-1.7991,-1.7991,-1.7991,-1.7991,-1.7991,-1.7991,-1.7991,-1.7991,-1.7991,-1.7991,-1.7991,-1.7991,-1.7991,-1.787,-1.7448,-1.6698,-1.5902,-1.4991,-1.4041,-1.3039,-1.2784,-1.2705,-1.2705,-1.2705,-1.2705,-1.2705,-1.2705,-1.2705,-1.2705,-1.2705,-1.2705,-1.2705,-1.2705,-1.2705,-1.2705,-1.2705,-1.2705,-1.2705,-1.2705,-1.2705,-1.2705,-1.2705,-1.2705,-1.2705,-1.2705,-1.2705,-1.2705,-1.2705,-1.2662,-1.2534,-1.2619,-1.2571,-1.2266,-1.0745,-0.9139,-0.7411,-0.7556,-0.7536,-0.7658,-0.7735,-0.7787,-0.7736,-0.7577,-0.7366,-0.7314,-0.7351,-0.7321,-0.739,-0.7356,-0.7189,-0.7292,-0.7485,-0.7485,-0.7482,-0.7489,-0.7916,-0.9647,-1.1587,-1.3385,-1.3737,-1.3489,-1.3622,-1.3845,-1.399,-1.4298,-1.4298,-1.4141,-1.3996,-1.3857,-1.361,-1.3441,-1.3441,-1.329,-1.288,-1.2717,-1.2705,-1.2705,-1.2637,-1.2619,-1.2619,-1.2705,-1.2705,-1.8362,-1.8121,-1.8121,-1.8072,-1.8031,-1.808,-1.8072,-1.7991,-1.7991,-1.7991,-1.7991,-1.7991,-1.7991,-1.7991,-1.7991,-1.7991,-1.7991,-1.7991,-1.7991,-1.7991,-1.7991,-1.7991,-1.7991,-1.7991,-1.7991,-1.7991,-1.7789,-1.7164,-1.5718,-1.4831,-1.3951,-1.3039,-1.2875,-1.2699,-1.2705,-1.2705,-1.2705,-1.2705,-1.2705,-1.2705,-1.2705,-1.2705,-1.2705,-1.2705,-1.2705,-1.2705,-1.2705,-1.2705,-1.2705,-1.2705,-1.2705,-1.2705,-1.2705,-1.2705,-1.2705,-1.2705,-1.2705,-1.2705,-1.2705,-1.2705,-1.2662,-1.2443,-1.2143,-1.2235,-1.21,-1.1359,-0.971,-0.8141,-0.7255,-0.7495,-0.7719,-0.7826,-0.7877,-0.7879,-0.7794,-0.7557,-0.7415,-0.7543,-0.7557,-0.7415,-0.7485,-0.7475,-0.7301,-0.7448,-0.7617,-0.7621,-0.7634,-0.7611,-0.805,-0.9647,-1.1793,-1.3569,-1.4135,-1.3857,-1.3942,-1.4147,-1.4208,-1.4298,-1.4298,-1.4298,-1.4201,-1.4075,-1.3978,-1.3912,-1.3863,-1.3411,-1.2825,-1.2825,-1.3043,-1.2617,-1.2502,-1.2515,-1.2577,-1.2637,-1.2674,-1.829,-1.804,-1.7991,-1.7991,-1.7991,-1.7991,-1.7991,-1.7991,-1.7991,-1.7991,-1.7991,-1.7991,-1.7991,-1.7991,-1.7991,-1.7991,-1.7991,-1.7991,-1.7991,-1.7991,-1.7991,-1.7991,-1.7991,-1.7991,-1.7991,-1.791,-1.7497,-1.6706,-1.5179,-1.3711,-1.2747,-1.2747,-1.2705,-1.2705,-1.2705,-1.2705,-1.2705,-1.2705,-1.2705,-1.2705,-1.2705,-1.2705,-1.2705,-1.2705,-1.2705,-1.2705,-1.2705,-1.2705,-1.2705,-1.2705,-1.2705,-1.2705,-1.2705,-1.2705,-1.2705,-1.2705,-1.2705,-1.2705,-1.2705,-1.2705,-1.2491,-1.21,-1.1628,-1.1451,-1.1144,-1.0491,-0.9013,-0.7595,-0.758,-0.7591,-0.7806,-0.7982,-0.7938,-0.7943,-0.7725,-0.7553,-0.7671,-0.784,-0.7735,-0.7547,-0.7506,-0.7523,-0.7557,-0.7655,-0.7743,-0.7682,-0.7732,-0.7813,-0.7979,-0.8694,-1.1244,-1.3723,-1.4124,-1.4201,-1.4298,-1.4298,-1.4298,-1.4298,-1.4298,-1.4298,-1.4298,-1.4262,-1.4141,-1.4177,-1.4238,-1.3773,-1.332,-1.3393,-1.3456,-1.3037,-1.2513,-1.2297,-1.2399,-1.2598,-1.2654,-1.8391,-1.8042,-1.8008,-1.7991,-1.7991,-1.7991,-1.7991,-1.7991,-1.7991,-1.7991,-1.7991,-1.7991,-1.7991,-1.7991,-1.7991,-1.7991,-1.7991,-1.7991,-1.7991,-1.7991,-1.7991,-1.7991,-1.7991,-1.7991,-1.787,-1.7619,-1.7123,-1.6288,-1.5054,-1.3669,-1.2705,-1.2705,-1.2705,-1.2705,-1.2705,-1.2705,-1.2705,-1.2705,-1.2705,-1.2705,-1.2705,-1.2705,-1.2705,-1.2705,-1.2705,-1.2705,-1.2705,-1.2705,-1.2705,-1.2705,-1.2705,-1.2705,-1.2705,-1.2705,-1.2705,-1.2705,-1.2705,-1.2705,-1.2705,-1.2705,-1.2095,-1.1666,-1.1192,-1.0799,-1.0404,-1.0183,-0.8965,-0.7865,-0.7685,-0.7756,-0.7938,-0.7985,-0.7955,-0.7934,-0.7837,-0.7729,-0.7773,-0.7901,-0.7884,-0.7746,-0.7746,-0.7756,-0.7769,-0.7857,-0.783,-0.78,-0.7826,-0.7941,-0.8552,-0.8772,-1.0779,-1.3661,-1.4004,-1.4202,-1.4298,-1.4298,-1.4298,-1.4298,-1.4298,-1.4298,-1.4298,-1.4298,-1.4298,-1.4202,-1.4112,-1.425,-1.4075,-1.382,-1.3508,-1.3414,-1.2834,-1.2181,-1.2133,-1.2198,-1.2461,-1.8537,-1.8425,-1.8111,-1.7991,-1.7991,-1.7991,-1.7991,-1.7991,-1.7991,-1.7991,-1.7991,-1.7991,-1.7991,-1.7991,-1.7991,-1.7991,-1.7991,-1.7991,-1.7991,-1.7991,-1.7991,-1.7991,-1.7951,-1.787,-1.7619,-1.7123,-1.6576,-1.5745,-1.4378,-1.3288,-1.2705,-1.2705,-1.2705,-1.2705,-1.2705,-1.2705,-1.2705,-1.2705,-1.2705,-1.2705,-1.2705,-1.2705,-1.2705,-1.2705,-1.2705,-1.2705,-1.2705,-1.2705,-1.2705,-1.2705,-1.2705,-1.2705,-1.2705,-1.2705,-1.2705,-1.2705,-1.2705,-1.2705,-1.2662,-1.2534,-1.2015,-1.1144,-1.0626,-1.0226,-0.9961,-0.9918,-0.9402,-0.8364,-0.7853,-0.7938,-0.7988,-0.7982,-0.7978,-0.7968,-0.7958,-0.7911,-0.7867,-0.7924,-0.7982,-0.7988,-0.7988,-0.7988,-0.7988,-0.7978,-0.7961,-0.7948,-0.7944,-0.8276,-0.9444,-1.0092,-1.1121,-1.3318,-1.3806,-1.4052,-1.4202,-1.4298,-1.4298,-1.4298,-1.4298,-1.4298,-1.4298,-1.4106,-1.3913,-1.3919,-1.3919,-1.4016,-1.3865,-1.3445,-1.3225,-1.3295,-1.2571,-1.164,-1.1213,-1.1218,-1.1758,-1.8579,-1.8537,-1.8194,-1.7991,-1.7991,-1.7991,-1.7991,-1.7991,-1.7991,-1.7991,-1.7991,-1.7991,-1.7991,-1.7991,-1.7991,-1.7991,-1.7991,-1.7991,-1.7991,-1.7991,-1.7991,-1.7991,-1.791,-1.7659,-1.7204,-1.6698,-1.5703,-1.4706,-1.3578,-1.3075,-1.2705,-1.2705,-1.2705,-1.2705,-1.2705,-1.2705,-1.2705,-1.2705,-1.2705,-1.2705,-1.2705,-1.2705,-1.2705,-1.2705,-1.2705,-1.2705,-1.2705,-1.2705,-1.2705,-1.2705,-1.2705,-1.2705,-1.2705,-1.2705,-1.2705,-1.2705,-1.2705,-1.2705,-1.2619,-1.2277,-1.1757,-1.0799,-0.9758,-0.9274,-0.8488,-0.8396,-0.8599,-0.7756,-0.7891,-0.7988,-0.7988,-0.7985,-0.7985,-0.7978,-0.7975,-0.7955,-0.7938,-0.7961,-0.7988,-0.7988,-0.7988,-0.7988,-0.7988,-0.7988,-0.7975,-0.7975,-0.7988,-0.7988,-0.9262,-1.0681,-1.1901,-1.3028,-1.3565,-1.4004,-1.425,-1.4298,-1.4298,-1.4298,-1.425,-1.4298,-1.4202,-1.3823,-1.3534,-1.3588,-1.3588,-1.3582,-1.3389,-1.3098,-1.2953,-1.2985,-1.2004,-1.0849,-1.0533,-1.0167,-1.0557,-1.8674,-1.8614,-1.8331,-1.8119,-1.8068,-1.8076,-1.8042,-1.8,-1.7991,-1.7991,-1.7991,-1.7991,-1.7991,-1.7991,-1.7991,-1.7991,-1.7991,-1.7991,-1.7991,-1.7991,-1.7991,-1.7991,-1.77,-1.7237,-1.6617,-1.5703,-1.4664,-1.3789,-1.2869,-1.2705,-1.2705,-1.2705,-1.2705,-1.2705,-1.2705,-1.2705,-1.2705,-1.2705,-1.2705,-1.2705,-1.2705,-1.2705,-1.2705,-1.2705,-1.2705,-1.2705,-1.2705,-1.2705,-1.2705,-1.2705,-1.2705,-1.2705,-1.2705,-1.2705,-1.2705,-1.2705,-1.2705,-1.2705,-1.2528,-1.1886,-1.1101,-1.0144,-0.9017,-0.8201,-0.7507,-0.7364,-0.7617,-0.7787,-0.7921,-0.7988,-0.7988,-0.7988,-0.7988,-0.7988,-0.7988,-0.7988,-0.7988,-0.7988,-0.7988,-0.7988,-0.7988,-0.7988,-0.7988,-0.7988,-0.7988,-0.7988,-0.7988,-0.7988,-0.8478,-0.9998,-1.1365,-1.2587,-1.3516,-1.3908,-1.425,-1.4298,-1.4298,-1.4064,-1.3968,-1.4112,-1.4058,-1.3582,-1.3249,-1.3249,-1.3298,-1.3292,-1.3195,-1.3007,-1.2861,-1.2807,-1.138,-1.0145,-0.9243,-0.8996,-0.9268,-1.9059,-1.9101,-1.8982,-1.8776,-1.8511,-1.8477,-1.8314,-1.8025,-1.8,-1.7991,-1.7991,-1.7991,-1.7991,-1.7991,-1.7991,-1.7991,-1.7991,-1.7991,-1.7991,-1.7991,-1.7861,-1.791,-1.7578,-1.6657,-1.5745,-1.4664,-1.3662,-1.2997,-1.2705,-1.2705,-1.2705,-1.2705,-1.2705,-1.2705,-1.2705,-1.2705,-1.2705,-1.2705,-1.2705,-1.2705,-1.2705,-1.2705,-1.2705,-1.2705,-1.2705,-1.2705,-1.2705,-1.2705,-1.2705,-1.2705,-1.2705,-1.2705,-1.2705,-1.2705,-1.2705,-1.2528,-1.2528,-1.2528,-1.2229,-1.1451,-1.0496,-0.8575,-0.7816,-0.8105,-0.76,-0.7438,-0.7678,-0.7906,-0.7988,-0.7988,-0.7988,-0.7988,-0.7988,-0.7988,-0.7988,-0.7988,-0.7988,-0.7988,-0.7988,-0.7988,-0.7988,-0.7988,-0.7988,-0.7988,-0.7988,-0.7988,-0.7988,-0.7988,-0.7988,-0.941,-1.0783,-1.2247,-1.3463,-1.3908,-1.4298,-1.4298,-1.425,-1.3919,-1.3678,-1.3823,-1.3678,-1.3201,-1.3007,-1.3055,-1.3007,-1.2953,-1.2861,-1.291,-1.2861,-1.2565,-1.0886,-0.9505,-0.8467,-0.7922,-0.8219]}]]